<?xml version="1.0" encoding="UTF-8"?>
<gpx version="1.1" creator="2bulu-scraper" xmlns="http://www.topografix.com/GPX/1/1">
  <metadata><name>:14泸县玉蟾山亲子徒步环线</name><desc>source: 2bulu.com trackId=76843258; exported 2026-09-01T14:46:58.768Z</desc>
    <bounds minlat="29.126447" minlon="105.374178" maxlat="29.153915" maxlon="105.407695"/>
    <link href="https://www.2bulu.com/track/t-Zh0XibgS5G3p%252FR2KBg5Tzw%253D%253D.htm"><text>2bulu 源页面</text></link>
  </metadata>
  <wpt lat="29.14813" lon="105.391576"><ele>367</ele><name></name></wpt>
  <wpt lat="29.14813" lon="105.391576"><ele>367</ele><name></name></wpt>
  <wpt lat="29.14813" lon="105.391576"><ele>367</ele><name></name></wpt>
  <wpt lat="29.148194" lon="105.392797"><ele>374</ele><name></name></wpt>
  <wpt lat="29.14808" lon="105.39279"><ele>376</ele><name></name></wpt>
  <wpt lat="29.148198" lon="105.392896"><ele>377</ele><name></name></wpt>
  <wpt lat="29.147906" lon="105.394147"><ele>414</ele><name></name></wpt>
  <wpt lat="29.147671" lon="105.394413"><ele>430</ele><name></name></wpt>
  <wpt lat="29.147034" lon="105.394231"><ele>438</ele><name></name></wpt>
  <wpt lat="29.146436" lon="105.394323"><ele>446</ele><name>打靶场左往后山迈进</name></wpt>
  <wpt lat="29.146684" lon="105.395462"><ele>462</ele><name></name></wpt>
  <wpt lat="29.146701" lon="105.395571"><ele>462</ele><name></name></wpt>
  <wpt lat="29.146715" lon="105.395627"><ele>461</ele><name></name></wpt>
  <wpt lat="29.147561" lon="105.396588"><ele>462</ele><name></name></wpt>
  <wpt lat="29.147412" lon="105.395935"><ele>484</ele><name></name></wpt>
  <wpt lat="29.147416" lon="105.395883"><ele>487</ele><name></name></wpt>
  <wpt lat="29.147426" lon="105.395831"><ele>487</ele><name></name></wpt>
  <wpt lat="29.14766" lon="105.395832"><ele>489</ele><name>还没到制高点</name></wpt>
  <wpt lat="29.147847" lon="105.396016"><ele>488</ele><name></name></wpt>
  <wpt lat="29.148451" lon="105.397087"><ele>512</ele><name>爬山中</name></wpt>
  <wpt lat="29.148654" lon="105.39774"><ele>524</ele><name></name></wpt>
  <wpt lat="29.148654" lon="105.39774"><ele>524</ele><name>制高点</name></wpt>
  <wpt lat="29.148669" lon="105.397792"><ele>524</ele><name></name></wpt>
  <wpt lat="29.148895" lon="105.398786"><ele>506</ele><name></name></wpt>
  <wpt lat="29.148593" lon="105.399295"><ele>485</ele><name></name></wpt>
  <wpt lat="29.148272" lon="105.399776"><ele>462</ele><name></name></wpt>
  <wpt lat="29.148253" lon="105.399823"><ele>460</ele><name></name></wpt>
  <wpt lat="29.148253" lon="105.399823"><ele>460</ele><name></name></wpt>
  <wpt lat="29.148253" lon="105.399823"><ele>460</ele><name></name></wpt>
  <wpt lat="29.14831" lon="105.400236"><ele>452</ele><name></name></wpt>
  <wpt lat="29.148225" lon="105.400707"><ele>434</ele><name></name></wpt>
  <wpt lat="29.148258" lon="105.400749"><ele>433</ele><name></name></wpt>
  <wpt lat="29.148466" lon="105.400989"><ele>435</ele><name></name></wpt>
  <wpt lat="29.148466" lon="105.400989"><ele>435</ele><name></name></wpt>
  <wpt lat="29.148427" lon="105.401928"><ele>416</ele><name>休息点</name></wpt>
  <wpt lat="29.148383" lon="105.401916"><ele>414</ele><name></name></wpt>
  <wpt lat="29.148364" lon="105.401934"><ele>413</ele><name></name></wpt>
  <wpt lat="29.147484" lon="105.402569"><ele>381</ele><name>土公路</name></wpt>
  <wpt lat="29.147557" lon="105.402712"><ele>382</ele><name></name></wpt>
  <wpt lat="29.147599" lon="105.402813"><ele>382</ele><name></name></wpt>
  <wpt lat="29.148567" lon="105.403693"><ele>386</ele><name></name></wpt>
  <wpt lat="29.14872" lon="105.403576"><ele>391</ele><name></name></wpt>
  <wpt lat="29.14936" lon="105.403248"><ele>398</ele><name></name></wpt>
  <wpt lat="29.151251" lon="105.405099"><ele>397</ele><name></name></wpt>
  <wpt lat="29.151523" lon="105.405149"><ele>409</ele><name></name></wpt>
  <wpt lat="29.152878" lon="105.405454"><ele>443</ele><name></name></wpt>
  <wpt lat="29.148483" lon="105.4066"><ele>346</ele><name></name></wpt>
  <wpt lat="29.148391" lon="105.406598"><ele>343</ele><name></name></wpt>
  <wpt lat="29.148306" lon="105.406555"><ele>340</ele><name></name></wpt>
  <wpt lat="29.148261" lon="105.406536"><ele>337</ele><name></name></wpt>
  <wpt lat="29.148132" lon="105.406527"><ele>335</ele><name></name></wpt>
  <wpt lat="29.148004" lon="105.406572"><ele>329</ele><name></name></wpt>
  <wpt lat="29.147957" lon="105.406565"><ele>328</ele><name></name></wpt>
  <wpt lat="29.147595" lon="105.406539"><ele>321</ele><name></name></wpt>
  <wpt lat="29.147595" lon="105.406539"><ele>321</ele><name></name></wpt>
  <wpt lat="29.147523" lon="105.406622"><ele>319</ele><name></name></wpt>
  <wpt lat="29.146694" lon="105.406487"><ele>317</ele><name></name></wpt>
  <wpt lat="29.146694" lon="105.406487"><ele>317</ele><name>公路右转</name></wpt>
  <trk><name>:14泸县玉蟾山亲子徒步环线</name>
      <trkseg>
        <trkpt lat="29.151696" lon="105.390549"><ele>316.2926</ele><time>2025-12-27T21:13:31.000Z</time></trkpt>
        <trkpt lat="29.15173" lon="105.390587"><ele>314.9663</ele><time>2025-12-27T21:14:03.000Z</time></trkpt>
        <trkpt lat="29.151697" lon="105.39062"><ele>316.04214</ele><time>2025-12-27T21:14:16.000Z</time></trkpt>
        <trkpt lat="29.151656" lon="105.390661"><ele>317.0204</ele><time>2025-12-27T21:14:55.000Z</time></trkpt>
        <trkpt lat="29.151629" lon="105.390682"><ele>317.84006</ele><time>2025-12-27T21:15:01.000Z</time></trkpt>
        <trkpt lat="29.151569" lon="105.390701"><ele>319.2484</ele><time>2025-12-27T21:15:08.000Z</time></trkpt>
        <trkpt lat="29.15151" lon="105.390698"><ele>319.71964</ele><time>2025-12-27T21:15:16.000Z</time></trkpt>
        <trkpt lat="29.15147" lon="105.390669"><ele>320.01562</ele><time>2025-12-27T21:15:23.000Z</time></trkpt>
        <trkpt lat="29.151429" lon="105.390645"><ele>319.94485</ele><time>2025-12-27T21:15:28.000Z</time></trkpt>
        <trkpt lat="29.151391" lon="105.390607"><ele>320.43262</ele><time>2025-12-27T21:15:33.000Z</time></trkpt>
        <trkpt lat="29.151351" lon="105.390566"><ele>323.0808</ele><time>2025-12-27T21:15:42.000Z</time></trkpt>
        <trkpt lat="29.151328" lon="105.390528"><ele>323.80005</ele><time>2025-12-27T21:15:47.000Z</time></trkpt>
        <trkpt lat="29.151305" lon="105.390481"><ele>324.49307</ele><time>2025-12-27T21:15:52.000Z</time></trkpt>
        <trkpt lat="29.151313" lon="105.390428"><ele>323.94388</ele><time>2025-12-27T21:15:58.000Z</time></trkpt>
        <trkpt lat="29.151308" lon="105.390374"><ele>324.14313</ele><time>2025-12-27T21:16:07.000Z</time></trkpt>
        <trkpt lat="29.151316" lon="105.390323"><ele>323.8371</ele><time>2025-12-27T21:16:14.000Z</time></trkpt>
        <trkpt lat="29.151311" lon="105.390266"><ele>324.13895</ele><time>2025-12-27T21:16:21.000Z</time></trkpt>
        <trkpt lat="29.151257" lon="105.390257"><ele>324.26627</ele><time>2025-12-27T21:16:33.000Z</time></trkpt>
        <trkpt lat="29.151227" lon="105.390296"><ele>326.29633</ele><time>2025-12-27T21:16:39.000Z</time></trkpt>
        <trkpt lat="29.151205" lon="105.390336"><ele>327.97052</ele><time>2025-12-27T21:16:43.000Z</time></trkpt>
        <trkpt lat="29.151173" lon="105.390389"><ele>328.90887</ele><time>2025-12-27T21:16:48.000Z</time></trkpt>
        <trkpt lat="29.151123" lon="105.390402"><ele>331.33032</ele><time>2025-12-27T21:17:01.000Z</time></trkpt>
        <trkpt lat="29.151084" lon="105.390427"><ele>334.79053</ele><time>2025-12-27T21:17:26.000Z</time></trkpt>
        <trkpt lat="29.151045" lon="105.390458"><ele>337.7669</ele><time>2025-12-27T21:17:37.000Z</time></trkpt>
        <trkpt lat="29.15102" lon="105.390501"><ele>337.9759</ele><time>2025-12-27T21:17:47.000Z</time></trkpt>
        <trkpt lat="29.150983" lon="105.39054"><ele>338.9706</ele><time>2025-12-27T21:17:57.000Z</time></trkpt>
        <trkpt lat="29.150937" lon="105.390564"><ele>340.7962</ele><time>2025-12-27T21:18:06.000Z</time></trkpt>
        <trkpt lat="29.150897" lon="105.390591"><ele>343.5459</ele><time>2025-12-27T21:18:14.000Z</time></trkpt>
        <trkpt lat="29.150855" lon="105.390619"><ele>345.18356</ele><time>2025-12-27T21:18:21.000Z</time></trkpt>
        <trkpt lat="29.150812" lon="105.390653"><ele>346.96713</ele><time>2025-12-27T21:18:31.000Z</time></trkpt>
        <trkpt lat="29.150786" lon="105.390699"><ele>347.11227</ele><time>2025-12-27T21:18:39.000Z</time></trkpt>
        <trkpt lat="29.150777" lon="105.390748"><ele>346.37778</ele><time>2025-12-27T21:18:45.000Z</time></trkpt>
        <trkpt lat="29.150772" lon="105.390809"><ele>347.00592</ele><time>2025-12-27T21:18:51.000Z</time></trkpt>
        <trkpt lat="29.150757" lon="105.390865"><ele>347.89777</ele><time>2025-12-27T21:18:58.000Z</time></trkpt>
        <trkpt lat="29.150791" lon="105.390903"><ele>348.71277</ele><time>2025-12-27T21:19:07.000Z</time></trkpt>
        <trkpt lat="29.150832" lon="105.390933"><ele>348.7817</ele><time>2025-12-27T21:19:14.000Z</time></trkpt>
        <trkpt lat="29.150874" lon="105.390966"><ele>348.0468</ele><time>2025-12-27T21:19:23.000Z</time></trkpt>
        <trkpt lat="29.150841" lon="105.390999"><ele>349.0961</ele><time>2025-12-27T21:19:38.000Z</time></trkpt>
        <trkpt lat="29.150791" lon="105.391"><ele>349.16592</ele><time>2025-12-27T21:20:01.000Z</time></trkpt>
        <trkpt lat="29.15076" lon="105.391031"><ele>350.15295</ele><time>2025-12-27T21:20:09.000Z</time></trkpt>
        <trkpt lat="29.150746" lon="105.391087"><ele>353.0276</ele><time>2025-12-27T21:20:15.000Z</time></trkpt>
        <trkpt lat="29.150723" lon="105.391145"><ele>355.46005</ele><time>2025-12-27T21:20:21.000Z</time></trkpt>
        <trkpt lat="29.150678" lon="105.391165"><ele>355.59332</ele><time>2025-12-27T21:20:30.000Z</time></trkpt>
        <trkpt lat="29.150632" lon="105.39114"><ele>354.19083</ele><time>2025-12-27T21:20:37.000Z</time></trkpt>
        <trkpt lat="29.150582" lon="105.391168"><ele>352.72778</ele><time>2025-12-27T21:20:59.000Z</time></trkpt>
        <trkpt lat="29.150534" lon="105.391167"><ele>353.42056</ele><time>2025-12-27T21:21:09.000Z</time></trkpt>
        <trkpt lat="29.150485" lon="105.391159"><ele>354.83453</ele><time>2025-12-27T21:21:14.000Z</time></trkpt>
        <trkpt lat="29.150445" lon="105.391135"><ele>356.2985</ele><time>2025-12-27T21:21:18.000Z</time></trkpt>
        <trkpt lat="29.150398" lon="105.391114"><ele>357.69293</ele><time>2025-12-27T21:21:22.000Z</time></trkpt>
        <trkpt lat="29.150356" lon="105.391143"><ele>357.98462</ele><time>2025-12-27T21:21:31.000Z</time></trkpt>
        <trkpt lat="29.150319" lon="105.391166"><ele>358.32086</ele><time>2025-12-27T21:21:37.000Z</time></trkpt>
        <trkpt lat="29.150267" lon="105.391172"><ele>359.4868</ele><time>2025-12-27T21:21:44.000Z</time></trkpt>
        <trkpt lat="29.150215" lon="105.391169"><ele>360.2063</ele><time>2025-12-27T21:21:51.000Z</time></trkpt>
        <trkpt lat="29.150166" lon="105.391165"><ele>360.14755</ele><time>2025-12-27T21:21:57.000Z</time></trkpt>
        <trkpt lat="29.150117" lon="105.391156"><ele>359.9452</ele><time>2025-12-27T21:22:03.000Z</time></trkpt>
        <trkpt lat="29.150069" lon="105.391141"><ele>359.85364</ele><time>2025-12-27T21:22:09.000Z</time></trkpt>
        <trkpt lat="29.150025" lon="105.391131"><ele>359.9837</ele><time>2025-12-27T21:22:14.000Z</time></trkpt>
        <trkpt lat="29.149981" lon="105.391112"><ele>360.37955</ele><time>2025-12-27T21:22:19.000Z</time></trkpt>
        <trkpt lat="29.149935" lon="105.391086"><ele>360.64774</ele><time>2025-12-27T21:22:25.000Z</time></trkpt>
        <trkpt lat="29.149897" lon="105.391053"><ele>360.65625</ele><time>2025-12-27T21:22:30.000Z</time></trkpt>
        <trkpt lat="29.149848" lon="105.391029"><ele>360.3335</ele><time>2025-12-27T21:22:36.000Z</time></trkpt>
        <trkpt lat="29.149805" lon="105.391009"><ele>359.66916</ele><time>2025-12-27T21:22:41.000Z</time></trkpt>
        <trkpt lat="29.149755" lon="105.390998"><ele>359.68256</ele><time>2025-12-27T21:22:48.000Z</time></trkpt>
        <trkpt lat="29.149706" lon="105.390999"><ele>360.08124</ele><time>2025-12-27T21:22:55.000Z</time></trkpt>
        <trkpt lat="29.14966" lon="105.391"><ele>360.3611</ele><time>2025-12-27T21:23:01.000Z</time></trkpt>
        <trkpt lat="29.14961" lon="105.391002"><ele>360.3363</ele><time>2025-12-27T21:23:07.000Z</time></trkpt>
        <trkpt lat="29.149561" lon="105.391018"><ele>359.4631</ele><time>2025-12-27T21:23:13.000Z</time></trkpt>
        <trkpt lat="29.14951" lon="105.391027"><ele>357.98666</ele><time>2025-12-27T21:23:20.000Z</time></trkpt>
        <trkpt lat="29.149469" lon="105.391018"><ele>356.9545</ele><time>2025-12-27T21:23:25.000Z</time></trkpt>
        <trkpt lat="29.149422" lon="105.391012"><ele>356.4955</ele><time>2025-12-27T21:23:30.000Z</time></trkpt>
        <trkpt lat="29.149379" lon="105.390991"><ele>357.05228</ele><time>2025-12-27T21:23:35.000Z</time></trkpt>
        <trkpt lat="29.149331" lon="105.390969"><ele>360.8911</ele><time>2025-12-27T21:23:44.000Z</time></trkpt>
        <trkpt lat="29.149287" lon="105.390975"><ele>363.38953</ele><time>2025-12-27T21:23:51.000Z</time></trkpt>
        <trkpt lat="29.14924" lon="105.390959"><ele>365.0811</ele><time>2025-12-27T21:24:03.000Z</time></trkpt>
        <trkpt lat="29.149197" lon="105.390935"><ele>366.62497</ele><time>2025-12-27T21:24:17.000Z</time></trkpt>
        <trkpt lat="29.149171" lon="105.390967"><ele>366.80493</ele><time>2025-12-27T21:24:23.000Z</time></trkpt>
        <trkpt lat="29.149126" lon="105.39099"><ele>366.9848</ele><time>2025-12-27T21:24:30.000Z</time></trkpt>
        <trkpt lat="29.149093" lon="105.39103"><ele>367.88104</ele><time>2025-12-27T21:24:37.000Z</time></trkpt>
        <trkpt lat="29.149065" lon="105.391078"><ele>369.7028</ele><time>2025-12-27T21:24:44.000Z</time></trkpt>
        <trkpt lat="29.149049" lon="105.391132"><ele>370.23062</ele><time>2025-12-27T21:24:53.000Z</time></trkpt>
        <trkpt lat="29.149057" lon="105.391181"><ele>369.25696</ele><time>2025-12-27T21:25:00.000Z</time></trkpt>
        <trkpt lat="29.149066" lon="105.391231"><ele>368.5359</ele><time>2025-12-27T21:25:05.000Z</time></trkpt>
        <trkpt lat="29.14909" lon="105.391278"><ele>368.19733</ele><time>2025-12-27T21:25:10.000Z</time></trkpt>
        <trkpt lat="29.149124" lon="105.391329"><ele>367.89777</ele><time>2025-12-27T21:25:16.000Z</time></trkpt>
        <trkpt lat="29.149156" lon="105.391373"><ele>367.70517</ele><time>2025-12-27T21:25:24.000Z</time></trkpt>
        <trkpt lat="29.149182" lon="105.391414"><ele>366.3744</ele><time>2025-12-27T21:25:31.000Z</time></trkpt>
        <trkpt lat="29.149187" lon="105.391468"><ele>366.10397</ele><time>2025-12-27T21:25:38.000Z</time></trkpt>
        <trkpt lat="29.149177" lon="105.391525"><ele>365.8585</ele><time>2025-12-27T21:25:46.000Z</time></trkpt>
        <trkpt lat="29.149163" lon="105.391576"><ele>367.0282</ele><time>2025-12-27T21:25:53.000Z</time></trkpt>
        <trkpt lat="29.149118" lon="105.391597"><ele>369.72812</ele><time>2025-12-27T21:26:10.000Z</time></trkpt>
        <trkpt lat="29.149081" lon="105.391568"><ele>370.41107</ele><time>2025-12-27T21:26:19.000Z</time></trkpt>
        <trkpt lat="29.149048" lon="105.391528"><ele>370.14743</ele><time>2025-12-27T21:26:28.000Z</time></trkpt>
        <trkpt lat="29.149009" lon="105.391491"><ele>370.94302</ele><time>2025-12-27T21:26:36.000Z</time></trkpt>
        <trkpt lat="29.148962" lon="105.391483"><ele>371.48468</ele><time>2025-12-27T21:26:42.000Z</time></trkpt>
        <trkpt lat="29.148916" lon="105.391498"><ele>372.5661</ele><time>2025-12-27T21:26:48.000Z</time></trkpt>
        <trkpt lat="29.148883" lon="105.391542"><ele>374.8727</ele><time>2025-12-27T21:27:00.000Z</time></trkpt>
        <trkpt lat="29.148862" lon="105.391592"><ele>373.58508</ele><time>2025-12-27T21:27:06.000Z</time></trkpt>
        <trkpt lat="29.14884" lon="105.39165"><ele>372.84174</ele><time>2025-12-27T21:27:13.000Z</time></trkpt>
        <trkpt lat="29.148822" lon="105.391701"><ele>372.7019</ele><time>2025-12-27T21:27:20.000Z</time></trkpt>
        <trkpt lat="29.148784" lon="105.391736"><ele>370.75745</ele><time>2025-12-27T21:27:28.000Z</time></trkpt>
        <trkpt lat="29.148738" lon="105.391742"><ele>369.50497</ele><time>2025-12-27T21:27:36.000Z</time></trkpt>
        <trkpt lat="29.14869" lon="105.391744"><ele>368.32663</ele><time>2025-12-27T21:27:45.000Z</time></trkpt>
        <trkpt lat="29.148643" lon="105.391726"><ele>367.73993</ele><time>2025-12-27T21:27:54.000Z</time></trkpt>
        <trkpt lat="29.148599" lon="105.39171"><ele>368.71933</ele><time>2025-12-27T21:28:02.000Z</time></trkpt>
        <trkpt lat="29.148548" lon="105.391686"><ele>367.6814</ele><time>2025-12-27T21:28:16.000Z</time></trkpt>
        <trkpt lat="29.148508" lon="105.391663"><ele>366.85623</ele><time>2025-12-27T21:28:23.000Z</time></trkpt>
        <trkpt lat="29.148458" lon="105.391656"><ele>366.35016</ele><time>2025-12-27T21:28:29.000Z</time></trkpt>
        <trkpt lat="29.148406" lon="105.391628"><ele>365.4757</ele><time>2025-12-27T21:28:38.000Z</time></trkpt>
        <trkpt lat="29.148369" lon="105.391587"><ele>365.40555</ele><time>2025-12-27T21:28:46.000Z</time></trkpt>
        <trkpt lat="29.148327" lon="105.391575"><ele>366.1078</ele><time>2025-12-27T21:28:52.000Z</time></trkpt>
        <trkpt lat="29.148281" lon="105.391569"><ele>367.08755</ele><time>2025-12-27T21:28:57.000Z</time></trkpt>
        <trkpt lat="29.148233" lon="105.391553"><ele>367.82065</ele><time>2025-12-27T21:29:03.000Z</time></trkpt>
        <trkpt lat="29.148181" lon="105.391561"><ele>367.81097</ele><time>2025-12-27T21:29:11.000Z</time></trkpt>
        <trkpt lat="29.148133" lon="105.391574"><ele>367.3061</ele><time>2025-12-27T21:29:18.000Z</time></trkpt>
        <trkpt lat="29.148096" lon="105.39161"><ele>365.63934</ele><time>2025-12-27T21:30:59.000Z</time></trkpt>
        <trkpt lat="29.148067" lon="105.391599"><ele>364.0183</ele><time>2025-12-27T21:31:05.000Z</time></trkpt>
        <trkpt lat="29.14803" lon="105.391635"><ele>363.658</ele><time>2025-12-27T21:31:11.000Z</time></trkpt>
        <trkpt lat="29.147982" lon="105.391663"><ele>363.33456</ele><time>2025-12-27T21:31:21.000Z</time></trkpt>
        <trkpt lat="29.147931" lon="105.391654"><ele>363.07977</ele><time>2025-12-27T21:31:39.000Z</time></trkpt>
        <trkpt lat="29.147891" lon="105.391638"><ele>362.84073</ele><time>2025-12-27T21:31:47.000Z</time></trkpt>
        <trkpt lat="29.147839" lon="105.39163"><ele>362.96057</ele><time>2025-12-27T21:31:54.000Z</time></trkpt>
        <trkpt lat="29.147847" lon="105.391682"><ele>363.4279</ele><time>2025-12-27T21:32:18.000Z</time></trkpt>
        <trkpt lat="29.147866" lon="105.391733"><ele>360.87268</ele><time>2025-12-27T21:32:26.000Z</time></trkpt>
        <trkpt lat="29.147874" lon="105.391787"><ele>363.7672</ele><time>2025-12-27T21:32:38.000Z</time></trkpt>
        <trkpt lat="29.147853" lon="105.391838"><ele>364.3007</ele><time>2025-12-27T21:33:01.000Z</time></trkpt>
        <trkpt lat="29.147857" lon="105.391885"><ele>364.60437</ele><time>2025-12-27T21:33:07.000Z</time></trkpt>
        <trkpt lat="29.147855" lon="105.391952"><ele>365.5364</ele><time>2025-12-27T21:33:16.000Z</time></trkpt>
        <trkpt lat="29.147847" lon="105.392005"><ele>365.59326</ele><time>2025-12-27T21:33:22.000Z</time></trkpt>
        <trkpt lat="29.14783" lon="105.39206"><ele>365.9998</ele><time>2025-12-27T21:33:32.000Z</time></trkpt>
        <trkpt lat="29.147808" lon="105.392108"><ele>365.838</ele><time>2025-12-27T21:33:40.000Z</time></trkpt>
        <trkpt lat="29.147787" lon="105.392158"><ele>365.5419</ele><time>2025-12-27T21:33:52.000Z</time></trkpt>
        <trkpt lat="29.14778" lon="105.392205"><ele>365.69995</ele><time>2025-12-27T21:34:00.000Z</time></trkpt>
        <trkpt lat="29.147776" lon="105.392263"><ele>365.24606</ele><time>2025-12-27T21:35:44.000Z</time></trkpt>
        <trkpt lat="29.147782" lon="105.392298"><ele>365.82028</ele><time>2025-12-27T21:35:50.000Z</time></trkpt>
        <trkpt lat="29.147817" lon="105.392355"><ele>366.49524</ele><time>2025-12-27T21:36:06.000Z</time></trkpt>
        <trkpt lat="29.147856" lon="105.392352"><ele>368.21884</ele><time>2025-12-27T21:36:11.000Z</time></trkpt>
        <trkpt lat="29.147881" lon="105.392396"><ele>368.8044</ele><time>2025-12-27T21:36:20.000Z</time></trkpt>
        <trkpt lat="29.147902" lon="105.392448"><ele>370.0583</ele><time>2025-12-27T21:36:26.000Z</time></trkpt>
        <trkpt lat="29.147946" lon="105.392471"><ele>369.4404</ele><time>2025-12-27T21:36:33.000Z</time></trkpt>
        <trkpt lat="29.147971" lon="105.392506"><ele>369.92163</ele><time>2025-12-27T21:36:38.000Z</time></trkpt>
        <trkpt lat="29.14801" lon="105.39253"><ele>370.34268</ele><time>2025-12-27T21:36:43.000Z</time></trkpt>
        <trkpt lat="29.148053" lon="105.392571"><ele>371.63666</ele><time>2025-12-27T21:36:57.000Z</time></trkpt>
        <trkpt lat="29.148067" lon="105.392611"><ele>372.39932</ele><time>2025-12-27T21:37:02.000Z</time></trkpt>
        <trkpt lat="29.148092" lon="105.392669"><ele>373.4695</ele><time>2025-12-27T21:37:10.000Z</time></trkpt>
        <trkpt lat="29.148123" lon="105.392713"><ele>374.33646</ele><time>2025-12-27T21:37:18.000Z</time></trkpt>
        <trkpt lat="29.148151" lon="105.392751"><ele>374.9513</ele><time>2025-12-27T21:37:25.000Z</time></trkpt>
        <trkpt lat="29.148193" lon="105.392796"><ele>374.3939</ele><time>2025-12-27T21:37:35.000Z</time></trkpt>
        <trkpt lat="29.148155" lon="105.392772"><ele>374.71887</ele><time>2025-12-27T21:37:44.000Z</time></trkpt>
        <trkpt lat="29.148106" lon="105.392744"><ele>374.4893</ele><time>2025-12-27T21:37:50.000Z</time></trkpt>
        <trkpt lat="29.148078" lon="105.392779"><ele>376.0198</ele><time>2025-12-27T21:37:57.000Z</time></trkpt>
        <trkpt lat="29.148064" lon="105.392838"><ele>377.85623</ele><time>2025-12-27T21:38:06.000Z</time></trkpt>
        <trkpt lat="29.148102" lon="105.392862"><ele>378.2748</ele><time>2025-12-27T21:38:13.000Z</time></trkpt>
        <trkpt lat="29.148147" lon="105.392878"><ele>378.01523</ele><time>2025-12-27T21:38:18.000Z</time></trkpt>
        <trkpt lat="29.148196" lon="105.392896"><ele>377.54178</ele><time>2025-12-27T21:38:25.000Z</time></trkpt>
        <trkpt lat="29.148241" lon="105.392906"><ele>377.58408</ele><time>2025-12-27T21:38:30.000Z</time></trkpt>
        <trkpt lat="29.148292" lon="105.392925"><ele>378.5235</ele><time>2025-12-27T21:38:37.000Z</time></trkpt>
        <trkpt lat="29.148303" lon="105.392986"><ele>380.17902</ele><time>2025-12-27T21:38:48.000Z</time></trkpt>
        <trkpt lat="29.148344" lon="105.392983"><ele>381.5223</ele><time>2025-12-27T21:39:02.000Z</time></trkpt>
        <trkpt lat="29.148355" lon="105.393031"><ele>381.21237</ele><time>2025-12-27T21:39:20.000Z</time></trkpt>
        <trkpt lat="29.148368" lon="105.393081"><ele>381.7982</ele><time>2025-12-27T21:39:26.000Z</time></trkpt>
        <trkpt lat="29.148389" lon="105.393135"><ele>382.5448</ele><time>2025-12-27T21:39:37.000Z</time></trkpt>
        <trkpt lat="29.148356" lon="105.393171"><ele>384.19443</ele><time>2025-12-27T21:39:51.000Z</time></trkpt>
        <trkpt lat="29.14831" lon="105.393183"><ele>385.16385</ele><time>2025-12-27T21:40:03.000Z</time></trkpt>
        <trkpt lat="29.148286" lon="105.393236"><ele>387.54913</ele><time>2025-12-27T21:40:23.000Z</time></trkpt>
        <trkpt lat="29.148243" lon="105.393255"><ele>389.20312</ele><time>2025-12-27T21:40:31.000Z</time></trkpt>
        <trkpt lat="29.148191" lon="105.393264"><ele>390.84094</ele><time>2025-12-27T21:40:43.000Z</time></trkpt>
        <trkpt lat="29.148149" lon="105.393275"><ele>391.67978</ele><time>2025-12-27T21:40:51.000Z</time></trkpt>
        <trkpt lat="29.148141" lon="105.393333"><ele>395.0545</ele><time>2025-12-27T21:41:05.000Z</time></trkpt>
        <trkpt lat="29.148139" lon="105.393391"><ele>395.55353</ele><time>2025-12-27T21:41:18.000Z</time></trkpt>
        <trkpt lat="29.148156" lon="105.393444"><ele>398.7783</ele><time>2025-12-27T21:41:27.000Z</time></trkpt>
        <trkpt lat="29.148176" lon="105.393499"><ele>399.22815</ele><time>2025-12-27T21:41:45.000Z</time></trkpt>
        <trkpt lat="29.148192" lon="105.393553"><ele>399.87607</ele><time>2025-12-27T21:41:55.000Z</time></trkpt>
        <trkpt lat="29.1482" lon="105.39361"><ele>402.22623</ele><time>2025-12-27T21:42:05.000Z</time></trkpt>
        <trkpt lat="29.148185" lon="105.393655"><ele>404.43848</ele><time>2025-12-27T21:42:12.000Z</time></trkpt>
        <trkpt lat="29.14817" lon="105.393711"><ele>405.47412</ele><time>2025-12-27T21:42:20.000Z</time></trkpt>
        <trkpt lat="29.148143" lon="105.393762"><ele>408.82355</ele><time>2025-12-27T21:42:41.000Z</time></trkpt>
        <trkpt lat="29.148118" lon="105.393804"><ele>410.98218</ele><time>2025-12-27T21:42:49.000Z</time></trkpt>
        <trkpt lat="29.148099" lon="105.393864"><ele>414.26797</ele><time>2025-12-27T21:42:56.000Z</time></trkpt>
        <trkpt lat="29.148136" lon="105.393903"><ele>414.40665</ele><time>2025-12-27T21:43:49.000Z</time></trkpt>
        <trkpt lat="29.148084" lon="105.393912"><ele>413.0963</ele><time>2025-12-27T21:44:30.000Z</time></trkpt>
        <trkpt lat="29.14805" lon="105.393948"><ele>413.835</ele><time>2025-12-27T21:44:36.000Z</time></trkpt>
        <trkpt lat="29.148012" lon="105.393982"><ele>412.45648</ele><time>2025-12-27T21:44:44.000Z</time></trkpt>
        <trkpt lat="29.147986" lon="105.394015"><ele>414.8491</ele><time>2025-12-27T21:44:48.000Z</time></trkpt>
        <trkpt lat="29.147977" lon="105.394079"><ele>420.21292</ele><time>2025-12-27T21:45:00.000Z</time></trkpt>
        <trkpt lat="29.147941" lon="105.394109"><ele>420.66782</ele><time>2025-12-27T21:45:12.000Z</time></trkpt>
        <trkpt lat="29.147906" lon="105.394146"><ele>414.59497</ele><time>2025-12-27T21:45:24.000Z</time></trkpt>
        <trkpt lat="29.147883" lon="105.394193"><ele>413.34293</ele><time>2025-12-27T21:45:45.000Z</time></trkpt>
        <trkpt lat="29.147864" lon="105.394244"><ele>425.22818</ele><time>2025-12-27T21:46:01.000Z</time></trkpt>
        <trkpt lat="29.147842" lon="105.394289"><ele>425.72485</ele><time>2025-12-27T21:46:11.000Z</time></trkpt>
        <trkpt lat="29.147826" lon="105.394341"><ele>425.27078</ele><time>2025-12-27T21:46:20.000Z</time></trkpt>
        <trkpt lat="29.14781" lon="105.39439"><ele>427.94513</ele><time>2025-12-27T21:46:28.000Z</time></trkpt>
        <trkpt lat="29.147762" lon="105.394379"><ele>434.21375</ele><time>2025-12-27T21:46:38.000Z</time></trkpt>
        <trkpt lat="29.147719" lon="105.394397"><ele>430.22968</ele><time>2025-12-27T21:46:49.000Z</time></trkpt>
        <trkpt lat="29.147671" lon="105.394413"><ele>430.28873</ele><time>2025-12-27T21:47:11.000Z</time></trkpt>
        <trkpt lat="29.147625" lon="105.394417"><ele>430.55896</ele><time>2025-12-27T21:47:18.000Z</time></trkpt>
        <trkpt lat="29.147563" lon="105.394406"><ele>432.96774</ele><time>2025-12-27T21:47:24.000Z</time></trkpt>
        <trkpt lat="29.147513" lon="105.394384"><ele>435.3994</ele><time>2025-12-27T21:47:32.000Z</time></trkpt>
        <trkpt lat="29.147471" lon="105.39437"><ele>435.2255</ele><time>2025-12-27T21:47:36.000Z</time></trkpt>
        <trkpt lat="29.147419" lon="105.394364"><ele>434.83734</ele><time>2025-12-27T21:47:41.000Z</time></trkpt>
        <trkpt lat="29.147367" lon="105.394336"><ele>435.5863</ele><time>2025-12-27T21:47:48.000Z</time></trkpt>
        <trkpt lat="29.147323" lon="105.394304"><ele>435.24698</ele><time>2025-12-27T21:47:57.000Z</time></trkpt>
        <trkpt lat="29.147275" lon="105.394309"><ele>435.73068</ele><time>2025-12-27T21:48:10.000Z</time></trkpt>
        <trkpt lat="29.147264" lon="105.394265"><ele>435.7917</ele><time>2025-12-27T21:48:16.000Z</time></trkpt>
        <trkpt lat="29.147216" lon="105.394237"><ele>435.63242</ele><time>2025-12-27T21:48:27.000Z</time></trkpt>
        <trkpt lat="29.147184" lon="105.394259"><ele>436.33316</ele><time>2025-12-27T21:48:31.000Z</time></trkpt>
        <trkpt lat="29.147128" lon="105.394257"><ele>438.16083</ele><time>2025-12-27T21:48:42.000Z</time></trkpt>
        <trkpt lat="29.147084" lon="105.39424"><ele>437.63263</ele><time>2025-12-27T21:48:53.000Z</time></trkpt>
        <trkpt lat="29.147034" lon="105.394231"><ele>437.9078</ele><time>2025-12-27T21:49:22.000Z</time></trkpt>
        <trkpt lat="29.146992" lon="105.394236"><ele>437.8022</ele><time>2025-12-27T21:49:29.000Z</time></trkpt>
        <trkpt lat="29.146937" lon="105.394224"><ele>435.7812</ele><time>2025-12-27T21:50:20.000Z</time></trkpt>
        <trkpt lat="29.146902" lon="105.394242"><ele>435.557</ele><time>2025-12-27T21:50:27.000Z</time></trkpt>
        <trkpt lat="29.146845" lon="105.394257"><ele>435.8419</ele><time>2025-12-27T21:50:35.000Z</time></trkpt>
        <trkpt lat="29.146798" lon="105.394278"><ele>436.6877</ele><time>2025-12-27T21:50:48.000Z</time></trkpt>
        <trkpt lat="29.146756" lon="105.394291"><ele>436.36728</ele><time>2025-12-27T21:50:57.000Z</time></trkpt>
        <trkpt lat="29.146719" lon="105.394268"><ele>436.51593</ele><time>2025-12-27T21:51:02.000Z</time></trkpt>
        <trkpt lat="29.146689" lon="105.394226"><ele>436.4214</ele><time>2025-12-27T21:51:07.000Z</time></trkpt>
        <trkpt lat="29.146658" lon="105.394186"><ele>436.30365</ele><time>2025-12-27T21:51:11.000Z</time></trkpt>
        <trkpt lat="29.146624" lon="105.394144"><ele>436.26328</ele><time>2025-12-27T21:51:16.000Z</time></trkpt>
        <trkpt lat="29.146593" lon="105.394107"><ele>436.76642</ele><time>2025-12-27T21:51:20.000Z</time></trkpt>
        <trkpt lat="29.146546" lon="105.394081"><ele>436.99152</ele><time>2025-12-27T21:51:26.000Z</time></trkpt>
        <trkpt lat="29.146505" lon="105.394056"><ele>437.98688</ele><time>2025-12-27T21:51:33.000Z</time></trkpt>
        <trkpt lat="29.146465" lon="105.394036"><ele>438.8968</ele><time>2025-12-27T21:51:39.000Z</time></trkpt>
        <trkpt lat="29.146417" lon="105.394005"><ele>438.82877</ele><time>2025-12-27T21:51:52.000Z</time></trkpt>
        <trkpt lat="29.146376" lon="105.39398"><ele>438.50595</ele><time>2025-12-27T21:52:00.000Z</time></trkpt>
        <trkpt lat="29.146334" lon="105.393957"><ele>438.7816</ele><time>2025-12-27T21:52:06.000Z</time></trkpt>
        <trkpt lat="29.146289" lon="105.393929"><ele>438.0777</ele><time>2025-12-27T21:52:15.000Z</time></trkpt>
        <trkpt lat="29.146247" lon="105.393914"><ele>438.84653</ele><time>2025-12-27T21:52:20.000Z</time></trkpt>
        <trkpt lat="29.146193" lon="105.393893"><ele>438.8468</ele><time>2025-12-27T21:52:27.000Z</time></trkpt>
        <trkpt lat="29.146153" lon="105.393857"><ele>439.37595</ele><time>2025-12-27T21:52:35.000Z</time></trkpt>
        <trkpt lat="29.146121" lon="105.393817"><ele>440.3906</ele><time>2025-12-27T21:52:42.000Z</time></trkpt>
        <trkpt lat="29.14614" lon="105.393781"><ele>440.3762</ele><time>2025-12-27T21:52:47.000Z</time></trkpt>
        <trkpt lat="29.14618" lon="105.393759"><ele>441.0082</ele><time>2025-12-27T21:52:51.000Z</time></trkpt>
        <trkpt lat="29.146151" lon="105.39379"><ele>442.7453</ele><time>2025-12-27T21:54:43.000Z</time></trkpt>
        <trkpt lat="29.146117" lon="105.393827"><ele>442.1139</ele><time>2025-12-27T21:54:53.000Z</time></trkpt>
        <trkpt lat="29.146117" lon="105.393887"><ele>441.13513</ele><time>2025-12-27T21:55:11.000Z</time></trkpt>
        <trkpt lat="29.146107" lon="105.393932"><ele>440.5438</ele><time>2025-12-27T21:55:16.000Z</time></trkpt>
        <trkpt lat="29.146104" lon="105.393989"><ele>440.54224</ele><time>2025-12-27T21:55:22.000Z</time></trkpt>
        <trkpt lat="29.146125" lon="105.39404"><ele>440.462</ele><time>2025-12-27T21:55:32.000Z</time></trkpt>
        <trkpt lat="29.146128" lon="105.394087"><ele>440.92606</ele><time>2025-12-27T21:55:39.000Z</time></trkpt>
        <trkpt lat="29.14612" lon="105.394147"><ele>442.47394</ele><time>2025-12-27T21:55:47.000Z</time></trkpt>
        <trkpt lat="29.146151" lon="105.39418"><ele>442.32254</ele><time>2025-12-27T21:55:55.000Z</time></trkpt>
        <trkpt lat="29.146202" lon="105.394199"><ele>441.98682</ele><time>2025-12-27T21:56:05.000Z</time></trkpt>
        <trkpt lat="29.146247" lon="105.394218"><ele>442.25928</ele><time>2025-12-27T21:56:13.000Z</time></trkpt>
        <trkpt lat="29.146296" lon="105.394213"><ele>442.7225</ele><time>2025-12-27T21:56:22.000Z</time></trkpt>
        <trkpt lat="29.146342" lon="105.394206"><ele>442.58218</ele><time>2025-12-27T21:56:31.000Z</time></trkpt>
        <trkpt lat="29.14637" lon="105.394248"><ele>444.1736</ele><time>2025-12-27T21:56:42.000Z</time></trkpt>
        <trkpt lat="29.146412" lon="105.394276"><ele>444.8231</ele><time>2025-12-27T21:57:00.000Z</time></trkpt>
        <trkpt lat="29.146436" lon="105.394321"><ele>445.82523</ele><time>2025-12-27T21:57:14.000Z</time></trkpt>
        <trkpt lat="29.146429" lon="105.394379"><ele>445.9998</ele><time>2025-12-27T21:57:45.000Z</time></trkpt>
        <trkpt lat="29.146412" lon="105.394427"><ele>446.50497</ele><time>2025-12-27T21:57:54.000Z</time></trkpt>
        <trkpt lat="29.146369" lon="105.394463"><ele>447.59546</ele><time>2025-12-27T21:58:11.000Z</time></trkpt>
        <trkpt lat="29.146372" lon="105.394509"><ele>448.18585</ele><time>2025-12-27T21:58:21.000Z</time></trkpt>
        <trkpt lat="29.146356" lon="105.394555"><ele>448.4422</ele><time>2025-12-27T21:58:27.000Z</time></trkpt>
        <trkpt lat="29.146341" lon="105.394612"><ele>449.10007</ele><time>2025-12-27T21:58:32.000Z</time></trkpt>
        <trkpt lat="29.146318" lon="105.39467"><ele>449.51804</ele><time>2025-12-27T21:58:47.000Z</time></trkpt>
        <trkpt lat="29.146272" lon="105.394678"><ele>449.5949</ele><time>2025-12-27T21:59:12.000Z</time></trkpt>
        <trkpt lat="29.146244" lon="105.394713"><ele>449.18884</ele><time>2025-12-27T21:59:18.000Z</time></trkpt>
        <trkpt lat="29.146241" lon="105.394775"><ele>453.71005</ele><time>2025-12-27T21:59:26.000Z</time></trkpt>
        <trkpt lat="29.146245" lon="105.394835"><ele>451.46884</ele><time>2025-12-27T21:59:34.000Z</time></trkpt>
        <trkpt lat="29.146285" lon="105.394866"><ele>451.6996</ele><time>2025-12-27T21:59:45.000Z</time></trkpt>
        <trkpt lat="29.146331" lon="105.394881"><ele>451.88608</ele><time>2025-12-27T21:59:54.000Z</time></trkpt>
        <trkpt lat="29.146351" lon="105.394925"><ele>452.91562</ele><time>2025-12-27T22:00:01.000Z</time></trkpt>
        <trkpt lat="29.146385" lon="105.394966"><ele>453.93744</ele><time>2025-12-27T22:00:08.000Z</time></trkpt>
        <trkpt lat="29.146425" lon="105.395002"><ele>454.79984</ele><time>2025-12-27T22:00:13.000Z</time></trkpt>
        <trkpt lat="29.146458" lon="105.395045"><ele>455.47647</ele><time>2025-12-27T22:00:18.000Z</time></trkpt>
        <trkpt lat="29.146497" lon="105.395094"><ele>455.90387</ele><time>2025-12-27T22:00:29.000Z</time></trkpt>
        <trkpt lat="29.146544" lon="105.395113"><ele>454.71976</ele><time>2025-12-27T22:00:37.000Z</time></trkpt>
        <trkpt lat="29.146578" lon="105.39515"><ele>455.37158</ele><time>2025-12-27T22:00:43.000Z</time></trkpt>
        <trkpt lat="29.146601" lon="105.395205"><ele>457.1069</ele><time>2025-12-27T22:00:51.000Z</time></trkpt>
        <trkpt lat="29.146608" lon="105.395253"><ele>458.44098</ele><time>2025-12-27T22:00:56.000Z</time></trkpt>
        <trkpt lat="29.146632" lon="105.39531"><ele>460.2025</ele><time>2025-12-27T22:01:05.000Z</time></trkpt>
        <trkpt lat="29.146648" lon="105.395352"><ele>459.67688</ele><time>2025-12-27T22:01:10.000Z</time></trkpt>
        <trkpt lat="29.146667" lon="105.395406"><ele>459.83966</ele><time>2025-12-27T22:01:17.000Z</time></trkpt>
        <trkpt lat="29.146683" lon="105.395459"><ele>461.8014</ele><time>2025-12-27T22:01:24.000Z</time></trkpt>
        <trkpt lat="29.146702" lon="105.395512"><ele>461.71323</ele><time>2025-12-27T22:01:30.000Z</time></trkpt>
        <trkpt lat="29.146703" lon="105.395569"><ele>462.34637</ele><time>2025-12-27T22:01:37.000Z</time></trkpt>
        <trkpt lat="29.146715" lon="105.395628"><ele>460.73425</ele><time>2025-12-27T22:01:51.000Z</time></trkpt>
        <trkpt lat="29.146726" lon="105.395678"><ele>459.2294</ele><time>2025-12-27T22:01:58.000Z</time></trkpt>
        <trkpt lat="29.14673" lon="105.395733"><ele>459.373</ele><time>2025-12-27T22:02:03.000Z</time></trkpt>
        <trkpt lat="29.146725" lon="105.395791"><ele>460.45688</ele><time>2025-12-27T22:02:08.000Z</time></trkpt>
        <trkpt lat="29.146716" lon="105.395843"><ele>461.16516</ele><time>2025-12-27T22:02:11.000Z</time></trkpt>
        <trkpt lat="29.146703" lon="105.395915"><ele>461.0997</ele><time>2025-12-27T22:02:17.000Z</time></trkpt>
        <trkpt lat="29.146708" lon="105.395977"><ele>460.52872</ele><time>2025-12-27T22:02:25.000Z</time></trkpt>
        <trkpt lat="29.146736" lon="105.396015"><ele>460.4159</ele><time>2025-12-27T22:02:31.000Z</time></trkpt>
        <trkpt lat="29.146771" lon="105.396066"><ele>459.3618</ele><time>2025-12-27T22:02:44.000Z</time></trkpt>
        <trkpt lat="29.146782" lon="105.396111"><ele>460.14758</ele><time>2025-12-27T22:02:49.000Z</time></trkpt>
        <trkpt lat="29.146807" lon="105.396168"><ele>459.9383</ele><time>2025-12-27T22:02:57.000Z</time></trkpt>
        <trkpt lat="29.146841" lon="105.396209"><ele>459.994</ele><time>2025-12-27T22:03:03.000Z</time></trkpt>
        <trkpt lat="29.146886" lon="105.396257"><ele>459.25674</ele><time>2025-12-27T22:03:11.000Z</time></trkpt>
        <trkpt lat="29.14691" lon="105.396307"><ele>458.3381</ele><time>2025-12-27T22:03:23.000Z</time></trkpt>
        <trkpt lat="29.146953" lon="105.39631"><ele>459.9855</ele><time>2025-12-27T22:03:30.000Z</time></trkpt>
        <trkpt lat="29.146994" lon="105.396343"><ele>460.77106</ele><time>2025-12-27T22:03:41.000Z</time></trkpt>
        <trkpt lat="29.147034" lon="105.39636"><ele>460.9459</ele><time>2025-12-27T22:03:47.000Z</time></trkpt>
        <trkpt lat="29.147069" lon="105.396375"><ele>461.1664</ele><time>2025-12-27T22:03:50.000Z</time></trkpt>
        <trkpt lat="29.147124" lon="105.396393"><ele>461.7965</ele><time>2025-12-27T22:03:56.000Z</time></trkpt>
        <trkpt lat="29.147161" lon="105.396428"><ele>461.85236</ele><time>2025-12-27T22:04:01.000Z</time></trkpt>
        <trkpt lat="29.147194" lon="105.396473"><ele>462.15018</ele><time>2025-12-27T22:04:06.000Z</time></trkpt>
        <trkpt lat="29.147238" lon="105.396524"><ele>461.40845</ele><time>2025-12-27T22:04:13.000Z</time></trkpt>
        <trkpt lat="29.147286" lon="105.396524"><ele>459.01288</ele><time>2025-12-27T22:04:23.000Z</time></trkpt>
        <trkpt lat="29.147322" lon="105.39655"><ele>458.83002</ele><time>2025-12-27T22:04:30.000Z</time></trkpt>
        <trkpt lat="29.147357" lon="105.39659"><ele>458.95175</ele><time>2025-12-27T22:04:36.000Z</time></trkpt>
        <trkpt lat="29.147401" lon="105.396608"><ele>457.96677</ele><time>2025-12-27T22:04:41.000Z</time></trkpt>
        <trkpt lat="29.147452" lon="105.396631"><ele>460.16116</ele><time>2025-12-27T22:04:54.000Z</time></trkpt>
        <trkpt lat="29.147496" lon="105.396657"><ele>457.31668</ele><time>2025-12-27T22:05:11.000Z</time></trkpt>
        <trkpt lat="29.147532" lon="105.396689"><ele>459.5826</ele><time>2025-12-27T22:05:28.000Z</time></trkpt>
        <trkpt lat="29.147566" lon="105.396725"><ele>458.41455</ele><time>2025-12-27T22:05:38.000Z</time></trkpt>
        <trkpt lat="29.147532" lon="105.396695"><ele>459.13596</ele><time>2025-12-27T22:05:56.000Z</time></trkpt>
        <trkpt lat="29.147534" lon="105.396632"><ele>460.10052</ele><time>2025-12-27T22:06:19.000Z</time></trkpt>
        <trkpt lat="29.14756" lon="105.396592"><ele>462.18924</ele><time>2025-12-27T22:06:28.000Z</time></trkpt>
        <trkpt lat="29.147526" lon="105.396556"><ele>462.9171</ele><time>2025-12-27T22:07:45.000Z</time></trkpt>
        <trkpt lat="29.147554" lon="105.396522"><ele>466.2299</ele><time>2025-12-27T22:07:58.000Z</time></trkpt>
        <trkpt lat="29.147595" lon="105.396545"><ele>468.72836</ele><time>2025-12-27T22:08:09.000Z</time></trkpt>
        <trkpt lat="29.147601" lon="105.396504"><ele>463.76035</ele><time>2025-12-27T22:08:18.000Z</time></trkpt>
        <trkpt lat="29.147607" lon="105.39644"><ele>467.23248</ele><time>2025-12-27T22:08:39.000Z</time></trkpt>
        <trkpt lat="29.147587" lon="105.396392"><ele>471.05002</ele><time>2025-12-27T22:09:00.000Z</time></trkpt>
        <trkpt lat="29.147543" lon="105.396373"><ele>474.28705</ele><time>2025-12-27T22:10:19.000Z</time></trkpt>
        <trkpt lat="29.147516" lon="105.396337"><ele>475.21188</ele><time>2025-12-27T22:10:31.000Z</time></trkpt>
        <trkpt lat="29.147478" lon="105.396302"><ele>476.01816</ele><time>2025-12-27T22:10:53.000Z</time></trkpt>
        <trkpt lat="29.147459" lon="105.396252"><ele>472.07172</ele><time>2025-12-27T22:11:08.000Z</time></trkpt>
        <trkpt lat="29.14745" lon="105.396196"><ele>476.113</ele><time>2025-12-27T22:11:25.000Z</time></trkpt>
        <trkpt lat="29.147427" lon="105.396148"><ele>480.29898</ele><time>2025-12-27T22:11:45.000Z</time></trkpt>
        <trkpt lat="29.147411" lon="105.396095"><ele>482.30716</ele><time>2025-12-27T22:12:23.000Z</time></trkpt>
        <trkpt lat="29.147398" lon="105.396041"><ele>485.33212</ele><time>2025-12-27T22:12:43.000Z</time></trkpt>
        <trkpt lat="29.147402" lon="105.395989"><ele>483.64426</ele><time>2025-12-27T22:13:38.000Z</time></trkpt>
        <trkpt lat="29.147412" lon="105.395936"><ele>483.72565</ele><time>2025-12-27T22:14:05.000Z</time></trkpt>
        <trkpt lat="29.147416" lon="105.395883"><ele>486.91428</ele><time>2025-12-27T22:14:51.000Z</time></trkpt>
        <trkpt lat="29.147426" lon="105.395832"><ele>487.45883</ele><time>2025-12-27T22:15:31.000Z</time></trkpt>
        <trkpt lat="29.147472" lon="105.395825"><ele>486.701</ele><time>2025-12-27T22:15:54.000Z</time></trkpt>
        <trkpt lat="29.147515" lon="105.395831"><ele>487.46005</ele><time>2025-12-27T22:16:01.000Z</time></trkpt>
        <trkpt lat="29.14756" lon="105.39582"><ele>489.17862</ele><time>2025-12-27T22:16:07.000Z</time></trkpt>
        <trkpt lat="29.147607" lon="105.395827"><ele>490.80096</ele><time>2025-12-27T22:16:12.000Z</time></trkpt>
        <trkpt lat="29.147661" lon="105.395832"><ele>489.6694</ele><time>2025-12-27T22:16:26.000Z</time></trkpt>
        <trkpt lat="29.147696" lon="105.395873"><ele>488.68408</ele><time>2025-12-27T22:18:08.000Z</time></trkpt>
        <trkpt lat="29.147724" lon="105.395911"><ele>489.06097</ele><time>2025-12-27T22:18:17.000Z</time></trkpt>
        <trkpt lat="29.147749" lon="105.395954"><ele>488.21783</ele><time>2025-12-27T22:18:22.000Z</time></trkpt>
        <trkpt lat="29.147794" lon="105.395981"><ele>487.96893</ele><time>2025-12-27T22:18:27.000Z</time></trkpt>
        <trkpt lat="29.147847" lon="105.396017"><ele>488.2597</ele><time>2025-12-27T22:18:37.000Z</time></trkpt>
        <trkpt lat="29.147888" lon="105.396041"><ele>486.8909</ele><time>2025-12-27T22:18:46.000Z</time></trkpt>
        <trkpt lat="29.14793" lon="105.396074"><ele>489.09113</ele><time>2025-12-27T22:18:55.000Z</time></trkpt>
        <trkpt lat="29.147966" lon="105.396115"><ele>488.28223</ele><time>2025-12-27T22:19:02.000Z</time></trkpt>
        <trkpt lat="29.148003" lon="105.396156"><ele>488.14548</ele><time>2025-12-27T22:19:08.000Z</time></trkpt>
        <trkpt lat="29.148038" lon="105.396203"><ele>487.75497</ele><time>2025-12-27T22:19:16.000Z</time></trkpt>
        <trkpt lat="29.14806" lon="105.396247"><ele>487.93616</ele><time>2025-12-27T22:19:23.000Z</time></trkpt>
        <trkpt lat="29.148088" lon="105.396286"><ele>487.338</ele><time>2025-12-27T22:19:29.000Z</time></trkpt>
        <trkpt lat="29.148123" lon="105.396329"><ele>488.8103</ele><time>2025-12-27T22:19:38.000Z</time></trkpt>
        <trkpt lat="29.148149" lon="105.396384"><ele>490.11453</ele><time>2025-12-27T22:19:48.000Z</time></trkpt>
        <trkpt lat="29.148176" lon="105.396431"><ele>490.13208</ele><time>2025-12-27T22:19:58.000Z</time></trkpt>
        <trkpt lat="29.148196" lon="105.396481"><ele>494.6999</ele><time>2025-12-27T22:20:07.000Z</time></trkpt>
        <trkpt lat="29.148216" lon="105.396535"><ele>493.082</ele><time>2025-12-27T22:20:17.000Z</time></trkpt>
        <trkpt lat="29.148246" lon="105.396588"><ele>494.4788</ele><time>2025-12-27T22:20:25.000Z</time></trkpt>
        <trkpt lat="29.148285" lon="105.396629"><ele>497.2998</ele><time>2025-12-27T22:20:34.000Z</time></trkpt>
        <trkpt lat="29.148304" lon="105.396678"><ele>499.14386</ele><time>2025-12-27T22:20:43.000Z</time></trkpt>
        <trkpt lat="29.148328" lon="105.396725"><ele>500.1361</ele><time>2025-12-27T22:20:53.000Z</time></trkpt>
        <trkpt lat="29.148346" lon="105.396778"><ele>502.50082</ele><time>2025-12-27T22:21:03.000Z</time></trkpt>
        <trkpt lat="29.148363" lon="105.396834"><ele>504.314</ele><time>2025-12-27T22:21:21.000Z</time></trkpt>
        <trkpt lat="29.148384" lon="105.396883"><ele>505.38556</ele><time>2025-12-27T22:21:32.000Z</time></trkpt>
        <trkpt lat="29.148402" lon="105.396932"><ele>507.31494</ele><time>2025-12-27T22:21:39.000Z</time></trkpt>
        <trkpt lat="29.148419" lon="105.396984"><ele>509.2621</ele><time>2025-12-27T22:21:55.000Z</time></trkpt>
        <trkpt lat="29.148431" lon="105.39703"><ele>510.32346</ele><time>2025-12-27T22:22:04.000Z</time></trkpt>
        <trkpt lat="29.14845" lon="105.397086"><ele>511.5471</ele><time>2025-12-27T22:22:14.000Z</time></trkpt>
        <trkpt lat="29.148453" lon="105.397139"><ele>512.96625</ele><time>2025-12-27T22:22:24.000Z</time></trkpt>
        <trkpt lat="29.148474" lon="105.397193"><ele>513.7345</ele><time>2025-12-27T22:22:31.000Z</time></trkpt>
        <trkpt lat="29.148493" lon="105.397252"><ele>514.3217</ele><time>2025-12-27T22:22:37.000Z</time></trkpt>
        <trkpt lat="29.148514" lon="105.397305"><ele>515.56006</ele><time>2025-12-27T22:22:43.000Z</time></trkpt>
        <trkpt lat="29.148524" lon="105.397363"><ele>519.0341</ele><time>2025-12-27T22:22:51.000Z</time></trkpt>
        <trkpt lat="29.14854" lon="105.397415"><ele>519.3781</ele><time>2025-12-27T22:22:58.000Z</time></trkpt>
        <trkpt lat="29.148559" lon="105.397471"><ele>520.66425</ele><time>2025-12-27T22:23:05.000Z</time></trkpt>
        <trkpt lat="29.148583" lon="105.397523"><ele>521.9018</ele><time>2025-12-27T22:23:12.000Z</time></trkpt>
        <trkpt lat="29.1486" lon="105.397583"><ele>522.8555</ele><time>2025-12-27T22:23:20.000Z</time></trkpt>
        <trkpt lat="29.148624" lon="105.39763"><ele>523.12476</ele><time>2025-12-27T22:23:28.000Z</time></trkpt>
        <trkpt lat="29.148639" lon="105.397682"><ele>523.8497</ele><time>2025-12-27T22:23:36.000Z</time></trkpt>
        <trkpt lat="29.148654" lon="105.39774"><ele>523.8677</ele><time>2025-12-27T22:24:04.000Z</time></trkpt>
        <trkpt lat="29.148669" lon="105.397792"><ele>524.2532</ele><time>2025-12-27T22:25:20.000Z</time></trkpt>
        <trkpt lat="29.14869" lon="105.397843"><ele>523.02515</ele><time>2025-12-27T22:25:38.000Z</time></trkpt>
        <trkpt lat="29.148703" lon="105.397887"><ele>522.0669</ele><time>2025-12-27T22:25:43.000Z</time></trkpt>
        <trkpt lat="29.148721" lon="105.397938"><ele>521.36945</ele><time>2025-12-27T22:25:48.000Z</time></trkpt>
        <trkpt lat="29.148744" lon="105.397991"><ele>520.6336</ele><time>2025-12-27T22:25:53.000Z</time></trkpt>
        <trkpt lat="29.148769" lon="105.398035"><ele>520.2332</ele><time>2025-12-27T22:25:57.000Z</time></trkpt>
        <trkpt lat="29.148798" lon="105.398085"><ele>519.9654</ele><time>2025-12-27T22:26:02.000Z</time></trkpt>
        <trkpt lat="29.148827" lon="105.398128"><ele>519.5655</ele><time>2025-12-27T22:26:07.000Z</time></trkpt>
        <trkpt lat="29.148845" lon="105.398183"><ele>518.5668</ele><time>2025-12-27T22:26:14.000Z</time></trkpt>
        <trkpt lat="29.148869" lon="105.398228"><ele>518.045</ele><time>2025-12-27T22:26:21.000Z</time></trkpt>
        <trkpt lat="29.14889" lon="105.398284"><ele>516.9345</ele><time>2025-12-27T22:26:30.000Z</time></trkpt>
        <trkpt lat="29.148911" lon="105.398337"><ele>516.1607</ele><time>2025-12-27T22:26:38.000Z</time></trkpt>
        <trkpt lat="29.14893" lon="105.398385"><ele>515.20825</ele><time>2025-12-27T22:26:45.000Z</time></trkpt>
        <trkpt lat="29.148943" lon="105.398436"><ele>513.7726</ele><time>2025-12-27T22:26:52.000Z</time></trkpt>
        <trkpt lat="29.148959" lon="105.398485"><ele>512.6793</ele><time>2025-12-27T22:26:58.000Z</time></trkpt>
        <trkpt lat="29.148974" lon="105.398533"><ele>512.3956</ele><time>2025-12-27T22:27:03.000Z</time></trkpt>
        <trkpt lat="29.148992" lon="105.398588"><ele>511.6399</ele><time>2025-12-27T22:27:09.000Z</time></trkpt>
        <trkpt lat="29.149016" lon="105.398637"><ele>509.59677</ele><time>2025-12-27T22:27:17.000Z</time></trkpt>
        <trkpt lat="29.149005" lon="105.398686"><ele>508.2487</ele><time>2025-12-27T22:27:31.000Z</time></trkpt>
        <trkpt lat="29.148962" lon="105.398697"><ele>508.0227</ele><time>2025-12-27T22:27:36.000Z</time></trkpt>
        <trkpt lat="29.148927" lon="105.398735"><ele>507.81644</ele><time>2025-12-27T22:27:42.000Z</time></trkpt>
        <trkpt lat="29.148895" lon="105.398783"><ele>506.4129</ele><time>2025-12-27T22:27:49.000Z</time></trkpt>
        <trkpt lat="29.148887" lon="105.398838"><ele>505.8916</ele><time>2025-12-27T22:29:07.000Z</time></trkpt>
        <trkpt lat="29.148879" lon="105.39889"><ele>506.04044</ele><time>2025-12-27T22:31:19.000Z</time></trkpt>
        <trkpt lat="29.148858" lon="105.398938"><ele>506.1701</ele><time>2025-12-27T22:31:31.000Z</time></trkpt>
        <trkpt lat="29.14884" lon="105.398986"><ele>503.14044</ele><time>2025-12-27T22:31:57.000Z</time></trkpt>
        <trkpt lat="29.148822" lon="105.399036"><ele>503.0804</ele><time>2025-12-27T22:32:15.000Z</time></trkpt>
        <trkpt lat="29.148792" lon="105.399075"><ele>498.51263</ele><time>2025-12-27T22:32:34.000Z</time></trkpt>
        <trkpt lat="29.148777" lon="105.399125"><ele>497.81866</ele><time>2025-12-27T22:32:44.000Z</time></trkpt>
        <trkpt lat="29.14875" lon="105.399172"><ele>497.30676</ele><time>2025-12-27T22:32:52.000Z</time></trkpt>
        <trkpt lat="29.148721" lon="105.399215"><ele>496.24533</ele><time>2025-12-27T22:32:59.000Z</time></trkpt>
        <trkpt lat="29.148685" lon="105.399255"><ele>492.3168</ele><time>2025-12-27T22:33:17.000Z</time></trkpt>
        <trkpt lat="29.148636" lon="105.399272"><ele>486.64548</ele><time>2025-12-27T22:33:48.000Z</time></trkpt>
        <trkpt lat="29.148594" lon="105.399294"><ele>484.741</ele><time>2025-12-27T22:34:03.000Z</time></trkpt>
        <trkpt lat="29.148636" lon="105.399325"><ele>485.08032</ele><time>2025-12-27T22:35:13.000Z</time></trkpt>
        <trkpt lat="29.148622" lon="105.399372"><ele>489.60568</ele><time>2025-12-27T22:35:21.000Z</time></trkpt>
        <trkpt lat="29.148606" lon="105.399435"><ele>486.86014</ele><time>2025-12-27T22:35:33.000Z</time></trkpt>
        <trkpt lat="29.148619" lon="105.399482"><ele>486.05737</ele><time>2025-12-27T22:35:41.000Z</time></trkpt>
        <trkpt lat="29.148627" lon="105.399538"><ele>485.6793</ele><time>2025-12-27T22:36:13.000Z</time></trkpt>
        <trkpt lat="29.148641" lon="105.399587"><ele>487.63834</ele><time>2025-12-27T22:37:14.000Z</time></trkpt>
        <trkpt lat="29.148606" lon="105.399626"><ele>482.8535</ele><time>2025-12-27T22:38:14.000Z</time></trkpt>
        <trkpt lat="29.148625" lon="105.399673"><ele>482.96048</ele><time>2025-12-27T22:38:51.000Z</time></trkpt>
        <trkpt lat="29.148621" lon="105.399725"><ele>482.642</ele><time>2025-12-27T22:40:12.000Z</time></trkpt>
        <trkpt lat="29.148613" lon="105.399779"><ele>483.65912</ele><time>2025-12-27T22:40:38.000Z</time></trkpt>
        <trkpt lat="29.148619" lon="105.399831"><ele>481.71652</ele><time>2025-12-27T22:41:00.000Z</time></trkpt>
        <trkpt lat="29.148594" lon="105.399786"><ele>477.8002</ele><time>2025-12-27T22:42:13.000Z</time></trkpt>
        <trkpt lat="29.148578" lon="105.39974"><ele>478.4575</ele><time>2025-12-27T22:42:30.000Z</time></trkpt>
        <trkpt lat="29.148568" lon="105.399679"><ele>480.54343</ele><time>2025-12-27T22:42:50.000Z</time></trkpt>
        <trkpt lat="29.148542" lon="105.399636"><ele>478.33893</ele><time>2025-12-27T22:43:13.000Z</time></trkpt>
        <trkpt lat="29.148494" lon="105.399636"><ele>476.70087</ele><time>2025-12-27T22:43:57.000Z</time></trkpt>
        <trkpt lat="29.148447" lon="105.399655"><ele>472.23828</ele><time>2025-12-27T22:45:14.000Z</time></trkpt>
        <trkpt lat="29.148403" lon="105.399669"><ele>469.31564</ele><time>2025-12-27T22:46:02.000Z</time></trkpt>
        <trkpt lat="29.148361" lon="105.39965"><ele>468.11166</ele><time>2025-12-27T22:46:29.000Z</time></trkpt>
        <trkpt lat="29.148331" lon="105.399693"><ele>463.71136</ele><time>2025-12-27T22:47:04.000Z</time></trkpt>
        <trkpt lat="29.148303" lon="105.399736"><ele>462.8309</ele><time>2025-12-27T22:48:07.000Z</time></trkpt>
        <trkpt lat="29.148276" lon="105.399769"><ele>462.3068</ele><time>2025-12-27T22:48:15.000Z</time></trkpt>
        <trkpt lat="29.148253" lon="105.399823"><ele>459.7409</ele><time>2025-12-27T22:49:46.000Z</time></trkpt>
        <trkpt lat="29.148252" lon="105.399874"><ele>458.11603</ele><time>2025-12-27T22:50:32.000Z</time></trkpt>
        <trkpt lat="29.148254" lon="105.399927"><ele>457.32922</ele><time>2025-12-27T22:50:44.000Z</time></trkpt>
        <trkpt lat="29.148266" lon="105.399984"><ele>456.55402</ele><time>2025-12-27T22:50:58.000Z</time></trkpt>
        <trkpt lat="29.148289" lon="105.400029"><ele>455.68063</ele><time>2025-12-27T22:51:24.000Z</time></trkpt>
        <trkpt lat="29.148301" lon="105.400088"><ele>454.76135</ele><time>2025-12-27T22:51:44.000Z</time></trkpt>
        <trkpt lat="29.148274" lon="105.400136"><ele>452.92807</ele><time>2025-12-27T22:52:01.000Z</time></trkpt>
        <trkpt lat="29.148291" lon="105.400187"><ele>450.75958</ele><time>2025-12-27T22:52:26.000Z</time></trkpt>
        <trkpt lat="29.148311" lon="105.400234"><ele>452.01843</ele><time>2025-12-27T22:52:37.000Z</time></trkpt>
        <trkpt lat="29.148347" lon="105.400273"><ele>451.51218</ele><time>2025-12-27T22:53:03.000Z</time></trkpt>
        <trkpt lat="29.148385" lon="105.400297"><ele>452.20306</ele><time>2025-12-27T22:53:14.000Z</time></trkpt>
        <trkpt lat="29.148418" lon="105.400337"><ele>451.2909</ele><time>2025-12-27T22:53:21.000Z</time></trkpt>
        <trkpt lat="29.148465" lon="105.400357"><ele>450.24796</ele><time>2025-12-27T22:53:43.000Z</time></trkpt>
        <trkpt lat="29.148502" lon="105.400387"><ele>451.37836</ele><time>2025-12-27T22:55:05.000Z</time></trkpt>
        <trkpt lat="29.148509" lon="105.400438"><ele>449.1876</ele><time>2025-12-27T22:55:31.000Z</time></trkpt>
        <trkpt lat="29.148512" lon="105.400489"><ele>451.20154</ele><time>2025-12-27T22:55:51.000Z</time></trkpt>
        <trkpt lat="29.148514" lon="105.400542"><ele>450.48596</ele><time>2025-12-27T22:56:12.000Z</time></trkpt>
        <trkpt lat="29.148478" lon="105.400582"><ele>448.26166</ele><time>2025-12-27T22:57:27.000Z</time></trkpt>
        <trkpt lat="29.148426" lon="105.4006"><ele>446.98254</ele><time>2025-12-27T22:57:51.000Z</time></trkpt>
        <trkpt lat="29.148384" lon="105.400579"><ele>443.8132</ele><time>2025-12-27T22:58:24.000Z</time></trkpt>
        <trkpt lat="29.14834" lon="105.400564"><ele>442.06122</ele><time>2025-12-27T22:59:31.000Z</time></trkpt>
        <trkpt lat="29.148311" lon="105.400604"><ele>442.99057</ele><time>2025-12-27T22:59:50.000Z</time></trkpt>
        <trkpt lat="29.148311" lon="105.400659"><ele>439.9667</ele><time>2025-12-27T23:00:46.000Z</time></trkpt>
        <trkpt lat="29.148263" lon="105.400668"><ele>436.83173</ele><time>2025-12-27T23:01:41.000Z</time></trkpt>
        <trkpt lat="29.14821" lon="105.400651"><ele>433.94632</ele><time>2025-12-27T23:02:19.000Z</time></trkpt>
        <trkpt lat="29.148225" lon="105.400706"><ele>434.37558</ele><time>2025-12-27T23:02:41.000Z</time></trkpt>
        <trkpt lat="29.148256" lon="105.400749"><ele>433.4649</ele><time>2025-12-27T23:02:51.000Z</time></trkpt>
        <trkpt lat="29.148281" lon="105.400792"><ele>432.31982</ele><time>2025-12-27T23:02:59.000Z</time></trkpt>
        <trkpt lat="29.148314" lon="105.400831"><ele>432.02234</ele><time>2025-12-27T23:03:05.000Z</time></trkpt>
        <trkpt lat="29.14835" lon="105.400868"><ele>432.92508</ele><time>2025-12-27T23:03:11.000Z</time></trkpt>
        <trkpt lat="29.148395" lon="105.400912"><ele>433.69302</ele><time>2025-12-27T23:03:28.000Z</time></trkpt>
        <trkpt lat="29.148415" lon="105.400949"><ele>433.65637</ele><time>2025-12-27T23:03:33.000Z</time></trkpt>
        <trkpt lat="29.148456" lon="105.400984"><ele>434.33167</ele><time>2025-12-27T23:03:38.000Z</time></trkpt>
        <trkpt lat="29.148495" lon="105.401029"><ele>434.3972</ele><time>2025-12-27T23:04:02.000Z</time></trkpt>
        <trkpt lat="29.148511" lon="105.40107"><ele>434.20444</ele><time>2025-12-27T23:04:08.000Z</time></trkpt>
        <trkpt lat="29.148534" lon="105.401135"><ele>432.7601</ele><time>2025-12-27T23:04:15.000Z</time></trkpt>
        <trkpt lat="29.148546" lon="105.401196"><ele>432.56174</ele><time>2025-12-27T23:04:25.000Z</time></trkpt>
        <trkpt lat="29.148545" lon="105.401241"><ele>432.52847</ele><time>2025-12-27T23:04:30.000Z</time></trkpt>
        <trkpt lat="29.148543" lon="105.401301"><ele>432.04413</ele><time>2025-12-27T23:04:35.000Z</time></trkpt>
        <trkpt lat="29.148537" lon="105.401359"><ele>431.49384</ele><time>2025-12-27T23:04:39.000Z</time></trkpt>
        <trkpt lat="29.148533" lon="105.401415"><ele>430.72375</ele><time>2025-12-27T23:04:43.000Z</time></trkpt>
        <trkpt lat="29.148521" lon="105.401472"><ele>429.7973</ele><time>2025-12-27T23:04:47.000Z</time></trkpt>
        <trkpt lat="29.14851" lon="105.401536"><ele>428.35303</ele><time>2025-12-27T23:04:53.000Z</time></trkpt>
        <trkpt lat="29.148507" lon="105.40159"><ele>427.3799</ele><time>2025-12-27T23:04:59.000Z</time></trkpt>
        <trkpt lat="29.148506" lon="105.401644"><ele>426.36926</ele><time>2025-12-27T23:05:05.000Z</time></trkpt>
        <trkpt lat="29.148506" lon="105.4017"><ele>423.9009</ele><time>2025-12-27T23:05:12.000Z</time></trkpt>
        <trkpt lat="29.148501" lon="105.40175"><ele>422.08972</ele><time>2025-12-27T23:05:17.000Z</time></trkpt>
        <trkpt lat="29.148499" lon="105.401809"><ele>420.15854</ele><time>2025-12-27T23:05:24.000Z</time></trkpt>
        <trkpt lat="29.148499" lon="105.401865"><ele>418.7876</ele><time>2025-12-27T23:05:36.000Z</time></trkpt>
        <trkpt lat="29.148462" lon="105.401887"><ele>417.66672</ele><time>2025-12-27T23:05:44.000Z</time></trkpt>
        <trkpt lat="29.14843" lon="105.401922"><ele>416.24503</ele><time>2025-12-27T23:05:50.000Z</time></trkpt>
        <trkpt lat="29.148383" lon="105.401916"><ele>413.68704</ele><time>2025-12-27T23:13:43.000Z</time></trkpt>
        <trkpt lat="29.14838" lon="105.401969"><ele>413.70032</ele><time>2025-12-27T23:19:04.000Z</time></trkpt>
        <trkpt lat="29.148373" lon="105.402024"><ele>413.18237</ele><time>2025-12-27T23:19:18.000Z</time></trkpt>
        <trkpt lat="29.148427" lon="105.402016"><ele>410.15396</ele><time>2025-12-27T23:19:42.000Z</time></trkpt>
        <trkpt lat="29.148469" lon="105.401995"><ele>411.186</ele><time>2025-12-27T23:19:48.000Z</time></trkpt>
        <trkpt lat="29.148428" lon="105.402004"><ele>413.69223</ele><time>2025-12-27T23:20:22.000Z</time></trkpt>
        <trkpt lat="29.148381" lon="105.402018"><ele>412.6939</ele><time>2025-12-27T23:20:29.000Z</time></trkpt>
        <trkpt lat="29.148341" lon="105.401973"><ele>409.88574</ele><time>2025-12-27T23:20:44.000Z</time></trkpt>
        <trkpt lat="29.148359" lon="105.402028"><ele>411.0648</ele><time>2025-12-27T23:21:30.000Z</time></trkpt>
        <trkpt lat="29.148338" lon="105.401981"><ele>409.8452</ele><time>2025-12-27T23:24:06.000Z</time></trkpt>
        <trkpt lat="29.148364" lon="105.401934"><ele>412.67242</ele><time>2025-12-27T23:26:02.000Z</time></trkpt>
        <trkpt lat="29.148406" lon="105.401916"><ele>414.35626</ele><time>2025-12-27T23:31:02.000Z</time></trkpt>
        <trkpt lat="29.148377" lon="105.401971"><ele>413.32883</ele><time>2025-12-27T23:43:32.000Z</time></trkpt>
        <trkpt lat="29.148355" lon="105.402012"><ele>412.16122</ele><time>2025-12-27T23:43:40.000Z</time></trkpt>
        <trkpt lat="29.148315" lon="105.402063"><ele>408.8781</ele><time>2025-12-27T23:43:54.000Z</time></trkpt>
        <trkpt lat="29.148291" lon="105.402108"><ele>408.25275</ele><time>2025-12-27T23:45:19.000Z</time></trkpt>
        <trkpt lat="29.148266" lon="105.402148"><ele>406.1806</ele><time>2025-12-27T23:45:33.000Z</time></trkpt>
        <trkpt lat="29.148229" lon="105.402196"><ele>404.60303</ele><time>2025-12-27T23:45:44.000Z</time></trkpt>
        <trkpt lat="29.148199" lon="105.402241"><ele>403.2749</ele><time>2025-12-27T23:45:55.000Z</time></trkpt>
        <trkpt lat="29.148164" lon="105.402282"><ele>401.86264</ele><time>2025-12-27T23:46:04.000Z</time></trkpt>
        <trkpt lat="29.148128" lon="105.402319"><ele>400.12897</ele><time>2025-12-27T23:46:12.000Z</time></trkpt>
        <trkpt lat="29.148095" lon="105.40236"><ele>399.25754</ele><time>2025-12-27T23:46:26.000Z</time></trkpt>
        <trkpt lat="29.148066" lon="105.402397"><ele>398.43353</ele><time>2025-12-27T23:46:33.000Z</time></trkpt>
        <trkpt lat="29.148027" lon="105.402431"><ele>397.36414</ele><time>2025-12-27T23:46:39.000Z</time></trkpt>
        <trkpt lat="29.147988" lon="105.402459"><ele>396.77948</ele><time>2025-12-27T23:46:44.000Z</time></trkpt>
        <trkpt lat="29.14794" lon="105.402473"><ele>394.96597</ele><time>2025-12-27T23:46:49.000Z</time></trkpt>
        <trkpt lat="29.147887" lon="105.402494"><ele>394.0253</ele><time>2025-12-27T23:46:59.000Z</time></trkpt>
        <trkpt lat="29.147846" lon="105.402517"><ele>393.1748</ele><time>2025-12-27T23:47:07.000Z</time></trkpt>
        <trkpt lat="29.1478" lon="105.402518"><ele>391.43936</ele><time>2025-12-27T23:47:15.000Z</time></trkpt>
        <trkpt lat="29.147751" lon="105.402502"><ele>390.2517</ele><time>2025-12-27T23:47:24.000Z</time></trkpt>
        <trkpt lat="29.147711" lon="105.402489"><ele>389.71402</ele><time>2025-12-27T23:47:29.000Z</time></trkpt>
        <trkpt lat="29.147665" lon="105.402472"><ele>388.6178</ele><time>2025-12-27T23:47:34.000Z</time></trkpt>
        <trkpt lat="29.147615" lon="105.402449"><ele>386.5754</ele><time>2025-12-27T23:47:41.000Z</time></trkpt>
        <trkpt lat="29.147568" lon="105.402439"><ele>385.20413</ele><time>2025-12-27T23:47:50.000Z</time></trkpt>
        <trkpt lat="29.147523" lon="105.402431"><ele>384.6056</ele><time>2025-12-27T23:47:56.000Z</time></trkpt>
        <trkpt lat="29.147471" lon="105.402424"><ele>383.39566</ele><time>2025-12-27T23:48:02.000Z</time></trkpt>
        <trkpt lat="29.14742" lon="105.402431"><ele>381.27588</ele><time>2025-12-27T23:48:10.000Z</time></trkpt>
        <trkpt lat="29.147411" lon="105.402479"><ele>380.8027</ele><time>2025-12-27T23:48:16.000Z</time></trkpt>
        <trkpt lat="29.147451" lon="105.402531"><ele>381.2659</ele><time>2025-12-27T23:48:30.000Z</time></trkpt>
        <trkpt lat="29.147482" lon="105.402564"><ele>381.42404</ele><time>2025-12-27T23:48:36.000Z</time></trkpt>
        <trkpt lat="29.147513" lon="105.402611"><ele>381.71088</ele><time>2025-12-27T23:48:42.000Z</time></trkpt>
        <trkpt lat="29.147529" lon="105.402669"><ele>382.42966</ele><time>2025-12-27T23:48:50.000Z</time></trkpt>
        <trkpt lat="29.147552" lon="105.402708"><ele>382.40646</ele><time>2025-12-27T23:48:55.000Z</time></trkpt>
        <trkpt lat="29.147574" lon="105.402753"><ele>381.95013</ele><time>2025-12-27T23:49:00.000Z</time></trkpt>
        <trkpt lat="29.147599" lon="105.402813"><ele>382.0546</ele><time>2025-12-27T23:49:09.000Z</time></trkpt>
        <trkpt lat="29.147628" lon="105.402854"><ele>381.85098</ele><time>2025-12-27T23:49:15.000Z</time></trkpt>
        <trkpt lat="29.147668" lon="105.402886"><ele>382.00525</ele><time>2025-12-27T23:49:20.000Z</time></trkpt>
        <trkpt lat="29.147717" lon="105.40292"><ele>382.38223</ele><time>2025-12-27T23:49:26.000Z</time></trkpt>
        <trkpt lat="29.14777" lon="105.402939"><ele>383.18845</ele><time>2025-12-27T23:49:33.000Z</time></trkpt>
        <trkpt lat="29.147813" lon="105.40292"><ele>383.0919</ele><time>2025-12-27T23:49:38.000Z</time></trkpt>
        <trkpt lat="29.147861" lon="105.402904"><ele>382.9826</ele><time>2025-12-27T23:49:43.000Z</time></trkpt>
        <trkpt lat="29.147918" lon="105.402892"><ele>382.66312</ele><time>2025-12-27T23:49:53.000Z</time></trkpt>
        <trkpt lat="29.147962" lon="105.402876"><ele>382.25687</ele><time>2025-12-27T23:50:00.000Z</time></trkpt>
        <trkpt lat="29.148015" lon="105.402859"><ele>382.74692</ele><time>2025-12-27T23:50:07.000Z</time></trkpt>
        <trkpt lat="29.148059" lon="105.402849"><ele>382.89722</ele><time>2025-12-27T23:50:11.000Z</time></trkpt>
        <trkpt lat="29.148112" lon="105.402836"><ele>382.74338</ele><time>2025-12-27T23:50:16.000Z</time></trkpt>
        <trkpt lat="29.148158" lon="105.402815"><ele>383.10046</ele><time>2025-12-27T23:50:21.000Z</time></trkpt>
        <trkpt lat="29.148192" lon="105.402779"><ele>382.9032</ele><time>2025-12-27T23:50:26.000Z</time></trkpt>
        <trkpt lat="29.148225" lon="105.402747"><ele>383.37286</ele><time>2025-12-27T23:50:30.000Z</time></trkpt>
        <trkpt lat="29.148275" lon="105.402725"><ele>383.98578</ele><time>2025-12-27T23:50:44.000Z</time></trkpt>
        <trkpt lat="29.14831" lon="105.402712"><ele>383.57697</ele><time>2025-12-27T23:50:50.000Z</time></trkpt>
        <trkpt lat="29.14835" lon="105.402688"><ele>383.6828</ele><time>2025-12-27T23:50:55.000Z</time></trkpt>
        <trkpt lat="29.148399" lon="105.402685"><ele>382.9244</ele><time>2025-12-27T23:51:00.000Z</time></trkpt>
        <trkpt lat="29.148447" lon="105.402701"><ele>382.46405</ele><time>2025-12-27T23:51:05.000Z</time></trkpt>
        <trkpt lat="29.148502" lon="105.402719"><ele>380.93552</ele><time>2025-12-27T23:51:17.000Z</time></trkpt>
        <trkpt lat="29.148534" lon="105.402761"><ele>380.66415</ele><time>2025-12-27T23:51:25.000Z</time></trkpt>
        <trkpt lat="29.14856" lon="105.402817"><ele>379.60834</ele><time>2025-12-27T23:51:31.000Z</time></trkpt>
        <trkpt lat="29.148577" lon="105.402871"><ele>378.41916</ele><time>2025-12-27T23:51:36.000Z</time></trkpt>
        <trkpt lat="29.148591" lon="105.402934"><ele>378.2541</ele><time>2025-12-27T23:51:42.000Z</time></trkpt>
        <trkpt lat="29.148585" lon="105.402992"><ele>379.4742</ele><time>2025-12-27T23:51:47.000Z</time></trkpt>
        <trkpt lat="29.148582" lon="105.403051"><ele>378.45584</ele><time>2025-12-27T23:51:53.000Z</time></trkpt>
        <trkpt lat="29.14856" lon="105.403108"><ele>380.81525</ele><time>2025-12-27T23:51:59.000Z</time></trkpt>
        <trkpt lat="29.148541" lon="105.403165"><ele>381.51117</ele><time>2025-12-27T23:52:07.000Z</time></trkpt>
        <trkpt lat="29.148521" lon="105.403217"><ele>381.32947</ele><time>2025-12-27T23:52:15.000Z</time></trkpt>
        <trkpt lat="29.148493" lon="105.403261"><ele>380.84152</ele><time>2025-12-27T23:52:21.000Z</time></trkpt>
        <trkpt lat="29.148469" lon="105.403307"><ele>380.75238</ele><time>2025-12-27T23:52:26.000Z</time></trkpt>
        <trkpt lat="29.148451" lon="105.403357"><ele>380.5967</ele><time>2025-12-27T23:52:31.000Z</time></trkpt>
        <trkpt lat="29.148434" lon="105.40341"><ele>380.3995</ele><time>2025-12-27T23:52:36.000Z</time></trkpt>
        <trkpt lat="29.148412" lon="105.403467"><ele>380.49982</ele><time>2025-12-27T23:52:42.000Z</time></trkpt>
        <trkpt lat="29.148391" lon="105.403519"><ele>380.1254</ele><time>2025-12-27T23:52:47.000Z</time></trkpt>
        <trkpt lat="29.14837" lon="105.403564"><ele>379.97104</ele><time>2025-12-27T23:52:51.000Z</time></trkpt>
        <trkpt lat="29.148346" lon="105.403618"><ele>379.43878</ele><time>2025-12-27T23:52:57.000Z</time></trkpt>
        <trkpt lat="29.148297" lon="105.403662"><ele>378.67404</ele><time>2025-12-27T23:53:15.000Z</time></trkpt>
        <trkpt lat="29.148267" lon="105.403689"><ele>378.14087</ele><time>2025-12-27T23:53:21.000Z</time></trkpt>
        <trkpt lat="29.148234" lon="105.403729"><ele>376.67102</ele><time>2025-12-27T23:53:27.000Z</time></trkpt>
        <trkpt lat="29.14827" lon="105.403721"><ele>378.30032</ele><time>2025-12-27T23:53:35.000Z</time></trkpt>
        <trkpt lat="29.148312" lon="105.403702"><ele>379.0557</ele><time>2025-12-27T23:53:39.000Z</time></trkpt>
        <trkpt lat="29.148367" lon="105.403669"><ele>379.7832</ele><time>2025-12-27T23:53:45.000Z</time></trkpt>
        <trkpt lat="29.148404" lon="105.403625"><ele>380.85422</ele><time>2025-12-27T23:53:50.000Z</time></trkpt>
        <trkpt lat="29.148443" lon="105.403594"><ele>381.92743</ele><time>2025-12-27T23:53:55.000Z</time></trkpt>
        <trkpt lat="29.148489" lon="105.403619"><ele>383.92792</ele><time>2025-12-27T23:54:15.000Z</time></trkpt>
        <trkpt lat="29.148528" lon="105.403648"><ele>384.60703</ele><time>2025-12-27T23:54:25.000Z</time></trkpt>
        <trkpt lat="29.148566" lon="105.403689"><ele>386.2413</ele><time>2025-12-27T23:54:33.000Z</time></trkpt>
        <trkpt lat="29.14861" lon="105.403687"><ele>388.60513</ele><time>2025-12-27T23:54:43.000Z</time></trkpt>
        <trkpt lat="29.148647" lon="105.403652"><ele>389.51804</ele><time>2025-12-27T23:54:53.000Z</time></trkpt>
        <trkpt lat="29.148691" lon="105.403628"><ele>391.15228</ele><time>2025-12-27T23:55:36.000Z</time></trkpt>
        <trkpt lat="29.148715" lon="105.403585"><ele>391.19904</ele><time>2025-12-27T23:55:44.000Z</time></trkpt>
        <trkpt lat="29.14876" lon="105.403543"><ele>391.6991</ele><time>2025-12-27T23:56:16.000Z</time></trkpt>
        <trkpt lat="29.148789" lon="105.403514"><ele>392.0443</ele><time>2025-12-27T23:56:25.000Z</time></trkpt>
        <trkpt lat="29.148823" lon="105.403467"><ele>392.47766</ele><time>2025-12-27T23:56:32.000Z</time></trkpt>
        <trkpt lat="29.148847" lon="105.403418"><ele>392.61472</ele><time>2025-12-27T23:56:37.000Z</time></trkpt>
        <trkpt lat="29.148872" lon="105.403369"><ele>393.11133</ele><time>2025-12-27T23:56:42.000Z</time></trkpt>
        <trkpt lat="29.148899" lon="105.403315"><ele>393.3753</ele><time>2025-12-27T23:56:47.000Z</time></trkpt>
        <trkpt lat="29.148926" lon="105.403263"><ele>393.13425</ele><time>2025-12-27T23:56:52.000Z</time></trkpt>
        <trkpt lat="29.148957" lon="105.403217"><ele>392.8373</ele><time>2025-12-27T23:56:57.000Z</time></trkpt>
        <trkpt lat="29.148998" lon="105.403177"><ele>392.20908</ele><time>2025-12-27T23:57:02.000Z</time></trkpt>
        <trkpt lat="29.149053" lon="105.403164"><ele>391.3342</ele><time>2025-12-27T23:57:10.000Z</time></trkpt>
        <trkpt lat="29.149092" lon="105.40314"><ele>392.08386</ele><time>2025-12-27T23:57:18.000Z</time></trkpt>
        <trkpt lat="29.149122" lon="105.403105"><ele>393.3527</ele><time>2025-12-27T23:57:24.000Z</time></trkpt>
        <trkpt lat="29.14917" lon="105.403102"><ele>395.6217</ele><time>2025-12-27T23:57:34.000Z</time></trkpt>
        <trkpt lat="29.149211" lon="105.403132"><ele>396.75772</ele><time>2025-12-27T23:57:40.000Z</time></trkpt>
        <trkpt lat="29.149255" lon="105.403165"><ele>399.1144</ele><time>2025-12-27T23:57:56.000Z</time></trkpt>
        <trkpt lat="29.1493" lon="105.403171"><ele>400.36472</ele><time>2025-12-27T23:59:27.000Z</time></trkpt>
        <trkpt lat="29.149321" lon="105.403214"><ele>399.5961</ele><time>2025-12-27T23:59:34.000Z</time></trkpt>
        <trkpt lat="29.149359" lon="105.403249"><ele>397.75708</ele><time>2025-12-27T23:59:50.000Z</time></trkpt>
        <trkpt lat="29.149387" lon="105.403292"><ele>396.659</ele><time>2025-12-28T00:00:06.000Z</time></trkpt>
        <trkpt lat="29.149418" lon="105.403333"><ele>398.5785</ele><time>2025-12-28T00:00:13.000Z</time></trkpt>
        <trkpt lat="29.149468" lon="105.403335"><ele>398.9302</ele><time>2025-12-28T00:00:34.000Z</time></trkpt>
        <trkpt lat="29.149509" lon="105.403312"><ele>403.5574</ele><time>2025-12-28T00:00:44.000Z</time></trkpt>
        <trkpt lat="29.149549" lon="105.403281"><ele>401.67145</ele><time>2025-12-28T00:00:54.000Z</time></trkpt>
        <trkpt lat="29.149576" lon="105.403299"><ele>401.0622</ele><time>2025-12-28T00:00:57.000Z</time></trkpt>
        <trkpt lat="29.149613" lon="105.403334"><ele>401.47412</ele><time>2025-12-28T00:01:01.000Z</time></trkpt>
        <trkpt lat="29.149632" lon="105.403395"><ele>401.59143</ele><time>2025-12-28T00:01:08.000Z</time></trkpt>
        <trkpt lat="29.149661" lon="105.403445"><ele>402.77213</ele><time>2025-12-28T00:01:18.000Z</time></trkpt>
        <trkpt lat="29.149722" lon="105.403445"><ele>401.35327</ele><time>2025-12-28T00:01:40.000Z</time></trkpt>
        <trkpt lat="29.149721" lon="105.403504"><ele>401.5732</ele><time>2025-12-28T00:02:18.000Z</time></trkpt>
        <trkpt lat="29.149767" lon="105.4035"><ele>400.42874</ele><time>2025-12-28T00:02:32.000Z</time></trkpt>
        <trkpt lat="29.149785" lon="105.403491"><ele>406.04434</ele><time>2025-12-28T00:02:54.000Z</time></trkpt>
        <trkpt lat="29.149827" lon="105.403512"><ele>403.10153</ele><time>2025-12-28T00:03:11.000Z</time></trkpt>
        <trkpt lat="29.149878" lon="105.40353"><ele>400.90918</ele><time>2025-12-28T00:03:22.000Z</time></trkpt>
        <trkpt lat="29.149902" lon="105.403577"><ele>403.0189</ele><time>2025-12-28T00:03:28.000Z</time></trkpt>
        <trkpt lat="29.149894" lon="105.403637"><ele>400.80643</ele><time>2025-12-28T00:06:01.000Z</time></trkpt>
        <trkpt lat="29.149934" lon="105.403661"><ele>401.18164</ele><time>2025-12-28T00:06:47.000Z</time></trkpt>
        <trkpt lat="29.149918" lon="105.403714"><ele>403.28928</ele><time>2025-12-28T00:08:32.000Z</time></trkpt>
        <trkpt lat="29.149898" lon="105.403747"><ele>402.96844</ele><time>2025-12-28T00:08:39.000Z</time></trkpt>
        <trkpt lat="29.149902" lon="105.403826"><ele>398.14813</ele><time>2025-12-28T00:08:52.000Z</time></trkpt>
        <trkpt lat="29.149883" lon="105.403876"><ele>397.36722</ele><time>2025-12-28T00:09:00.000Z</time></trkpt>
        <trkpt lat="29.14989" lon="105.403927"><ele>397.21338</ele><time>2025-12-28T00:09:10.000Z</time></trkpt>
        <trkpt lat="29.149877" lon="105.403978"><ele>394.87094</ele><time>2025-12-28T00:09:18.000Z</time></trkpt>
        <trkpt lat="29.149862" lon="105.404031"><ele>392.1653</ele><time>2025-12-28T00:09:44.000Z</time></trkpt>
        <trkpt lat="29.149853" lon="105.404075"><ele>390.38608</ele><time>2025-12-28T00:09:53.000Z</time></trkpt>
        <trkpt lat="29.149859" lon="105.404135"><ele>390.4651</ele><time>2025-12-28T00:10:37.000Z</time></trkpt>
        <trkpt lat="29.149885" lon="105.404177"><ele>390.49667</ele><time>2025-12-28T00:11:13.000Z</time></trkpt>
        <trkpt lat="29.149936" lon="105.404173"><ele>390.78033</ele><time>2025-12-28T00:11:27.000Z</time></trkpt>
        <trkpt lat="29.149982" lon="105.404169"><ele>392.2563</ele><time>2025-12-28T00:11:36.000Z</time></trkpt>
        <trkpt lat="29.150029" lon="105.404163"><ele>392.30692</ele><time>2025-12-28T00:11:44.000Z</time></trkpt>
        <trkpt lat="29.150076" lon="105.404163"><ele>392.62262</ele><time>2025-12-28T00:11:51.000Z</time></trkpt>
        <trkpt lat="29.150117" lon="105.404183"><ele>393.10242</ele><time>2025-12-28T00:11:57.000Z</time></trkpt>
        <trkpt lat="29.15008" lon="105.404163"><ele>392.4242</ele><time>2025-12-28T00:12:50.000Z</time></trkpt>
        <trkpt lat="29.150026" lon="105.404146"><ele>393.6948</ele><time>2025-12-28T00:12:58.000Z</time></trkpt>
        <trkpt lat="29.149981" lon="105.404158"><ele>392.5871</ele><time>2025-12-28T00:13:05.000Z</time></trkpt>
        <trkpt lat="29.149929" lon="105.404174"><ele>391.00766</ele><time>2025-12-28T00:13:17.000Z</time></trkpt>
        <trkpt lat="29.14988" lon="105.404186"><ele>390.3549</ele><time>2025-12-28T00:13:24.000Z</time></trkpt>
        <trkpt lat="29.149826" lon="105.404194"><ele>388.76828</ele><time>2025-12-28T00:13:34.000Z</time></trkpt>
        <trkpt lat="29.149804" lon="105.404228"><ele>387.74564</ele><time>2025-12-28T00:13:39.000Z</time></trkpt>
        <trkpt lat="29.149842" lon="105.40425"><ele>385.89502</ele><time>2025-12-28T00:13:52.000Z</time></trkpt>
        <trkpt lat="29.149897" lon="105.404244"><ele>386.29517</ele><time>2025-12-28T00:14:02.000Z</time></trkpt>
        <trkpt lat="29.149944" lon="105.404248"><ele>387.60022</ele><time>2025-12-28T00:14:08.000Z</time></trkpt>
        <trkpt lat="29.150004" lon="105.404248"><ele>389.25284</ele><time>2025-12-28T00:14:18.000Z</time></trkpt>
        <trkpt lat="29.15005" lon="105.404246"><ele>389.21826</ele><time>2025-12-28T00:14:25.000Z</time></trkpt>
        <trkpt lat="29.150098" lon="105.404241"><ele>389.29214</ele><time>2025-12-28T00:14:34.000Z</time></trkpt>
        <trkpt lat="29.150145" lon="105.404246"><ele>390.8086</ele><time>2025-12-28T00:14:40.000Z</time></trkpt>
        <trkpt lat="29.150202" lon="105.404252"><ele>396.54132</ele><time>2025-12-28T00:15:10.000Z</time></trkpt>
        <trkpt lat="29.150226" lon="105.404219"><ele>393.4</ele><time>2025-12-28T00:15:18.000Z</time></trkpt>
        <trkpt lat="29.150273" lon="105.404194"><ele>392.8467</ele><time>2025-12-28T00:15:30.000Z</time></trkpt>
        <trkpt lat="29.150308" lon="105.404229"><ele>394.03378</ele><time>2025-12-28T00:16:33.000Z</time></trkpt>
        <trkpt lat="29.15034" lon="105.404266"><ele>394.55386</ele><time>2025-12-28T00:17:02.000Z</time></trkpt>
        <trkpt lat="29.150337" lon="105.404317"><ele>393.75372</ele><time>2025-12-28T00:17:20.000Z</time></trkpt>
        <trkpt lat="29.150336" lon="105.404374"><ele>392.36298</ele><time>2025-12-28T00:17:31.000Z</time></trkpt>
        <trkpt lat="29.150328" lon="105.404419"><ele>391.31018</ele><time>2025-12-28T00:17:36.000Z</time></trkpt>
        <trkpt lat="29.150327" lon="105.404478"><ele>388.89127</ele><time>2025-12-28T00:17:46.000Z</time></trkpt>
        <trkpt lat="29.150361" lon="105.40451"><ele>388.31903</ele><time>2025-12-28T00:17:56.000Z</time></trkpt>
        <trkpt lat="29.15038" lon="105.404558"><ele>389.67352</ele><time>2025-12-28T00:18:10.000Z</time></trkpt>
        <trkpt lat="29.150388" lon="105.40461"><ele>388.80368</ele><time>2025-12-28T00:18:27.000Z</time></trkpt>
        <trkpt lat="29.150408" lon="105.404657"><ele>389.84177</ele><time>2025-12-28T00:18:54.000Z</time></trkpt>
        <trkpt lat="29.150415" lon="105.40471"><ele>390.42496</ele><time>2025-12-28T00:19:24.000Z</time></trkpt>
        <trkpt lat="29.150444" lon="105.404753"><ele>391.31488</ele><time>2025-12-28T00:19:37.000Z</time></trkpt>
        <trkpt lat="29.150501" lon="105.404764"><ele>392.77353</ele><time>2025-12-28T00:19:58.000Z</time></trkpt>
        <trkpt lat="29.150536" lon="105.404798"><ele>393.1526</ele><time>2025-12-28T00:20:16.000Z</time></trkpt>
        <trkpt lat="29.150576" lon="105.404785"><ele>394.96295</ele><time>2025-12-28T00:20:25.000Z</time></trkpt>
        <trkpt lat="29.150614" lon="105.404803"><ele>394.25748</ele><time>2025-12-28T00:20:31.000Z</time></trkpt>
        <trkpt lat="29.150659" lon="105.404792"><ele>393.30606</ele><time>2025-12-28T00:20:40.000Z</time></trkpt>
        <trkpt lat="29.150699" lon="105.404759"><ele>393.74643</ele><time>2025-12-28T00:21:07.000Z</time></trkpt>
        <trkpt lat="29.150711" lon="105.404716"><ele>394.44693</ele><time>2025-12-28T00:21:13.000Z</time></trkpt>
        <trkpt lat="29.150762" lon="105.404696"><ele>394.7674</ele><time>2025-12-28T00:21:21.000Z</time></trkpt>
        <trkpt lat="29.150811" lon="105.404713"><ele>394.76642</ele><time>2025-12-28T00:21:27.000Z</time></trkpt>
        <trkpt lat="29.150859" lon="105.40474"><ele>395.80142</ele><time>2025-12-28T00:21:35.000Z</time></trkpt>
        <trkpt lat="29.150903" lon="105.404741"><ele>396.85403</ele><time>2025-12-28T00:21:42.000Z</time></trkpt>
        <trkpt lat="29.150951" lon="105.404748"><ele>398.2293</ele><time>2025-12-28T00:21:51.000Z</time></trkpt>
        <trkpt lat="29.150998" lon="105.404758"><ele>398.38245</ele><time>2025-12-28T00:22:00.000Z</time></trkpt>
        <trkpt lat="29.151042" lon="105.404781"><ele>398.28387</ele><time>2025-12-28T00:22:11.000Z</time></trkpt>
        <trkpt lat="29.151081" lon="105.40481"><ele>397.30466</ele><time>2025-12-28T00:22:26.000Z</time></trkpt>
        <trkpt lat="29.151121" lon="105.404826"><ele>398.2856</ele><time>2025-12-28T00:22:35.000Z</time></trkpt>
        <trkpt lat="29.15116" lon="105.404861"><ele>396.8185</ele><time>2025-12-28T00:22:45.000Z</time></trkpt>
        <trkpt lat="29.151152" lon="105.404918"><ele>397.23953</ele><time>2025-12-28T00:23:23.000Z</time></trkpt>
        <trkpt lat="29.151183" lon="105.404955"><ele>394.90738</ele><time>2025-12-28T00:24:34.000Z</time></trkpt>
        <trkpt lat="29.151204" lon="105.405002"><ele>394.6957</ele><time>2025-12-28T00:25:02.000Z</time></trkpt>
        <trkpt lat="29.151217" lon="105.405057"><ele>395.41055</ele><time>2025-12-28T00:25:27.000Z</time></trkpt>
        <trkpt lat="29.151251" lon="105.405099"><ele>396.5922</ele><time>2025-12-28T00:25:57.000Z</time></trkpt>
        <trkpt lat="29.151279" lon="105.405151"><ele>403.44534</ele><time>2025-12-28T00:26:20.000Z</time></trkpt>
        <trkpt lat="29.151303" lon="105.405195"><ele>401.8576</ele><time>2025-12-28T00:26:32.000Z</time></trkpt>
        <trkpt lat="29.151335" lon="105.405226"><ele>401.41962</ele><time>2025-12-28T00:26:39.000Z</time></trkpt>
        <trkpt lat="29.151376" lon="105.405251"><ele>402.02032</ele><time>2025-12-28T00:26:46.000Z</time></trkpt>
        <trkpt lat="29.151422" lon="105.405272"><ele>402.49146</ele><time>2025-12-28T00:26:56.000Z</time></trkpt>
        <trkpt lat="29.151431" lon="105.405218"><ele>404.88055</ele><time>2025-12-28T00:27:14.000Z</time></trkpt>
        <trkpt lat="29.151462" lon="105.4052"><ele>405.24332</ele><time>2025-12-28T00:27:19.000Z</time></trkpt>
        <trkpt lat="29.151511" lon="105.405218"><ele>407.6088</ele><time>2025-12-28T00:27:26.000Z</time></trkpt>
        <trkpt lat="29.151487" lon="105.405179"><ele>406.95792</ele><time>2025-12-28T00:27:53.000Z</time></trkpt>
        <trkpt lat="29.151521" lon="105.405149"><ele>409.03064</ele><time>2025-12-28T00:28:14.000Z</time></trkpt>
        <trkpt lat="29.151569" lon="105.405158"><ele>409.93558</ele><time>2025-12-28T00:28:24.000Z</time></trkpt>
        <trkpt lat="29.151598" lon="105.40512"><ele>410.0494</ele><time>2025-12-28T00:28:33.000Z</time></trkpt>
        <trkpt lat="29.151643" lon="105.405106"><ele>411.41486</ele><time>2025-12-28T00:28:49.000Z</time></trkpt>
        <trkpt lat="29.151658" lon="105.40506"><ele>413.82663</ele><time>2025-12-28T00:29:04.000Z</time></trkpt>
        <trkpt lat="29.151689" lon="105.405021"><ele>414.77548</ele><time>2025-12-28T00:29:14.000Z</time></trkpt>
        <trkpt lat="29.151719" lon="105.404985"><ele>415.2233</ele><time>2025-12-28T00:29:20.000Z</time></trkpt>
        <trkpt lat="29.151756" lon="105.404956"><ele>417.47742</ele><time>2025-12-28T00:29:25.000Z</time></trkpt>
        <trkpt lat="29.151798" lon="105.40498"><ele>417.99698</ele><time>2025-12-28T00:29:33.000Z</time></trkpt>
        <trkpt lat="29.151842" lon="105.405004"><ele>418.08008</ele><time>2025-12-28T00:29:51.000Z</time></trkpt>
        <trkpt lat="29.151886" lon="105.405008"><ele>420.21033</ele><time>2025-12-28T00:30:03.000Z</time></trkpt>
        <trkpt lat="29.151918" lon="105.405046"><ele>421.2706</ele><time>2025-12-28T00:30:17.000Z</time></trkpt>
        <trkpt lat="29.151961" lon="105.405034"><ele>420.47385</ele><time>2025-12-28T00:30:43.000Z</time></trkpt>
        <trkpt lat="29.151995" lon="105.405"><ele>420.617</ele><time>2025-12-28T00:31:01.000Z</time></trkpt>
        <trkpt lat="29.152041" lon="105.405026"><ele>427.64395</ele><time>2025-12-28T00:31:45.000Z</time></trkpt>
        <trkpt lat="29.152077" lon="105.405009"><ele>424.03714</ele><time>2025-12-28T00:31:52.000Z</time></trkpt>
        <trkpt lat="29.152112" lon="105.405037"><ele>422.271</ele><time>2025-12-28T00:32:00.000Z</time></trkpt>
        <trkpt lat="29.152144" lon="105.405086"><ele>422.27023</ele><time>2025-12-28T00:32:51.000Z</time></trkpt>
        <trkpt lat="29.152155" lon="105.405142"><ele>421.4599</ele><time>2025-12-28T00:33:22.000Z</time></trkpt>
        <trkpt lat="29.152188" lon="105.405179"><ele>422.35922</ele><time>2025-12-28T00:33:53.000Z</time></trkpt>
        <trkpt lat="29.152201" lon="105.405228"><ele>421.891</ele><time>2025-12-28T00:34:14.000Z</time></trkpt>
        <trkpt lat="29.152226" lon="105.405278"><ele>424.05054</ele><time>2025-12-28T00:35:12.000Z</time></trkpt>
        <trkpt lat="29.152214" lon="105.405332"><ele>423.73</ele><time>2025-12-28T00:36:20.000Z</time></trkpt>
        <trkpt lat="29.152234" lon="105.405379"><ele>425.3089</ele><time>2025-12-28T00:36:57.000Z</time></trkpt>
        <trkpt lat="29.152227" lon="105.40543"><ele>427.2492</ele><time>2025-12-28T00:37:25.000Z</time></trkpt>
        <trkpt lat="29.152213" lon="105.405481"><ele>428.72278</ele><time>2025-12-28T00:37:38.000Z</time></trkpt>
        <trkpt lat="29.152224" lon="105.405536"><ele>429.69034</ele><time>2025-12-28T00:37:57.000Z</time></trkpt>
        <trkpt lat="29.152239" lon="105.405582"><ele>429.4414</ele><time>2025-12-28T00:38:06.000Z</time></trkpt>
        <trkpt lat="29.152264" lon="105.40563"><ele>432.3662</ele><time>2025-12-28T00:38:21.000Z</time></trkpt>
        <trkpt lat="29.152306" lon="105.405656"><ele>432.5584</ele><time>2025-12-28T00:38:32.000Z</time></trkpt>
        <trkpt lat="29.15234" lon="105.405624"><ele>433.6671</ele><time>2025-12-28T00:38:43.000Z</time></trkpt>
        <trkpt lat="29.152383" lon="105.405609"><ele>433.96774</ele><time>2025-12-28T00:38:51.000Z</time></trkpt>
        <trkpt lat="29.152435" lon="105.405622"><ele>434.6122</ele><time>2025-12-28T00:39:11.000Z</time></trkpt>
        <trkpt lat="29.152495" lon="105.405616"><ele>434.3224</ele><time>2025-12-28T00:39:24.000Z</time></trkpt>
        <trkpt lat="29.152541" lon="105.405643"><ele>435.19415</ele><time>2025-12-28T00:39:36.000Z</time></trkpt>
        <trkpt lat="29.152563" lon="105.405691"><ele>436.59116</ele><time>2025-12-28T00:40:10.000Z</time></trkpt>
        <trkpt lat="29.1526" lon="105.405726"><ele>435.89658</ele><time>2025-12-28T00:40:50.000Z</time></trkpt>
        <trkpt lat="29.152619" lon="105.405779"><ele>435.18744</ele><time>2025-12-28T00:41:03.000Z</time></trkpt>
        <trkpt lat="29.152664" lon="105.405773"><ele>434.3962</ele><time>2025-12-28T00:41:32.000Z</time></trkpt>
        <trkpt lat="29.152661" lon="105.405719"><ele>434.9943</ele><time>2025-12-28T00:42:11.000Z</time></trkpt>
        <trkpt lat="29.152685" lon="105.405671"><ele>436.66373</ele><time>2025-12-28T00:42:45.000Z</time></trkpt>
        <trkpt lat="29.15273" lon="105.405668"><ele>436.57263</ele><time>2025-12-28T00:43:06.000Z</time></trkpt>
        <trkpt lat="29.152702" lon="105.405626"><ele>438.19128</ele><time>2025-12-28T00:43:27.000Z</time></trkpt>
        <trkpt lat="29.152736" lon="105.405601"><ele>439.37503</ele><time>2025-12-28T00:43:31.000Z</time></trkpt>
        <trkpt lat="29.152766" lon="105.405544"><ele>439.6043</ele><time>2025-12-28T00:43:56.000Z</time></trkpt>
        <trkpt lat="29.15279" lon="105.405501"><ele>438.97946</ele><time>2025-12-28T00:44:25.000Z</time></trkpt>
        <trkpt lat="29.152831" lon="105.405457"><ele>443.83636</ele><time>2025-12-28T00:44:38.000Z</time></trkpt>
        <trkpt lat="29.152878" lon="105.405454"><ele>443.42514</ele><time>2025-12-28T00:45:00.000Z</time></trkpt>
        <trkpt lat="29.152927" lon="105.405451"><ele>445.1545</ele><time>2025-12-28T00:46:17.000Z</time></trkpt>
        <trkpt lat="29.152955" lon="105.405482"><ele>446.08066</ele><time>2025-12-28T00:46:22.000Z</time></trkpt>
        <trkpt lat="29.153007" lon="105.405505"><ele>447.75586</ele><time>2025-12-28T00:46:31.000Z</time></trkpt>
        <trkpt lat="29.153033" lon="105.405554"><ele>448.013</ele><time>2025-12-28T00:46:46.000Z</time></trkpt>
        <trkpt lat="29.153071" lon="105.405578"><ele>447.80325</ele><time>2025-12-28T00:46:58.000Z</time></trkpt>
        <trkpt lat="29.153113" lon="105.405546"><ele>448.94144</ele><time>2025-12-28T00:47:22.000Z</time></trkpt>
        <trkpt lat="29.153116" lon="105.405491"><ele>451.12918</ele><time>2025-12-28T00:48:03.000Z</time></trkpt>
        <trkpt lat="29.15307" lon="105.405473"><ele>451.86563</ele><time>2025-12-28T00:48:25.000Z</time></trkpt>
        <trkpt lat="29.153019" lon="105.405471"><ele>449.81827</ele><time>2025-12-28T00:48:46.000Z</time></trkpt>
        <trkpt lat="29.152973" lon="105.405456"><ele>451.27502</ele><time>2025-12-28T00:49:01.000Z</time></trkpt>
        <trkpt lat="29.152927" lon="105.405438"><ele>448.66064</ele><time>2025-12-28T00:49:12.000Z</time></trkpt>
        <trkpt lat="29.152897" lon="105.405398"><ele>446.39844</ele><time>2025-12-28T00:49:26.000Z</time></trkpt>
        <trkpt lat="29.15286" lon="105.405363"><ele>447.15704</ele><time>2025-12-28T00:49:49.000Z</time></trkpt>
        <trkpt lat="29.152906" lon="105.405361"><ele>450.94037</ele><time>2025-12-28T00:51:08.000Z</time></trkpt>
        <trkpt lat="29.152952" lon="105.405369"><ele>454.2035</ele><time>2025-12-28T00:51:31.000Z</time></trkpt>
        <trkpt lat="29.152974" lon="105.405324"><ele>454.2799</ele><time>2025-12-28T00:51:45.000Z</time></trkpt>
        <trkpt lat="29.152995" lon="105.405277"><ele>458.4203</ele><time>2025-12-28T00:51:56.000Z</time></trkpt>
        <trkpt lat="29.153041" lon="105.40527"><ele>462.63635</ele><time>2025-12-28T00:52:30.000Z</time></trkpt>
        <trkpt lat="29.153081" lon="105.405299"><ele>463.22266</ele><time>2025-12-28T00:52:41.000Z</time></trkpt>
        <trkpt lat="29.153054" lon="105.405261"><ele>464.3759</ele><time>2025-12-28T00:53:04.000Z</time></trkpt>
        <trkpt lat="29.153088" lon="105.405295"><ele>466.96344</ele><time>2025-12-28T00:53:33.000Z</time></trkpt>
        <trkpt lat="29.153091" lon="105.405237"><ele>468.83704</ele><time>2025-12-28T00:53:55.000Z</time></trkpt>
        <trkpt lat="29.153118" lon="105.405188"><ele>469.09393</ele><time>2025-12-28T00:54:09.000Z</time></trkpt>
        <trkpt lat="29.15313" lon="105.405244"><ele>470.59225</ele><time>2025-12-28T00:54:58.000Z</time></trkpt>
        <trkpt lat="29.153134" lon="105.405188"><ele>474.90866</ele><time>2025-12-28T00:55:58.000Z</time></trkpt>
        <trkpt lat="29.153168" lon="105.405163"><ele>473.17505</ele><time>2025-12-28T00:56:04.000Z</time></trkpt>
        <trkpt lat="29.153164" lon="105.405217"><ele>477.19443</ele><time>2025-12-28T00:56:59.000Z</time></trkpt>
        <trkpt lat="29.153118" lon="105.405228"><ele>472.76004</ele><time>2025-12-28T00:59:01.000Z</time></trkpt>
        <trkpt lat="29.153078" lon="105.405202"><ele>468.62308</ele><time>2025-12-28T00:59:29.000Z</time></trkpt>
        <trkpt lat="29.153055" lon="105.405248"><ele>473.31027</ele><time>2025-12-28T01:00:05.000Z</time></trkpt>
        <trkpt lat="29.153038" lon="105.405252"><ele>466.59958</ele><time>2025-12-28T01:00:34.000Z</time></trkpt>
        <trkpt lat="29.153001" lon="105.40528"><ele>466.21802</ele><time>2025-12-28T01:00:43.000Z</time></trkpt>
        <trkpt lat="29.152982" lon="105.405337"><ele>463.46497</ele><time>2025-12-28T01:00:56.000Z</time></trkpt>
        <trkpt lat="29.152959" lon="105.405382"><ele>459.0895</ele><time>2025-12-28T01:01:14.000Z</time></trkpt>
        <trkpt lat="29.152913" lon="105.405369"><ele>456.29825</ele><time>2025-12-28T01:01:42.000Z</time></trkpt>
        <trkpt lat="29.15292" lon="105.405416"><ele>455.2318</ele><time>2025-12-28T01:01:52.000Z</time></trkpt>
        <trkpt lat="29.152876" lon="105.405422"><ele>450.002</ele><time>2025-12-28T01:02:29.000Z</time></trkpt>
        <trkpt lat="29.152841" lon="105.405456"><ele>449.1088</ele><time>2025-12-28T01:02:54.000Z</time></trkpt>
        <trkpt lat="29.152802" lon="105.405492"><ele>445.84726</ele><time>2025-12-28T01:03:12.000Z</time></trkpt>
        <trkpt lat="29.152759" lon="105.405524"><ele>440.68597</ele><time>2025-12-28T01:03:39.000Z</time></trkpt>
        <trkpt lat="29.152746" lon="105.405473"><ele>441.13364</ele><time>2025-12-28T01:03:55.000Z</time></trkpt>
        <trkpt lat="29.152717" lon="105.405431"><ele>442.1056</ele><time>2025-12-28T01:04:27.000Z</time></trkpt>
        <trkpt lat="29.152671" lon="105.405436"><ele>439.55103</ele><time>2025-12-28T01:05:16.000Z</time></trkpt>
        <trkpt lat="29.152651" lon="105.405484"><ele>439.74698</ele><time>2025-12-28T01:05:30.000Z</time></trkpt>
        <trkpt lat="29.152627" lon="105.405515"><ele>439.28943</ele><time>2025-12-28T01:06:47.000Z</time></trkpt>
        <trkpt lat="29.152585" lon="105.40554"><ele>438.03915</ele><time>2025-12-28T01:07:07.000Z</time></trkpt>
        <trkpt lat="29.152565" lon="105.405498"><ele>438.25323</ele><time>2025-12-28T01:07:18.000Z</time></trkpt>
        <trkpt lat="29.152543" lon="105.405444"><ele>436.87646</ele><time>2025-12-28T01:07:36.000Z</time></trkpt>
        <trkpt lat="29.152503" lon="105.405419"><ele>434.59555</ele><time>2025-12-28T01:08:12.000Z</time></trkpt>
        <trkpt lat="29.152501" lon="105.405366"><ele>434.88663</ele><time>2025-12-28T01:08:41.000Z</time></trkpt>
        <trkpt lat="29.152455" lon="105.405365"><ele>432.02582</ele><time>2025-12-28T01:09:20.000Z</time></trkpt>
        <trkpt lat="29.152419" lon="105.405333"><ele>429.3152</ele><time>2025-12-28T01:09:59.000Z</time></trkpt>
        <trkpt lat="29.152417" lon="105.40528"><ele>431.628</ele><time>2025-12-28T01:10:16.000Z</time></trkpt>
        <trkpt lat="29.152375" lon="105.405306"><ele>428.98074</ele><time>2025-12-28T01:10:49.000Z</time></trkpt>
        <trkpt lat="29.152324" lon="105.405311"><ele>425.95987</ele><time>2025-12-28T01:11:14.000Z</time></trkpt>
        <trkpt lat="29.15227" lon="105.405288"><ele>427.4107</ele><time>2025-12-28T01:11:58.000Z</time></trkpt>
        <trkpt lat="29.15223" lon="105.405316"><ele>426.39102</ele><time>2025-12-28T01:12:35.000Z</time></trkpt>
        <trkpt lat="29.152183" lon="105.405305"><ele>426.42453</ele><time>2025-12-28T01:12:50.000Z</time></trkpt>
        <trkpt lat="29.152147" lon="105.40534"><ele>422.57007</ele><time>2025-12-28T01:13:24.000Z</time></trkpt>
        <trkpt lat="29.152165" lon="105.405391"><ele>425.0546</ele><time>2025-12-28T01:13:50.000Z</time></trkpt>
        <trkpt lat="29.15212" lon="105.405406"><ele>423.92673</ele><time>2025-12-28T01:14:15.000Z</time></trkpt>
        <trkpt lat="29.152077" lon="105.405428"><ele>423.24213</ele><time>2025-12-28T01:14:24.000Z</time></trkpt>
        <trkpt lat="29.152028" lon="105.405423"><ele>420.18314</ele><time>2025-12-28T01:14:46.000Z</time></trkpt>
        <trkpt lat="29.152016" lon="105.405468"><ele>419.38947</ele><time>2025-12-28T01:14:55.000Z</time></trkpt>
        <trkpt lat="29.152033" lon="105.405428"><ele>421.3293</ele><time>2025-12-28T01:15:14.000Z</time></trkpt>
        <trkpt lat="29.152022" lon="105.405374"><ele>420.185</ele><time>2025-12-28T01:15:26.000Z</time></trkpt>
        <trkpt lat="29.152004" lon="105.405323"><ele>418.58618</ele><time>2025-12-28T01:16:13.000Z</time></trkpt>
        <trkpt lat="29.152011" lon="105.405272"><ele>419.11853</ele><time>2025-12-28T01:16:35.000Z</time></trkpt>
        <trkpt lat="29.152057" lon="105.405255"><ele>417.89108</ele><time>2025-12-28T01:16:52.000Z</time></trkpt>
        <trkpt lat="29.152043" lon="105.405206"><ele>421.3481</ele><time>2025-12-28T01:17:04.000Z</time></trkpt>
        <trkpt lat="29.152039" lon="105.405143"><ele>421.58704</ele><time>2025-12-28T01:17:19.000Z</time></trkpt>
        <trkpt lat="29.152034" lon="105.405091"><ele>422.94296</ele><time>2025-12-28T01:17:57.000Z</time></trkpt>
        <trkpt lat="29.152021" lon="105.405042"><ele>425.11957</ele><time>2025-12-28T01:18:14.000Z</time></trkpt>
        <trkpt lat="29.151989" lon="105.404997"><ele>425.2335</ele><time>2025-12-28T01:18:44.000Z</time></trkpt>
        <trkpt lat="29.151955" lon="105.405037"><ele>424.42648</ele><time>2025-12-28T01:19:35.000Z</time></trkpt>
        <trkpt lat="29.151926" lon="105.405005"><ele>423.3847</ele><time>2025-12-28T01:19:43.000Z</time></trkpt>
        <trkpt lat="29.151877" lon="105.404998"><ele>422.11932</ele><time>2025-12-28T01:19:49.000Z</time></trkpt>
        <trkpt lat="29.15183" lon="105.404987"><ele>420.62335</ele><time>2025-12-28T01:19:55.000Z</time></trkpt>
        <trkpt lat="29.151795" lon="105.404963"><ele>420.1979</ele><time>2025-12-28T01:19:59.000Z</time></trkpt>
        <trkpt lat="29.151745" lon="105.404956"><ele>419.63242</ele><time>2025-12-28T01:20:06.000Z</time></trkpt>
        <trkpt lat="29.151709" lon="105.404923"><ele>418.82385</ele><time>2025-12-28T01:20:19.000Z</time></trkpt>
        <trkpt lat="29.151671" lon="105.404927"><ele>417.75067</ele><time>2025-12-28T01:20:25.000Z</time></trkpt>
        <trkpt lat="29.15161" lon="105.404925"><ele>416.03265</ele><time>2025-12-28T01:20:36.000Z</time></trkpt>
        <trkpt lat="29.151562" lon="105.404911"><ele>413.9736</ele><time>2025-12-28T01:20:46.000Z</time></trkpt>
        <trkpt lat="29.151516" lon="105.404921"><ele>412.29062</ele><time>2025-12-28T01:21:01.000Z</time></trkpt>
        <trkpt lat="29.15149" lon="105.404973"><ele>410.89264</ele><time>2025-12-28T01:21:12.000Z</time></trkpt>
        <trkpt lat="29.151467" lon="105.405026"><ele>410.08304</ele><time>2025-12-28T01:21:19.000Z</time></trkpt>
        <trkpt lat="29.15145" lon="105.405084"><ele>408.7211</ele><time>2025-12-28T01:21:30.000Z</time></trkpt>
        <trkpt lat="29.151435" lon="105.405132"><ele>407.15353</ele><time>2025-12-28T01:21:58.000Z</time></trkpt>
        <trkpt lat="29.151395" lon="105.405169"><ele>405.7347</ele><time>2025-12-28T01:22:40.000Z</time></trkpt>
        <trkpt lat="29.151351" lon="105.405177"><ele>404.19516</ele><time>2025-12-28T01:22:55.000Z</time></trkpt>
        <trkpt lat="29.151306" lon="105.405159"><ele>403.03128</ele><time>2025-12-28T01:23:14.000Z</time></trkpt>
        <trkpt lat="29.151277" lon="105.405121"><ele>400.93448</ele><time>2025-12-28T01:23:26.000Z</time></trkpt>
        <trkpt lat="29.151239" lon="105.405089"><ele>399.15796</ele><time>2025-12-28T01:23:45.000Z</time></trkpt>
        <trkpt lat="29.151199" lon="105.405053"><ele>395.80362</ele><time>2025-12-28T01:24:17.000Z</time></trkpt>
        <trkpt lat="29.151185" lon="105.405001"><ele>395.5158</ele><time>2025-12-28T01:24:24.000Z</time></trkpt>
        <trkpt lat="29.151166" lon="105.40494"><ele>397.0152</ele><time>2025-12-28T01:24:43.000Z</time></trkpt>
        <trkpt lat="29.151133" lon="105.404895"><ele>392.98</ele><time>2025-12-28T01:25:47.000Z</time></trkpt>
        <trkpt lat="29.151129" lon="105.404841"><ele>395.97336</ele><time>2025-12-28T01:26:02.000Z</time></trkpt>
        <trkpt lat="29.151104" lon="105.404798"><ele>397.53632</ele><time>2025-12-28T01:26:09.000Z</time></trkpt>
        <trkpt lat="29.151055" lon="105.404783"><ele>399.12827</ele><time>2025-12-28T01:26:19.000Z</time></trkpt>
        <trkpt lat="29.151012" lon="105.404757"><ele>401.86624</ele><time>2025-12-28T01:26:28.000Z</time></trkpt>
        <trkpt lat="29.150977" lon="105.404718"><ele>401.63577</ele><time>2025-12-28T01:26:36.000Z</time></trkpt>
        <trkpt lat="29.150933" lon="105.40471"><ele>400.24585</ele><time>2025-12-28T01:26:44.000Z</time></trkpt>
        <trkpt lat="29.150898" lon="105.404697"><ele>399.73145</ele><time>2025-12-28T01:26:47.000Z</time></trkpt>
        <trkpt lat="29.150841" lon="105.404684"><ele>398.7018</ele><time>2025-12-28T01:26:57.000Z</time></trkpt>
        <trkpt lat="29.15079" lon="105.404686"><ele>399.40454</ele><time>2025-12-28T01:27:05.000Z</time></trkpt>
        <trkpt lat="29.150742" lon="105.404686"><ele>399.49738</ele><time>2025-12-28T01:27:11.000Z</time></trkpt>
        <trkpt lat="29.150708" lon="105.404717"><ele>399.33035</ele><time>2025-12-28T01:27:16.000Z</time></trkpt>
        <trkpt lat="29.150675" lon="105.404765"><ele>398.90225</ele><time>2025-12-28T01:27:23.000Z</time></trkpt>
        <trkpt lat="29.150647" lon="105.40481"><ele>396.67468</ele><time>2025-12-28T01:27:30.000Z</time></trkpt>
        <trkpt lat="29.150614" lon="105.404844"><ele>395.30286</ele><time>2025-12-28T01:27:36.000Z</time></trkpt>
        <trkpt lat="29.150586" lon="105.404887"><ele>394.36337</ele><time>2025-12-28T01:27:44.000Z</time></trkpt>
        <trkpt lat="29.150554" lon="105.404925"><ele>393.29333</ele><time>2025-12-28T01:27:53.000Z</time></trkpt>
        <trkpt lat="29.150522" lon="105.404968"><ele>391.4506</ele><time>2025-12-28T01:28:02.000Z</time></trkpt>
        <trkpt lat="29.150486" lon="105.405007"><ele>389.2755</ele><time>2025-12-28T01:28:17.000Z</time></trkpt>
        <trkpt lat="29.15045" lon="105.405036"><ele>388.27722</ele><time>2025-12-28T01:28:27.000Z</time></trkpt>
        <trkpt lat="29.15041" lon="105.405069"><ele>386.47125</ele><time>2025-12-28T01:28:35.000Z</time></trkpt>
        <trkpt lat="29.150381" lon="105.405116"><ele>385.6131</ele><time>2025-12-28T01:28:41.000Z</time></trkpt>
        <trkpt lat="29.150341" lon="105.405159"><ele>384.11414</ele><time>2025-12-28T01:28:47.000Z</time></trkpt>
        <trkpt lat="29.150291" lon="105.405185"><ele>381.18924</ele><time>2025-12-28T01:28:57.000Z</time></trkpt>
        <trkpt lat="29.150259" lon="105.405212"><ele>380.2037</ele><time>2025-12-28T01:29:03.000Z</time></trkpt>
        <trkpt lat="29.15022" lon="105.405246"><ele>379.14154</ele><time>2025-12-28T01:29:10.000Z</time></trkpt>
        <trkpt lat="29.150172" lon="105.405268"><ele>376.41306</ele><time>2025-12-28T01:29:21.000Z</time></trkpt>
        <trkpt lat="29.150127" lon="105.405281"><ele>373.21268</ele><time>2025-12-28T01:29:34.000Z</time></trkpt>
        <trkpt lat="29.150078" lon="105.405289"><ele>369.9564</ele><time>2025-12-28T01:29:57.000Z</time></trkpt>
        <trkpt lat="29.150042" lon="105.405311"><ele>368.99136</ele><time>2025-12-28T01:30:05.000Z</time></trkpt>
        <trkpt lat="29.150003" lon="105.405344"><ele>367.88696</ele><time>2025-12-28T01:30:11.000Z</time></trkpt>
        <trkpt lat="29.149966" lon="105.405393"><ele>365.9683</ele><time>2025-12-28T01:30:18.000Z</time></trkpt>
        <trkpt lat="29.14994" lon="105.405446"><ele>366.0716</ele><time>2025-12-28T01:30:27.000Z</time></trkpt>
        <trkpt lat="29.149922" lon="105.405491"><ele>365.05988</ele><time>2025-12-28T01:30:33.000Z</time></trkpt>
        <trkpt lat="29.149901" lon="105.405541"><ele>364.54846</ele><time>2025-12-28T01:30:38.000Z</time></trkpt>
        <trkpt lat="29.14988" lon="105.405598"><ele>364.13904</ele><time>2025-12-28T01:30:50.000Z</time></trkpt>
        <trkpt lat="29.149897" lon="105.405627"><ele>364.5168</ele><time>2025-12-28T01:30:53.000Z</time></trkpt>
        <trkpt lat="29.149901" lon="105.405676"><ele>364.655</ele><time>2025-12-28T01:30:57.000Z</time></trkpt>
        <trkpt lat="29.149889" lon="105.405733"><ele>364.73776</ele><time>2025-12-28T01:31:02.000Z</time></trkpt>
        <trkpt lat="29.149879" lon="105.405788"><ele>364.41635</ele><time>2025-12-28T01:31:07.000Z</time></trkpt>
        <trkpt lat="29.149856" lon="105.405836"><ele>364.5358</ele><time>2025-12-28T01:31:12.000Z</time></trkpt>
        <trkpt lat="29.149824" lon="105.405886"><ele>364.54514</ele><time>2025-12-28T01:31:18.000Z</time></trkpt>
        <trkpt lat="29.149795" lon="105.405932"><ele>364.5213</ele><time>2025-12-28T01:31:23.000Z</time></trkpt>
        <trkpt lat="29.14976" lon="105.405977"><ele>364.43185</ele><time>2025-12-28T01:31:29.000Z</time></trkpt>
        <trkpt lat="29.149724" lon="105.40601"><ele>363.89194</ele><time>2025-12-28T01:31:35.000Z</time></trkpt>
        <trkpt lat="29.149687" lon="105.406054"><ele>364.03903</ele><time>2025-12-28T01:31:41.000Z</time></trkpt>
        <trkpt lat="29.149656" lon="105.406103"><ele>364.29343</ele><time>2025-12-28T01:31:46.000Z</time></trkpt>
        <trkpt lat="29.149612" lon="105.406134"><ele>364.025</ele><time>2025-12-28T01:31:50.000Z</time></trkpt>
        <trkpt lat="29.149574" lon="105.406102"><ele>363.63837</ele><time>2025-12-28T01:31:56.000Z</time></trkpt>
        <trkpt lat="29.149542" lon="105.40605"><ele>363.71234</ele><time>2025-12-28T01:32:02.000Z</time></trkpt>
        <trkpt lat="29.149504" lon="105.406012"><ele>363.56</ele><time>2025-12-28T01:32:08.000Z</time></trkpt>
        <trkpt lat="29.149457" lon="105.405985"><ele>362.07196</ele><time>2025-12-28T01:32:26.000Z</time></trkpt>
        <trkpt lat="29.149417" lon="105.40598"><ele>361.55597</ele><time>2025-12-28T01:32:34.000Z</time></trkpt>
        <trkpt lat="29.149362" lon="105.405965"><ele>360.7439</ele><time>2025-12-28T01:32:44.000Z</time></trkpt>
        <trkpt lat="29.149318" lon="105.405955"><ele>359.52588</ele><time>2025-12-28T01:32:51.000Z</time></trkpt>
        <trkpt lat="29.149273" lon="105.405938"><ele>358.30908</ele><time>2025-12-28T01:32:59.000Z</time></trkpt>
        <trkpt lat="29.149226" lon="105.405939"><ele>356.3948</ele><time>2025-12-28T01:33:13.000Z</time></trkpt>
        <trkpt lat="29.149181" lon="105.405966"><ele>355.73917</ele><time>2025-12-28T01:33:23.000Z</time></trkpt>
        <trkpt lat="29.149137" lon="105.405997"><ele>355.40668</ele><time>2025-12-28T01:33:37.000Z</time></trkpt>
        <trkpt lat="29.149099" lon="105.406018"><ele>354.7775</ele><time>2025-12-28T01:33:45.000Z</time></trkpt>
        <trkpt lat="29.149056" lon="105.406037"><ele>353.8584</ele><time>2025-12-28T01:33:52.000Z</time></trkpt>
        <trkpt lat="29.149031" lon="105.406074"><ele>353.3512</ele><time>2025-12-28T01:33:56.000Z</time></trkpt>
        <trkpt lat="29.148993" lon="105.406107"><ele>353.09262</ele><time>2025-12-28T01:34:01.000Z</time></trkpt>
        <trkpt lat="29.148956" lon="105.406147"><ele>353.72278</ele><time>2025-12-28T01:34:06.000Z</time></trkpt>
        <trkpt lat="29.148917" lon="105.406194"><ele>353.14307</ele><time>2025-12-28T01:34:11.000Z</time></trkpt>
        <trkpt lat="29.148875" lon="105.406238"><ele>352.6802</ele><time>2025-12-28T01:34:17.000Z</time></trkpt>
        <trkpt lat="29.148839" lon="105.406276"><ele>351.39764</ele><time>2025-12-28T01:34:25.000Z</time></trkpt>
        <trkpt lat="29.148807" lon="105.406308"><ele>350.6421</ele><time>2025-12-28T01:34:31.000Z</time></trkpt>
        <trkpt lat="29.148769" lon="105.40635"><ele>350.4673</ele><time>2025-12-28T01:34:38.000Z</time></trkpt>
        <trkpt lat="29.148737" lon="105.406395"><ele>348.17258</ele><time>2025-12-28T01:35:31.000Z</time></trkpt>
        <trkpt lat="29.148703" lon="105.406409"><ele>348.15863</ele><time>2025-12-28T01:35:37.000Z</time></trkpt>
        <trkpt lat="29.148658" lon="105.406444"><ele>348.7323</ele><time>2025-12-28T01:35:42.000Z</time></trkpt>
        <trkpt lat="29.148613" lon="105.406489"><ele>348.46207</ele><time>2025-12-28T01:35:48.000Z</time></trkpt>
        <trkpt lat="29.148569" lon="105.40653"><ele>347.86185</ele><time>2025-12-28T01:35:55.000Z</time></trkpt>
        <trkpt lat="29.148532" lon="105.40657"><ele>346.87033</ele><time>2025-12-28T01:36:02.000Z</time></trkpt>
        <trkpt lat="29.148487" lon="105.406599"><ele>346.42426</ele><time>2025-12-28T01:36:08.000Z</time></trkpt>
        <trkpt lat="29.148436" lon="105.406587"><ele>344.86847</ele><time>2025-12-28T01:36:21.000Z</time></trkpt>
        <trkpt lat="29.148394" lon="105.406595"><ele>342.74088</ele><time>2025-12-28T01:36:30.000Z</time></trkpt>
        <trkpt lat="29.148351" lon="105.406576"><ele>342.27292</ele><time>2025-12-28T01:36:39.000Z</time></trkpt>
        <trkpt lat="29.148308" lon="105.406556"><ele>340.2834</ele><time>2025-12-28T01:36:48.000Z</time></trkpt>
        <trkpt lat="29.148261" lon="105.406536"><ele>337.22974</ele><time>2025-12-28T01:37:02.000Z</time></trkpt>
        <trkpt lat="29.148218" lon="105.406552"><ele>336.39456</ele><time>2025-12-28T01:37:19.000Z</time></trkpt>
        <trkpt lat="29.148172" lon="105.406557"><ele>335.12708</ele><time>2025-12-28T01:37:30.000Z</time></trkpt>
        <trkpt lat="29.148132" lon="105.406529"><ele>334.97556</ele><time>2025-12-28T01:37:43.000Z</time></trkpt>
        <trkpt lat="29.148088" lon="105.406534"><ele>331.2259</ele><time>2025-12-28T01:37:57.000Z</time></trkpt>
        <trkpt lat="29.148037" lon="105.406531"><ele>328.89795</ele><time>2025-12-28T01:38:07.000Z</time></trkpt>
        <trkpt lat="29.148004" lon="105.406567"><ele>328.55942</ele><time>2025-12-28T01:38:15.000Z</time></trkpt>
        <trkpt lat="29.147957" lon="105.406565"><ele>327.8162</ele><time>2025-12-28T01:39:02.000Z</time></trkpt>
        <trkpt lat="29.14791" lon="105.406569"><ele>327.06653</ele><time>2025-12-28T01:39:36.000Z</time></trkpt>
        <trkpt lat="29.147867" lon="105.406548"><ele>326.24612</ele><time>2025-12-28T01:39:50.000Z</time></trkpt>
        <trkpt lat="29.147897" lon="105.406503"><ele>324.45648</ele><time>2025-12-28T01:40:19.000Z</time></trkpt>
        <trkpt lat="29.147894" lon="105.406447"><ele>322.87573</ele><time>2025-12-28T01:40:37.000Z</time></trkpt>
        <trkpt lat="29.147851" lon="105.406424"><ele>320.97696</ele><time>2025-12-28T01:41:09.000Z</time></trkpt>
        <trkpt lat="29.14781" lon="105.406464"><ele>320.55008</ele><time>2025-12-28T01:41:42.000Z</time></trkpt>
        <trkpt lat="29.147778" lon="105.406483"><ele>320.652</ele><time>2025-12-28T01:41:47.000Z</time></trkpt>
        <trkpt lat="29.147741" lon="105.406509"><ele>320.9765</ele><time>2025-12-28T01:41:51.000Z</time></trkpt>
        <trkpt lat="29.147691" lon="105.406515"><ele>321.36307</ele><time>2025-12-28T01:41:57.000Z</time></trkpt>
        <trkpt lat="29.14764" lon="105.406517"><ele>320.4909</ele><time>2025-12-28T01:42:04.000Z</time></trkpt>
        <trkpt lat="29.147596" lon="105.406536"><ele>320.63422</ele><time>2025-12-28T01:42:11.000Z</time></trkpt>
        <trkpt lat="29.147568" lon="105.406585"><ele>320.65854</ele><time>2025-12-28T01:42:48.000Z</time></trkpt>
        <trkpt lat="29.147527" lon="105.40662"><ele>319.19122</ele><time>2025-12-28T01:43:02.000Z</time></trkpt>
        <trkpt lat="29.147494" lon="105.406662"><ele>318.74338</ele><time>2025-12-28T01:43:08.000Z</time></trkpt>
        <trkpt lat="29.147464" lon="105.406712"><ele>318.09082</ele><time>2025-12-28T01:43:15.000Z</time></trkpt>
        <trkpt lat="29.147433" lon="105.40675"><ele>318.53897</ele><time>2025-12-28T01:43:20.000Z</time></trkpt>
        <trkpt lat="29.147387" lon="105.406778"><ele>318.72913</ele><time>2025-12-28T01:43:25.000Z</time></trkpt>
        <trkpt lat="29.147331" lon="105.406784"><ele>318.7566</ele><time>2025-12-28T01:43:33.000Z</time></trkpt>
        <trkpt lat="29.14729" lon="105.406799"><ele>318.6172</ele><time>2025-12-28T01:43:39.000Z</time></trkpt>
        <trkpt lat="29.147243" lon="105.40678"><ele>317.297</ele><time>2025-12-28T01:43:47.000Z</time></trkpt>
        <trkpt lat="29.14723" lon="105.406731"><ele>316.78564</ele><time>2025-12-28T01:43:51.000Z</time></trkpt>
        <trkpt lat="29.14721" lon="105.406678"><ele>315.9903</ele><time>2025-12-28T01:43:55.000Z</time></trkpt>
        <trkpt lat="29.147186" lon="105.406617"><ele>315.50577</ele><time>2025-12-28T01:44:00.000Z</time></trkpt>
        <trkpt lat="29.14716" lon="105.406569"><ele>315.46024</ele><time>2025-12-28T01:44:04.000Z</time></trkpt>
        <trkpt lat="29.147127" lon="105.406517"><ele>316.26083</ele><time>2025-12-28T01:44:09.000Z</time></trkpt>
        <trkpt lat="29.147081" lon="105.406493"><ele>317.6275</ele><time>2025-12-28T01:44:14.000Z</time></trkpt>
        <trkpt lat="29.14703" lon="105.406499"><ele>318.8951</ele><time>2025-12-28T01:44:19.000Z</time></trkpt>
        <trkpt lat="29.146981" lon="105.406521"><ele>319.19104</ele><time>2025-12-28T01:44:24.000Z</time></trkpt>
        <trkpt lat="29.146928" lon="105.406544"><ele>318.93945</ele><time>2025-12-28T01:44:30.000Z</time></trkpt>
        <trkpt lat="29.146884" lon="105.406547"><ele>318.56256</ele><time>2025-12-28T01:44:35.000Z</time></trkpt>
        <trkpt lat="29.146835" lon="105.406548"><ele>318.13675</ele><time>2025-12-28T01:44:41.000Z</time></trkpt>
        <trkpt lat="29.146785" lon="105.406539"><ele>317.61392</ele><time>2025-12-28T01:45:00.000Z</time></trkpt>
        <trkpt lat="29.146754" lon="105.406521"><ele>317.04138</ele><time>2025-12-28T01:45:05.000Z</time></trkpt>
        <trkpt lat="29.146703" lon="105.406491"><ele>317.2715</ele><time>2025-12-28T01:45:11.000Z</time></trkpt>
        <trkpt lat="29.146742" lon="105.406524"><ele>318.78372</ele><time>2025-12-28T01:56:02.000Z</time></trkpt>
        <trkpt lat="29.146709" lon="105.406487"><ele>317.8205</ele><time>2025-12-28T01:56:38.000Z</time></trkpt>
        <trkpt lat="29.14667" lon="105.406452"><ele>318.2536</ele><time>2025-12-28T01:56:50.000Z</time></trkpt>
        <trkpt lat="29.146651" lon="105.406375"><ele>319.44217</ele><time>2025-12-28T01:57:16.000Z</time></trkpt>
        <trkpt lat="29.14664" lon="105.406322"><ele>319.9267</ele><time>2025-12-28T01:57:18.000Z</time></trkpt>
        <trkpt lat="29.146617" lon="105.406223"><ele>321.06628</ele><time>2025-12-28T01:57:26.000Z</time></trkpt>
        <trkpt lat="29.146596" lon="105.406157"><ele>321.4434</ele><time>2025-12-28T01:57:28.000Z</time></trkpt>
        <trkpt lat="29.146581" lon="105.406114"><ele>321.63373</ele><time>2025-12-28T01:57:29.000Z</time></trkpt>
        <trkpt lat="29.146553" lon="105.406044"><ele>322.0011</ele><time>2025-12-28T01:57:31.000Z</time></trkpt>
        <trkpt lat="29.146507" lon="105.405984"><ele>322.75372</ele><time>2025-12-28T01:57:33.000Z</time></trkpt>
        <trkpt lat="29.14647" lon="105.405961"><ele>323.3247</ele><time>2025-12-28T01:57:34.000Z</time></trkpt>
        <trkpt lat="29.146402" lon="105.405946"><ele>324.18417</ele><time>2025-12-28T01:57:36.000Z</time></trkpt>
        <trkpt lat="29.146333" lon="105.405979"><ele>325.5598</ele><time>2025-12-28T01:57:38.000Z</time></trkpt>
        <trkpt lat="29.146296" lon="105.406027"><ele>326.37274</ele><time>2025-12-28T01:57:39.000Z</time></trkpt>
        <trkpt lat="29.146268" lon="105.406078"><ele>326.8474</ele><time>2025-12-28T01:57:40.000Z</time></trkpt>
        <trkpt lat="29.146226" lon="105.406158"><ele>326.9685</ele><time>2025-12-28T01:57:42.000Z</time></trkpt>
        <trkpt lat="29.146185" lon="105.406253"><ele>326.17258</ele><time>2025-12-28T01:57:44.000Z</time></trkpt>
        <trkpt lat="29.146162" lon="105.406319"><ele>324.91318</ele><time>2025-12-28T01:57:45.000Z</time></trkpt>
        <trkpt lat="29.146131" lon="105.406378"><ele>323.56998</ele><time>2025-12-28T01:57:46.000Z</time></trkpt>
        <trkpt lat="29.146096" lon="105.406438"><ele>322.299</ele><time>2025-12-28T01:57:47.000Z</time></trkpt>
        <trkpt lat="29.146056" lon="105.4065"><ele>321.30594</ele><time>2025-12-28T01:57:48.000Z</time></trkpt>
        <trkpt lat="29.146013" lon="105.406563"><ele>320.46564</ele><time>2025-12-28T01:57:49.000Z</time></trkpt>
        <trkpt lat="29.145968" lon="105.406626"><ele>319.82294</ele><time>2025-12-28T01:57:50.000Z</time></trkpt>
        <trkpt lat="29.145924" lon="105.406688"><ele>319.4757</ele><time>2025-12-28T01:57:51.000Z</time></trkpt>
        <trkpt lat="29.145877" lon="105.406747"><ele>319.2744</ele><time>2025-12-28T01:57:52.000Z</time></trkpt>
        <trkpt lat="29.145828" lon="105.406801"><ele>319.29858</ele><time>2025-12-28T01:57:53.000Z</time></trkpt>
        <trkpt lat="29.145783" lon="105.406854"><ele>319.54898</ele><time>2025-12-28T01:57:54.000Z</time></trkpt>
        <trkpt lat="29.145741" lon="105.406903"><ele>319.94455</ele><time>2025-12-28T01:57:55.000Z</time></trkpt>
        <trkpt lat="29.145701" lon="105.406949"><ele>320.49307</ele><time>2025-12-28T01:57:56.000Z</time></trkpt>
        <trkpt lat="29.145663" lon="105.406993"><ele>321.02197</ele><time>2025-12-28T01:57:57.000Z</time></trkpt>
        <trkpt lat="29.145623" lon="105.407032"><ele>321.4703</ele><time>2025-12-28T01:57:58.000Z</time></trkpt>
        <trkpt lat="29.145554" lon="105.407106"><ele>321.7524</ele><time>2025-12-28T01:58:00.000Z</time></trkpt>
        <trkpt lat="29.145489" lon="105.407176"><ele>321.6764</ele><time>2025-12-28T01:58:02.000Z</time></trkpt>
        <trkpt lat="29.145457" lon="105.40721"><ele>321.58926</ele><time>2025-12-28T01:58:03.000Z</time></trkpt>
        <trkpt lat="29.145419" lon="105.407244"><ele>321.59515</ele><time>2025-12-28T01:58:04.000Z</time></trkpt>
        <trkpt lat="29.145378" lon="105.407281"><ele>321.54742</ele><time>2025-12-28T01:58:05.000Z</time></trkpt>
        <trkpt lat="29.145335" lon="105.407319"><ele>321.45932</ele><time>2025-12-28T01:58:06.000Z</time></trkpt>
        <trkpt lat="29.145292" lon="105.407358"><ele>321.28674</ele><time>2025-12-28T01:58:07.000Z</time></trkpt>
        <trkpt lat="29.145248" lon="105.407398"><ele>321.16806</ele><time>2025-12-28T01:58:08.000Z</time></trkpt>
        <trkpt lat="29.145204" lon="105.407437"><ele>321.1439</ele><time>2025-12-28T01:58:09.000Z</time></trkpt>
        <trkpt lat="29.145118" lon="105.407499"><ele>321.47742</ele><time>2025-12-28T01:58:11.000Z</time></trkpt>
        <trkpt lat="29.145068" lon="105.407525"><ele>321.8762</ele><time>2025-12-28T01:58:12.000Z</time></trkpt>
        <trkpt lat="29.144973" lon="105.407569"><ele>322.69785</ele><time>2025-12-28T01:58:14.000Z</time></trkpt>
        <trkpt lat="29.144914" lon="105.407578"><ele>323.23953</ele><time>2025-12-28T01:58:15.000Z</time></trkpt>
        <trkpt lat="29.144852" lon="105.407583"><ele>323.58582</ele><time>2025-12-28T01:58:16.000Z</time></trkpt>
        <trkpt lat="29.14479" lon="105.407586"><ele>323.75095</ele><time>2025-12-28T01:58:17.000Z</time></trkpt>
        <trkpt lat="29.144688" lon="105.407652"><ele>323.84296</ele><time>2025-12-28T01:58:19.000Z</time></trkpt>
        <trkpt lat="29.144601" lon="105.407695"><ele>323.6469</ele><time>2025-12-28T01:58:21.000Z</time></trkpt>
        <trkpt lat="29.144527" lon="105.407691"><ele>322.9682</ele><time>2025-12-28T01:58:23.000Z</time></trkpt>
        <trkpt lat="29.144494" lon="105.407657"><ele>322.40292</ele><time>2025-12-28T01:58:24.000Z</time></trkpt>
        <trkpt lat="29.14446" lon="105.407614"><ele>321.93265</ele><time>2025-12-28T01:58:25.000Z</time></trkpt>
        <trkpt lat="29.144458" lon="105.407539"><ele>321.64603</ele><time>2025-12-28T01:58:26.000Z</time></trkpt>
        <trkpt lat="29.144453" lon="105.407457"><ele>321.55893</ele><time>2025-12-28T01:58:27.000Z</time></trkpt>
        <trkpt lat="29.144442" lon="105.407373"><ele>321.6622</ele><time>2025-12-28T01:58:28.000Z</time></trkpt>
        <trkpt lat="29.144426" lon="105.407288"><ele>321.8592</ele><time>2025-12-28T01:58:29.000Z</time></trkpt>
        <trkpt lat="29.144406" lon="105.407202"><ele>322.0629</ele><time>2025-12-28T01:58:30.000Z</time></trkpt>
        <trkpt lat="29.144382" lon="105.407115"><ele>322.323</ele><time>2025-12-28T01:58:31.000Z</time></trkpt>
        <trkpt lat="29.144355" lon="105.407029"><ele>322.57135</ele><time>2025-12-28T01:58:32.000Z</time></trkpt>
        <trkpt lat="29.144326" lon="105.406942"><ele>322.8393</ele><time>2025-12-28T01:58:33.000Z</time></trkpt>
        <trkpt lat="29.144294" lon="105.406856"><ele>323.08438</ele><time>2025-12-28T01:58:34.000Z</time></trkpt>
        <trkpt lat="29.14426" lon="105.406771"><ele>323.43234</ele><time>2025-12-28T01:58:35.000Z</time></trkpt>
        <trkpt lat="29.144225" lon="105.406687"><ele>323.87466</ele><time>2025-12-28T01:58:36.000Z</time></trkpt>
        <trkpt lat="29.144191" lon="105.40661"><ele>324.23843</ele><time>2025-12-28T01:58:37.000Z</time></trkpt>
        <trkpt lat="29.144146" lon="105.406534"><ele>324.4883</ele><time>2025-12-28T01:58:38.000Z</time></trkpt>
        <trkpt lat="29.1441" lon="105.406469"><ele>324.618</ele><time>2025-12-28T01:58:39.000Z</time></trkpt>
        <trkpt lat="29.144053" lon="105.406412"><ele>324.61673</ele><time>2025-12-28T01:58:40.000Z</time></trkpt>
        <trkpt lat="29.144005" lon="105.406361"><ele>324.46616</ele><time>2025-12-28T01:58:41.000Z</time></trkpt>
        <trkpt lat="29.143956" lon="105.406315"><ele>324.12152</ele><time>2025-12-28T01:58:42.000Z</time></trkpt>
        <trkpt lat="29.14389" lon="105.4063"><ele>323.6356</ele><time>2025-12-28T01:58:43.000Z</time></trkpt>
        <trkpt lat="29.143823" lon="105.40629"><ele>323.0235</ele><time>2025-12-28T01:58:44.000Z</time></trkpt>
        <trkpt lat="29.143714" lon="105.406267"><ele>321.99915</ele><time>2025-12-28T01:58:46.000Z</time></trkpt>
        <trkpt lat="29.143654" lon="105.406251"><ele>321.23438</ele><time>2025-12-28T01:58:47.000Z</time></trkpt>
        <trkpt lat="29.143604" lon="105.406217"><ele>320.59186</ele><time>2025-12-28T01:58:48.000Z</time></trkpt>
        <trkpt lat="29.143557" lon="105.406173"><ele>320.08636</ele><time>2025-12-28T01:58:49.000Z</time></trkpt>
        <trkpt lat="29.143511" lon="105.406122"><ele>319.72424</ele><time>2025-12-28T01:58:50.000Z</time></trkpt>
        <trkpt lat="29.143467" lon="105.406065"><ele>319.4622</ele><time>2025-12-28T01:58:51.000Z</time></trkpt>
        <trkpt lat="29.143424" lon="105.406003"><ele>319.32224</ele><time>2025-12-28T01:58:52.000Z</time></trkpt>
        <trkpt lat="29.143381" lon="105.405937"><ele>319.27454</ele><time>2025-12-28T01:58:53.000Z</time></trkpt>
        <trkpt lat="29.143339" lon="105.405868"><ele>319.3597</ele><time>2025-12-28T01:58:54.000Z</time></trkpt>
        <trkpt lat="29.143296" lon="105.405796"><ele>319.58572</ele><time>2025-12-28T01:58:55.000Z</time></trkpt>
        <trkpt lat="29.143253" lon="105.405724"><ele>319.86725</ele><time>2025-12-28T01:58:56.000Z</time></trkpt>
        <trkpt lat="29.143209" lon="105.405651"><ele>320.14374</ele><time>2025-12-28T01:58:57.000Z</time></trkpt>
        <trkpt lat="29.143166" lon="105.405578"><ele>320.38992</ele><time>2025-12-28T01:58:58.000Z</time></trkpt>
        <trkpt lat="29.143124" lon="105.405508"><ele>320.5611</ele><time>2025-12-28T01:58:59.000Z</time></trkpt>
        <trkpt lat="29.143087" lon="105.40544"><ele>320.74326</ele><time>2025-12-28T01:59:00.000Z</time></trkpt>
        <trkpt lat="29.143023" lon="105.405326"><ele>320.89062</ele><time>2025-12-28T01:59:02.000Z</time></trkpt>
        <trkpt lat="29.142987" lon="105.405288"><ele>320.9086</ele><time>2025-12-28T01:59:03.000Z</time></trkpt>
        <trkpt lat="29.142911" lon="105.405242"><ele>320.67133</ele><time>2025-12-28T01:59:05.000Z</time></trkpt>
        <trkpt lat="29.142869" lon="105.405253"><ele>320.28778</ele><time>2025-12-28T01:59:06.000Z</time></trkpt>
        <trkpt lat="29.142825" lon="105.40527"><ele>319.7923</ele><time>2025-12-28T01:59:07.000Z</time></trkpt>
        <trkpt lat="29.142777" lon="105.405295"><ele>319.17896</ele><time>2025-12-28T01:59:08.000Z</time></trkpt>
        <trkpt lat="29.142724" lon="105.405331"><ele>318.67422</ele><time>2025-12-28T01:59:09.000Z</time></trkpt>
        <trkpt lat="29.142666" lon="105.405376"><ele>318.29227</ele><time>2025-12-28T01:59:10.000Z</time></trkpt>
        <trkpt lat="29.142604" lon="105.405428"><ele>318.065</ele><time>2025-12-28T01:59:11.000Z</time></trkpt>
        <trkpt lat="29.142538" lon="105.405486"><ele>318.09348</ele><time>2025-12-28T01:59:12.000Z</time></trkpt>
        <trkpt lat="29.14247" lon="105.40555"><ele>318.33386</ele><time>2025-12-28T01:59:13.000Z</time></trkpt>
        <trkpt lat="29.142402" lon="105.405615"><ele>318.52988</ele><time>2025-12-28T01:59:14.000Z</time></trkpt>
        <trkpt lat="29.142333" lon="105.405681"><ele>318.74347</ele><time>2025-12-28T01:59:15.000Z</time></trkpt>
        <trkpt lat="29.142264" lon="105.405743"><ele>318.92465</ele><time>2025-12-28T01:59:16.000Z</time></trkpt>
        <trkpt lat="29.142199" lon="105.405805"><ele>318.8911</ele><time>2025-12-28T01:59:17.000Z</time></trkpt>
        <trkpt lat="29.142139" lon="105.405869"><ele>318.6528</ele><time>2025-12-28T01:59:18.000Z</time></trkpt>
        <trkpt lat="29.142084" lon="105.405935"><ele>318.40848</ele><time>2025-12-28T01:59:19.000Z</time></trkpt>
        <trkpt lat="29.142033" lon="105.406002"><ele>318.05856</ele><time>2025-12-28T01:59:20.000Z</time></trkpt>
        <trkpt lat="29.141985" lon="105.406069"><ele>317.57822</ele><time>2025-12-28T01:59:21.000Z</time></trkpt>
        <trkpt lat="29.141936" lon="105.406133"><ele>317.12674</ele><time>2025-12-28T01:59:22.000Z</time></trkpt>
        <trkpt lat="29.14189" lon="105.406195"><ele>316.71103</ele><time>2025-12-28T01:59:23.000Z</time></trkpt>
        <trkpt lat="29.141845" lon="105.406254"><ele>316.3932</ele><time>2025-12-28T01:59:24.000Z</time></trkpt>
        <trkpt lat="29.141803" lon="105.406309"><ele>315.90137</ele><time>2025-12-28T01:59:25.000Z</time></trkpt>
        <trkpt lat="29.141765" lon="105.406364"><ele>315.35394</ele><time>2025-12-28T01:59:26.000Z</time></trkpt>
        <trkpt lat="29.141729" lon="105.406419"><ele>314.6553</ele><time>2025-12-28T01:59:27.000Z</time></trkpt>
        <trkpt lat="29.141694" lon="105.406475"><ele>313.92136</ele><time>2025-12-28T01:59:28.000Z</time></trkpt>
        <trkpt lat="29.141659" lon="105.406528"><ele>313.30838</ele><time>2025-12-28T01:59:29.000Z</time></trkpt>
        <trkpt lat="29.141622" lon="105.406578"><ele>312.7958</ele><time>2025-12-28T01:59:30.000Z</time></trkpt>
        <trkpt lat="29.141584" lon="105.406623"><ele>312.34625</ele><time>2025-12-28T01:59:31.000Z</time></trkpt>
        <trkpt lat="29.141545" lon="105.406661"><ele>311.92847</ele><time>2025-12-28T01:59:32.000Z</time></trkpt>
        <trkpt lat="29.141472" lon="105.406718"><ele>310.9821</ele><time>2025-12-28T01:59:34.000Z</time></trkpt>
        <trkpt lat="29.141398" lon="105.406737"><ele>309.79565</ele><time>2025-12-28T01:59:36.000Z</time></trkpt>
        <trkpt lat="29.141357" lon="105.406716"><ele>308.94577</ele><time>2025-12-28T01:59:37.000Z</time></trkpt>
        <trkpt lat="29.141311" lon="105.406691"><ele>307.8757</ele><time>2025-12-28T01:59:38.000Z</time></trkpt>
        <trkpt lat="29.141261" lon="105.406661"><ele>306.65692</ele><time>2025-12-28T01:59:39.000Z</time></trkpt>
        <trkpt lat="29.141206" lon="105.406628"><ele>305.34198</ele><time>2025-12-28T01:59:40.000Z</time></trkpt>
        <trkpt lat="29.141147" lon="105.406591"><ele>303.9245</ele><time>2025-12-28T01:59:41.000Z</time></trkpt>
        <trkpt lat="29.141085" lon="105.406553"><ele>302.43207</ele><time>2025-12-28T01:59:42.000Z</time></trkpt>
        <trkpt lat="29.14102" lon="105.406513"><ele>300.96588</ele><time>2025-12-28T01:59:43.000Z</time></trkpt>
        <trkpt lat="29.140954" lon="105.406475"><ele>299.54324</ele><time>2025-12-28T01:59:44.000Z</time></trkpt>
        <trkpt lat="29.140886" lon="105.406438"><ele>298.1884</ele><time>2025-12-28T01:59:45.000Z</time></trkpt>
        <trkpt lat="29.140817" lon="105.406402"><ele>296.8208</ele><time>2025-12-28T01:59:46.000Z</time></trkpt>
        <trkpt lat="29.140746" lon="105.406368"><ele>295.41425</ele><time>2025-12-28T01:59:47.000Z</time></trkpt>
        <trkpt lat="29.140675" lon="105.406335"><ele>293.90375</ele><time>2025-12-28T01:59:48.000Z</time></trkpt>
        <trkpt lat="29.140604" lon="105.406301"><ele>292.37463</ele><time>2025-12-28T01:59:49.000Z</time></trkpt>
        <trkpt lat="29.140534" lon="105.406264"><ele>291.00552</ele><time>2025-12-28T01:59:50.000Z</time></trkpt>
        <trkpt lat="29.140467" lon="105.406225"><ele>289.8503</ele><time>2025-12-28T01:59:51.000Z</time></trkpt>
        <trkpt lat="29.140404" lon="105.406185"><ele>288.88553</ele><time>2025-12-28T01:59:52.000Z</time></trkpt>
        <trkpt lat="29.140347" lon="105.406145"><ele>288.14084</ele><time>2025-12-28T01:59:53.000Z</time></trkpt>
        <trkpt lat="29.140246" lon="105.406081"><ele>286.75424</ele><time>2025-12-28T01:59:55.000Z</time></trkpt>
        <trkpt lat="29.140204" lon="105.406053"><ele>286.34274</ele><time>2025-12-28T01:59:56.000Z</time></trkpt>
        <trkpt lat="29.140163" lon="105.406029"><ele>285.88776</ele><time>2025-12-28T01:59:57.000Z</time></trkpt>
        <trkpt lat="29.140122" lon="105.40601"><ele>285.27405</ele><time>2025-12-28T01:59:58.000Z</time></trkpt>
        <trkpt lat="29.140081" lon="105.405994"><ele>284.56607</ele><time>2025-12-28T01:59:59.000Z</time></trkpt>
        <trkpt lat="29.14004" lon="105.405981"><ele>283.9935</ele><time>2025-12-28T02:00:00.000Z</time></trkpt>
        <trkpt lat="29.139956" lon="105.405958"><ele>282.9964</ele><time>2025-12-28T02:00:02.000Z</time></trkpt>
        <trkpt lat="29.13988" lon="105.405947"><ele>281.99573</ele><time>2025-12-28T02:00:04.000Z</time></trkpt>
        <trkpt lat="29.139814" lon="105.405947"><ele>280.8886</ele><time>2025-12-28T02:00:06.000Z</time></trkpt>
        <trkpt lat="29.139753" lon="105.405951"><ele>279.56107</ele><time>2025-12-28T02:00:08.000Z</time></trkpt>
        <trkpt lat="29.139697" lon="105.405955"><ele>278.3153</ele><time>2025-12-28T02:00:10.000Z</time></trkpt>
        <trkpt lat="29.139644" lon="105.405947"><ele>277.4373</ele><time>2025-12-28T02:00:12.000Z</time></trkpt>
        <trkpt lat="29.139594" lon="105.405913"><ele>276.69806</ele><time>2025-12-28T02:00:14.000Z</time></trkpt>
        <trkpt lat="29.13957" lon="105.40588"><ele>276.50644</ele><time>2025-12-28T02:00:15.000Z</time></trkpt>
        <trkpt lat="29.139546" lon="105.405842"><ele>276.33658</ele><time>2025-12-28T02:00:16.000Z</time></trkpt>
        <trkpt lat="29.139523" lon="105.405797"><ele>276.25302</ele><time>2025-12-28T02:00:17.000Z</time></trkpt>
        <trkpt lat="29.1395" lon="105.405746"><ele>276.26083</ele><time>2025-12-28T02:00:18.000Z</time></trkpt>
        <trkpt lat="29.139506" lon="105.405675"><ele>276.29587</ele><time>2025-12-28T02:00:19.000Z</time></trkpt>
        <trkpt lat="29.139509" lon="105.405597"><ele>276.3828</ele><time>2025-12-28T02:00:20.000Z</time></trkpt>
        <trkpt lat="29.139506" lon="105.405518"><ele>276.48904</ele><time>2025-12-28T02:00:21.000Z</time></trkpt>
        <trkpt lat="29.139496" lon="105.405437"><ele>276.62708</ele><time>2025-12-28T02:00:22.000Z</time></trkpt>
        <trkpt lat="29.139478" lon="105.405353"><ele>276.76697</ele><time>2025-12-28T02:00:23.000Z</time></trkpt>
        <trkpt lat="29.139453" lon="105.405268"><ele>276.90427</ele><time>2025-12-28T02:00:24.000Z</time></trkpt>
        <trkpt lat="29.139419" lon="105.405181"><ele>277.04996</ele><time>2025-12-28T02:00:25.000Z</time></trkpt>
        <trkpt lat="29.139378" lon="105.405096"><ele>277.20297</ele><time>2025-12-28T02:00:26.000Z</time></trkpt>
        <trkpt lat="29.139331" lon="105.405012"><ele>277.35376</ele><time>2025-12-28T02:00:27.000Z</time></trkpt>
        <trkpt lat="29.139281" lon="105.40493"><ele>277.51025</ele><time>2025-12-28T02:00:28.000Z</time></trkpt>
        <trkpt lat="29.139228" lon="105.404848"><ele>277.64105</ele><time>2025-12-28T02:00:29.000Z</time></trkpt>
        <trkpt lat="29.139174" lon="105.404767"><ele>277.80978</ele><time>2025-12-28T02:00:30.000Z</time></trkpt>
        <trkpt lat="29.139117" lon="105.404687"><ele>278.0556</ele><time>2025-12-28T02:00:31.000Z</time></trkpt>
        <trkpt lat="29.139066" lon="105.404609"><ele>278.4096</ele><time>2025-12-28T02:00:32.000Z</time></trkpt>
        <trkpt lat="29.139017" lon="105.40453"><ele>278.85855</ele><time>2025-12-28T02:00:33.000Z</time></trkpt>
        <trkpt lat="29.13897" lon="105.40445"><ele>279.39594</ele><time>2025-12-28T02:00:34.000Z</time></trkpt>
        <trkpt lat="29.138926" lon="105.404367"><ele>280.04285</ele><time>2025-12-28T02:00:35.000Z</time></trkpt>
        <trkpt lat="29.13888" lon="105.404279"><ele>280.8202</ele><time>2025-12-28T02:00:36.000Z</time></trkpt>
        <trkpt lat="29.138834" lon="105.404189"><ele>281.6609</ele><time>2025-12-28T02:00:37.000Z</time></trkpt>
        <trkpt lat="29.138788" lon="105.404098"><ele>282.514</ele><time>2025-12-28T02:00:38.000Z</time></trkpt>
        <trkpt lat="29.138741" lon="105.404005"><ele>283.36633</ele><time>2025-12-28T02:00:39.000Z</time></trkpt>
        <trkpt lat="29.138694" lon="105.403911"><ele>284.20047</ele><time>2025-12-28T02:00:40.000Z</time></trkpt>
        <trkpt lat="29.138646" lon="105.403817"><ele>285.04977</ele><time>2025-12-28T02:00:41.000Z</time></trkpt>
        <trkpt lat="29.138598" lon="105.403722"><ele>285.872</ele><time>2025-12-28T02:00:42.000Z</time></trkpt>
        <trkpt lat="29.13855" lon="105.403626"><ele>286.64514</ele><time>2025-12-28T02:00:43.000Z</time></trkpt>
        <trkpt lat="29.138497" lon="105.403529"><ele>287.37216</ele><time>2025-12-28T02:00:44.000Z</time></trkpt>
        <trkpt lat="29.138441" lon="105.403432"><ele>287.98932</ele><time>2025-12-28T02:00:45.000Z</time></trkpt>
        <trkpt lat="29.138383" lon="105.403337"><ele>288.5627</ele><time>2025-12-28T02:00:46.000Z</time></trkpt>
        <trkpt lat="29.138324" lon="105.403243"><ele>289.1256</ele><time>2025-12-28T02:00:47.000Z</time></trkpt>
        <trkpt lat="29.138263" lon="105.403149"><ele>289.7076</ele><time>2025-12-28T02:00:48.000Z</time></trkpt>
        <trkpt lat="29.1382" lon="105.403055"><ele>290.31482</ele><time>2025-12-28T02:00:49.000Z</time></trkpt>
        <trkpt lat="29.138136" lon="105.402961"><ele>290.9708</ele><time>2025-12-28T02:00:50.000Z</time></trkpt>
        <trkpt lat="29.138073" lon="105.402868"><ele>291.7171</ele><time>2025-12-28T02:00:51.000Z</time></trkpt>
        <trkpt lat="29.138011" lon="105.402773"><ele>292.52008</ele><time>2025-12-28T02:00:52.000Z</time></trkpt>
        <trkpt lat="29.13795" lon="105.402678"><ele>293.3629</ele><time>2025-12-28T02:00:53.000Z</time></trkpt>
        <trkpt lat="29.137891" lon="105.402582"><ele>294.2607</ele><time>2025-12-28T02:00:54.000Z</time></trkpt>
        <trkpt lat="29.137833" lon="105.402487"><ele>295.13416</ele><time>2025-12-28T02:00:55.000Z</time></trkpt>
        <trkpt lat="29.137777" lon="105.402393"><ele>296.05115</ele><time>2025-12-28T02:00:56.000Z</time></trkpt>
        <trkpt lat="29.137723" lon="105.4023"><ele>297.03574</ele><time>2025-12-28T02:00:57.000Z</time></trkpt>
        <trkpt lat="29.137671" lon="105.402209"><ele>298.00516</ele><time>2025-12-28T02:00:58.000Z</time></trkpt>
        <trkpt lat="29.137621" lon="105.40212"><ele>299.03473</ele><time>2025-12-28T02:00:59.000Z</time></trkpt>
        <trkpt lat="29.137572" lon="105.402032"><ele>300.06384</ele><time>2025-12-28T02:01:00.000Z</time></trkpt>
        <trkpt lat="29.137523" lon="105.401945"><ele>301.0851</ele><time>2025-12-28T02:01:01.000Z</time></trkpt>
        <trkpt lat="29.137474" lon="105.401861"><ele>302.1411</ele><time>2025-12-28T02:01:02.000Z</time></trkpt>
        <trkpt lat="29.137426" lon="105.401779"><ele>303.09454</ele><time>2025-12-28T02:01:03.000Z</time></trkpt>
        <trkpt lat="29.137378" lon="105.401698"><ele>304.0015</ele><time>2025-12-28T02:01:04.000Z</time></trkpt>
        <trkpt lat="29.137329" lon="105.401619"><ele>304.8707</ele><time>2025-12-28T02:01:05.000Z</time></trkpt>
        <trkpt lat="29.137281" lon="105.401541"><ele>305.7287</ele><time>2025-12-28T02:01:06.000Z</time></trkpt>
        <trkpt lat="29.137232" lon="105.401463"><ele>306.5869</ele><time>2025-12-28T02:01:07.000Z</time></trkpt>
        <trkpt lat="29.137183" lon="105.401384"><ele>307.45288</ele><time>2025-12-28T02:01:08.000Z</time></trkpt>
        <trkpt lat="29.137133" lon="105.401305"><ele>308.30923</ele><time>2025-12-28T02:01:09.000Z</time></trkpt>
        <trkpt lat="29.137082" lon="105.401224"><ele>309.18744</ele><time>2025-12-28T02:01:10.000Z</time></trkpt>
        <trkpt lat="29.13703" lon="105.401143"><ele>310.06055</ele><time>2025-12-28T02:01:11.000Z</time></trkpt>
        <trkpt lat="29.136976" lon="105.401061"><ele>310.9222</ele><time>2025-12-28T02:01:12.000Z</time></trkpt>
        <trkpt lat="29.136922" lon="105.400978"><ele>311.63974</ele><time>2025-12-28T02:01:13.000Z</time></trkpt>
        <trkpt lat="29.136867" lon="105.400895"><ele>312.2018</ele><time>2025-12-28T02:01:14.000Z</time></trkpt>
        <trkpt lat="29.13681" lon="105.400811"><ele>312.615</ele><time>2025-12-28T02:01:15.000Z</time></trkpt>
        <trkpt lat="29.136752" lon="105.400726"><ele>312.80646</ele><time>2025-12-28T02:01:16.000Z</time></trkpt>
        <trkpt lat="29.136691" lon="105.400639"><ele>312.90393</ele><time>2025-12-28T02:01:17.000Z</time></trkpt>
        <trkpt lat="29.136628" lon="105.400552"><ele>312.91223</ele><time>2025-12-28T02:01:18.000Z</time></trkpt>
        <trkpt lat="29.136563" lon="105.400464"><ele>312.8414</ele><time>2025-12-28T02:01:19.000Z</time></trkpt>
        <trkpt lat="29.136493" lon="105.400377"><ele>312.75198</ele><time>2025-12-28T02:01:20.000Z</time></trkpt>
        <trkpt lat="29.136424" lon="105.400286"><ele>312.68253</ele><time>2025-12-28T02:01:21.000Z</time></trkpt>
        <trkpt lat="29.136353" lon="105.400193"><ele>312.6001</ele><time>2025-12-28T02:01:22.000Z</time></trkpt>
        <trkpt lat="29.136282" lon="105.4001"><ele>312.47562</ele><time>2025-12-28T02:01:23.000Z</time></trkpt>
        <trkpt lat="29.136209" lon="105.400005"><ele>312.31308</ele><time>2025-12-28T02:01:24.000Z</time></trkpt>
        <trkpt lat="29.136135" lon="105.39991"><ele>312.1122</ele><time>2025-12-28T02:01:25.000Z</time></trkpt>
        <trkpt lat="29.136056" lon="105.399816"><ele>311.88965</ele><time>2025-12-28T02:01:26.000Z</time></trkpt>
        <trkpt lat="29.135972" lon="105.399725"><ele>311.59412</ele><time>2025-12-28T02:01:27.000Z</time></trkpt>
        <trkpt lat="29.135885" lon="105.399639"><ele>311.2906</ele><time>2025-12-28T02:01:28.000Z</time></trkpt>
        <trkpt lat="29.135794" lon="105.399555"><ele>310.97684</ele><time>2025-12-28T02:01:29.000Z</time></trkpt>
        <trkpt lat="29.135701" lon="105.399473"><ele>310.63736</ele><time>2025-12-28T02:01:30.000Z</time></trkpt>
        <trkpt lat="29.135605" lon="105.399397"><ele>310.27835</ele><time>2025-12-28T02:01:31.000Z</time></trkpt>
        <trkpt lat="29.135507" lon="105.399321"><ele>309.935</ele><time>2025-12-28T02:01:32.000Z</time></trkpt>
        <trkpt lat="29.135413" lon="105.399243"><ele>309.55734</ele><time>2025-12-28T02:01:33.000Z</time></trkpt>
        <trkpt lat="29.13532" lon="105.399165"><ele>309.15686</ele><time>2025-12-28T02:01:34.000Z</time></trkpt>
        <trkpt lat="29.135229" lon="105.399088"><ele>308.71082</ele><time>2025-12-28T02:01:35.000Z</time></trkpt>
        <trkpt lat="29.135138" lon="105.399011"><ele>308.2315</ele><time>2025-12-28T02:01:36.000Z</time></trkpt>
        <trkpt lat="29.135049" lon="105.398934"><ele>307.70868</ele><time>2025-12-28T02:01:37.000Z</time></trkpt>
        <trkpt lat="29.13496" lon="105.398858"><ele>307.1883</ele><time>2025-12-28T02:01:38.000Z</time></trkpt>
        <trkpt lat="29.134873" lon="105.398781"><ele>306.6273</ele><time>2025-12-28T02:01:39.000Z</time></trkpt>
        <trkpt lat="29.134787" lon="105.398703"><ele>306.0395</ele><time>2025-12-28T02:01:40.000Z</time></trkpt>
        <trkpt lat="29.134703" lon="105.398623"><ele>305.45407</ele><time>2025-12-28T02:01:41.000Z</time></trkpt>
        <trkpt lat="29.134621" lon="105.398543"><ele>304.89032</ele><time>2025-12-28T02:01:42.000Z</time></trkpt>
        <trkpt lat="29.134542" lon="105.398463"><ele>304.42346</ele><time>2025-12-28T02:01:43.000Z</time></trkpt>
        <trkpt lat="29.134466" lon="105.398384"><ele>303.95047</ele><time>2025-12-28T02:01:44.000Z</time></trkpt>
        <trkpt lat="29.134394" lon="105.398307"><ele>303.50943</ele><time>2025-12-28T02:01:45.000Z</time></trkpt>
        <trkpt lat="29.134327" lon="105.398231"><ele>303.04593</ele><time>2025-12-28T02:01:46.000Z</time></trkpt>
        <trkpt lat="29.134263" lon="105.398158"><ele>302.58267</ele><time>2025-12-28T02:01:47.000Z</time></trkpt>
        <trkpt lat="29.134203" lon="105.398092"><ele>302.10934</ele><time>2025-12-28T02:01:48.000Z</time></trkpt>
        <trkpt lat="29.134148" lon="105.398028"><ele>301.65625</ele><time>2025-12-28T02:01:49.000Z</time></trkpt>
        <trkpt lat="29.134099" lon="105.397969"><ele>301.23267</ele><time>2025-12-28T02:01:50.000Z</time></trkpt>
        <trkpt lat="29.134054" lon="105.397914"><ele>300.8368</ele><time>2025-12-28T02:01:51.000Z</time></trkpt>
        <trkpt lat="29.134012" lon="105.397862"><ele>300.4468</ele><time>2025-12-28T02:01:52.000Z</time></trkpt>
        <trkpt lat="29.133971" lon="105.397812"><ele>300.0612</ele><time>2025-12-28T02:01:53.000Z</time></trkpt>
        <trkpt lat="29.133931" lon="105.39776"><ele>299.6301</ele><time>2025-12-28T02:01:54.000Z</time></trkpt>
        <trkpt lat="29.13389" lon="105.397705"><ele>299.23492</ele><time>2025-12-28T02:01:55.000Z</time></trkpt>
        <trkpt lat="29.133842" lon="105.397652"><ele>298.86853</ele><time>2025-12-28T02:01:56.000Z</time></trkpt>
        <trkpt lat="29.133788" lon="105.397598"><ele>298.5157</ele><time>2025-12-28T02:01:57.000Z</time></trkpt>
        <trkpt lat="29.133728" lon="105.397543"><ele>298.15802</ele><time>2025-12-28T02:01:58.000Z</time></trkpt>
        <trkpt lat="29.13366" lon="105.397488"><ele>297.78265</ele><time>2025-12-28T02:01:59.000Z</time></trkpt>
        <trkpt lat="29.13359" lon="105.397429"><ele>297.41595</ele><time>2025-12-28T02:02:00.000Z</time></trkpt>
        <trkpt lat="29.133514" lon="105.397366"><ele>297.00342</ele><time>2025-12-28T02:02:01.000Z</time></trkpt>
        <trkpt lat="29.133435" lon="105.397301"><ele>296.61597</ele><time>2025-12-28T02:02:02.000Z</time></trkpt>
        <trkpt lat="29.133352" lon="105.397234"><ele>296.08688</ele><time>2025-12-28T02:02:03.000Z</time></trkpt>
        <trkpt lat="29.133267" lon="105.397166"><ele>295.46652</ele><time>2025-12-28T02:02:04.000Z</time></trkpt>
        <trkpt lat="29.13318" lon="105.397096"><ele>294.655</ele><time>2025-12-28T02:02:05.000Z</time></trkpt>
        <trkpt lat="29.133091" lon="105.397026"><ele>293.78528</ele><time>2025-12-28T02:02:06.000Z</time></trkpt>
        <trkpt lat="29.133002" lon="105.396953"><ele>292.89648</ele><time>2025-12-28T02:02:07.000Z</time></trkpt>
        <trkpt lat="29.132913" lon="105.396878"><ele>292.02066</ele><time>2025-12-28T02:02:08.000Z</time></trkpt>
        <trkpt lat="29.132826" lon="105.396802"><ele>291.13986</ele><time>2025-12-28T02:02:09.000Z</time></trkpt>
        <trkpt lat="29.132739" lon="105.396723"><ele>290.2543</ele><time>2025-12-28T02:02:10.000Z</time></trkpt>
        <trkpt lat="29.132652" lon="105.396644"><ele>289.3303</ele><time>2025-12-28T02:02:11.000Z</time></trkpt>
        <trkpt lat="29.132568" lon="105.396566"><ele>288.33896</ele><time>2025-12-28T02:02:12.000Z</time></trkpt>
        <trkpt lat="29.132488" lon="105.39649"><ele>287.3713</ele><time>2025-12-28T02:02:13.000Z</time></trkpt>
        <trkpt lat="29.132413" lon="105.396418"><ele>286.45682</ele><time>2025-12-28T02:02:14.000Z</time></trkpt>
        <trkpt lat="29.132357" lon="105.396346"><ele>285.56604</ele><time>2025-12-28T02:02:15.000Z</time></trkpt>
        <trkpt lat="29.13232" lon="105.396277"><ele>284.77957</ele><time>2025-12-28T02:02:16.000Z</time></trkpt>
        <trkpt lat="29.132297" lon="105.39621"><ele>284.08444</ele><time>2025-12-28T02:02:17.000Z</time></trkpt>
        <trkpt lat="29.132295" lon="105.396155"><ele>283.4576</ele><time>2025-12-28T02:02:18.000Z</time></trkpt>
        <trkpt lat="29.132313" lon="105.396103"><ele>282.9212</ele><time>2025-12-28T02:02:19.000Z</time></trkpt>
        <trkpt lat="29.132349" lon="105.396057"><ele>282.43866</ele><time>2025-12-28T02:02:20.000Z</time></trkpt>
        <trkpt lat="29.1324" lon="105.396016"><ele>282.01047</ele><time>2025-12-28T02:02:21.000Z</time></trkpt>
        <trkpt lat="29.132468" lon="105.39598"><ele>281.6807</ele><time>2025-12-28T02:02:22.000Z</time></trkpt>
        <trkpt lat="29.132548" lon="105.395947"><ele>281.41754</ele><time>2025-12-28T02:02:23.000Z</time></trkpt>
        <trkpt lat="29.132636" lon="105.395915"><ele>282.12912</ele><time>2025-12-28T02:02:24.000Z</time></trkpt>
        <trkpt lat="29.132733" lon="105.395889"><ele>282.6751</ele><time>2025-12-28T02:02:25.000Z</time></trkpt>
        <trkpt lat="29.132831" lon="105.395867"><ele>283.14792</ele><time>2025-12-28T02:02:26.000Z</time></trkpt>
        <trkpt lat="29.132931" lon="105.395845"><ele>283.50128</ele><time>2025-12-28T02:02:27.000Z</time></trkpt>
        <trkpt lat="29.13303" lon="105.395816"><ele>283.73303</ele><time>2025-12-28T02:02:28.000Z</time></trkpt>
        <trkpt lat="29.133125" lon="105.395771"><ele>283.83258</ele><time>2025-12-28T02:02:29.000Z</time></trkpt>
        <trkpt lat="29.133209" lon="105.395713"><ele>283.8418</ele><time>2025-12-28T02:02:30.000Z</time></trkpt>
        <trkpt lat="29.133282" lon="105.395639"><ele>283.81445</ele><time>2025-12-28T02:02:31.000Z</time></trkpt>
        <trkpt lat="29.133345" lon="105.395553"><ele>283.80078</ele><time>2025-12-28T02:02:32.000Z</time></trkpt>
        <trkpt lat="29.133395" lon="105.39545"><ele>283.73926</ele><time>2025-12-28T02:02:33.000Z</time></trkpt>
        <trkpt lat="29.133432" lon="105.395339"><ele>283.58838</ele><time>2025-12-28T02:02:34.000Z</time></trkpt>
        <trkpt lat="29.13346" lon="105.395222"><ele>283.35983</ele><time>2025-12-28T02:02:35.000Z</time></trkpt>
        <trkpt lat="29.133479" lon="105.395101"><ele>282.9973</ele><time>2025-12-28T02:02:36.000Z</time></trkpt>
        <trkpt lat="29.133492" lon="105.394978"><ele>282.54498</ele><time>2025-12-28T02:02:37.000Z</time></trkpt>
        <trkpt lat="29.133498" lon="105.394852"><ele>282.07166</ele><time>2025-12-28T02:02:38.000Z</time></trkpt>
        <trkpt lat="29.133499" lon="105.394725"><ele>281.57254</ele><time>2025-12-28T02:02:39.000Z</time></trkpt>
        <trkpt lat="29.133496" lon="105.394599"><ele>281.0741</ele><time>2025-12-28T02:02:40.000Z</time></trkpt>
        <trkpt lat="29.133491" lon="105.394475"><ele>280.64493</ele><time>2025-12-28T02:02:41.000Z</time></trkpt>
        <trkpt lat="29.133484" lon="105.394356"><ele>280.27762</ele><time>2025-12-28T02:02:42.000Z</time></trkpt>
        <trkpt lat="29.133475" lon="105.394244"><ele>279.97992</ele><time>2025-12-28T02:02:43.000Z</time></trkpt>
        <trkpt lat="29.133467" lon="105.394141"><ele>279.71735</ele><time>2025-12-28T02:02:44.000Z</time></trkpt>
        <trkpt lat="29.133451" lon="105.394042"><ele>279.52188</ele><time>2025-12-28T02:02:45.000Z</time></trkpt>
        <trkpt lat="29.133426" lon="105.393948"><ele>279.37674</ele><time>2025-12-28T02:02:46.000Z</time></trkpt>
        <trkpt lat="29.133377" lon="105.393873"><ele>279.33646</ele><time>2025-12-28T02:02:47.000Z</time></trkpt>
        <trkpt lat="29.133315" lon="105.393809"><ele>279.34726</ele><time>2025-12-28T02:02:48.000Z</time></trkpt>
        <trkpt lat="29.133242" lon="105.393753"><ele>279.39542</ele><time>2025-12-28T02:02:49.000Z</time></trkpt>
        <trkpt lat="29.133156" lon="105.393704"><ele>279.3731</ele><time>2025-12-28T02:02:50.000Z</time></trkpt>
        <trkpt lat="29.133059" lon="105.393662"><ele>279.2775</ele><time>2025-12-28T02:02:51.000Z</time></trkpt>
        <trkpt lat="29.132953" lon="105.393626"><ele>279.23413</ele><time>2025-12-28T02:02:52.000Z</time></trkpt>
        <trkpt lat="29.132839" lon="105.393593"><ele>279.40387</ele><time>2025-12-28T02:02:53.000Z</time></trkpt>
        <trkpt lat="29.132724" lon="105.393563"><ele>279.80856</ele><time>2025-12-28T02:02:54.000Z</time></trkpt>
        <trkpt lat="29.132614" lon="105.393527"><ele>280.41953</ele><time>2025-12-28T02:02:55.000Z</time></trkpt>
        <trkpt lat="29.132512" lon="105.393489"><ele>281.08768</ele><time>2025-12-28T02:02:56.000Z</time></trkpt>
        <trkpt lat="29.13242" lon="105.393446"><ele>281.76285</ele><time>2025-12-28T02:02:57.000Z</time></trkpt>
        <trkpt lat="29.132336" lon="105.393399"><ele>282.3787</ele><time>2025-12-28T02:02:58.000Z</time></trkpt>
        <trkpt lat="29.132258" lon="105.393345"><ele>282.89822</ele><time>2025-12-28T02:02:59.000Z</time></trkpt>
        <trkpt lat="29.132184" lon="105.393284"><ele>283.28888</ele><time>2025-12-28T02:03:00.000Z</time></trkpt>
        <trkpt lat="29.132111" lon="105.393214"><ele>283.55627</ele><time>2025-12-28T02:03:01.000Z</time></trkpt>
        <trkpt lat="29.132038" lon="105.393136"><ele>283.66388</ele><time>2025-12-28T02:03:02.000Z</time></trkpt>
        <trkpt lat="29.131962" lon="105.393053"><ele>283.66776</ele><time>2025-12-28T02:03:03.000Z</time></trkpt>
        <trkpt lat="29.131885" lon="105.392961"><ele>283.67685</ele><time>2025-12-28T02:03:04.000Z</time></trkpt>
        <trkpt lat="29.131806" lon="105.392863"><ele>283.9237</ele><time>2025-12-28T02:03:05.000Z</time></trkpt>
        <trkpt lat="29.131725" lon="105.392761"><ele>284.44708</ele><time>2025-12-28T02:03:06.000Z</time></trkpt>
        <trkpt lat="29.131644" lon="105.392655"><ele>285.13168</ele><time>2025-12-28T02:03:07.000Z</time></trkpt>
        <trkpt lat="29.131562" lon="105.392548"><ele>285.8816</ele><time>2025-12-28T02:03:08.000Z</time></trkpt>
        <trkpt lat="29.131481" lon="105.392441"><ele>286.62668</ele><time>2025-12-28T02:03:09.000Z</time></trkpt>
        <trkpt lat="29.131402" lon="105.392336"><ele>287.23895</ele><time>2025-12-28T02:03:10.000Z</time></trkpt>
        <trkpt lat="29.131325" lon="105.392234"><ele>287.6267</ele><time>2025-12-28T02:03:11.000Z</time></trkpt>
        <trkpt lat="29.13125" lon="105.392133"><ele>287.87112</ele><time>2025-12-28T02:03:12.000Z</time></trkpt>
        <trkpt lat="29.131178" lon="105.392033"><ele>287.93713</ele><time>2025-12-28T02:03:13.000Z</time></trkpt>
        <trkpt lat="29.131111" lon="105.391935"><ele>287.75375</ele><time>2025-12-28T02:03:14.000Z</time></trkpt>
        <trkpt lat="29.13105" lon="105.391837"><ele>287.49103</ele><time>2025-12-28T02:03:15.000Z</time></trkpt>
        <trkpt lat="29.130999" lon="105.391738"><ele>287.24738</ele><time>2025-12-28T02:03:16.000Z</time></trkpt>
        <trkpt lat="29.13096" lon="105.39164"><ele>286.95047</ele><time>2025-12-28T02:03:17.000Z</time></trkpt>
        <trkpt lat="29.130933" lon="105.391541"><ele>286.67358</ele><time>2025-12-28T02:03:18.000Z</time></trkpt>
        <trkpt lat="29.130922" lon="105.391444"><ele>286.39383</ele><time>2025-12-28T02:03:19.000Z</time></trkpt>
        <trkpt lat="29.130927" lon="105.391346"><ele>286.11612</ele><time>2025-12-28T02:03:20.000Z</time></trkpt>
        <trkpt lat="29.130948" lon="105.391249"><ele>285.90543</ele><time>2025-12-28T02:03:21.000Z</time></trkpt>
        <trkpt lat="29.130981" lon="105.39115"><ele>285.63412</ele><time>2025-12-28T02:03:22.000Z</time></trkpt>
        <trkpt lat="29.131024" lon="105.391048"><ele>285.46335</ele><time>2025-12-28T02:03:23.000Z</time></trkpt>
        <trkpt lat="29.131074" lon="105.390943"><ele>285.36435</ele><time>2025-12-28T02:03:24.000Z</time></trkpt>
        <trkpt lat="29.131129" lon="105.390835"><ele>285.3122</ele><time>2025-12-28T02:03:25.000Z</time></trkpt>
        <trkpt lat="29.131187" lon="105.390727"><ele>285.26288</ele><time>2025-12-28T02:03:26.000Z</time></trkpt>
        <trkpt lat="29.131244" lon="105.390619"><ele>285.2383</ele><time>2025-12-28T02:03:27.000Z</time></trkpt>
        <trkpt lat="29.131296" lon="105.390512"><ele>285.23904</ele><time>2025-12-28T02:03:28.000Z</time></trkpt>
        <trkpt lat="29.131351" lon="105.39041"><ele>285.28247</ele><time>2025-12-28T02:03:29.000Z</time></trkpt>
        <trkpt lat="29.131389" lon="105.39031"><ele>285.29547</ele><time>2025-12-28T02:03:30.000Z</time></trkpt>
        <trkpt lat="29.131405" lon="105.390215"><ele>285.29926</ele><time>2025-12-28T02:03:31.000Z</time></trkpt>
        <trkpt lat="29.131405" lon="105.390127"><ele>285.31393</ele><time>2025-12-28T02:03:32.000Z</time></trkpt>
        <trkpt lat="29.131389" lon="105.390046"><ele>285.39218</ele><time>2025-12-28T02:03:33.000Z</time></trkpt>
        <trkpt lat="29.13136" lon="105.389974"><ele>285.52658</ele><time>2025-12-28T02:03:34.000Z</time></trkpt>
        <trkpt lat="29.131315" lon="105.389914"><ele>285.7053</ele><time>2025-12-28T02:03:35.000Z</time></trkpt>
        <trkpt lat="29.131255" lon="105.389871"><ele>285.88892</ele><time>2025-12-28T02:03:36.000Z</time></trkpt>
        <trkpt lat="29.131182" lon="105.389847"><ele>286.1271</ele><time>2025-12-28T02:03:37.000Z</time></trkpt>
        <trkpt lat="29.131101" lon="105.389851"><ele>286.5003</ele><time>2025-12-28T02:03:38.000Z</time></trkpt>
        <trkpt lat="29.131011" lon="105.389877"><ele>286.96985</ele><time>2025-12-28T02:03:39.000Z</time></trkpt>
        <trkpt lat="29.130918" lon="105.389927"><ele>287.4873</ele><time>2025-12-28T02:03:40.000Z</time></trkpt>
        <trkpt lat="29.130826" lon="105.389999"><ele>288.06644</ele><time>2025-12-28T02:03:41.000Z</time></trkpt>
        <trkpt lat="29.130739" lon="105.390088"><ele>288.58734</ele><time>2025-12-28T02:03:42.000Z</time></trkpt>
        <trkpt lat="29.130656" lon="105.390189"><ele>289.0669</ele><time>2025-12-28T02:03:43.000Z</time></trkpt>
        <trkpt lat="29.130577" lon="105.390294"><ele>289.53952</ele><time>2025-12-28T02:03:44.000Z</time></trkpt>
        <trkpt lat="29.130501" lon="105.390396"><ele>289.93607</ele><time>2025-12-28T02:03:45.000Z</time></trkpt>
        <trkpt lat="29.130426" lon="105.390489"><ele>290.3298</ele><time>2025-12-28T02:03:46.000Z</time></trkpt>
        <trkpt lat="29.13035" lon="105.390568"><ele>290.74835</ele><time>2025-12-28T02:03:47.000Z</time></trkpt>
        <trkpt lat="29.130272" lon="105.390628"><ele>291.1703</ele><time>2025-12-28T02:03:48.000Z</time></trkpt>
        <trkpt lat="29.130192" lon="105.390666"><ele>291.65652</ele><time>2025-12-28T02:03:49.000Z</time></trkpt>
        <trkpt lat="29.13011" lon="105.390684"><ele>292.15607</ele><time>2025-12-28T02:03:50.000Z</time></trkpt>
        <trkpt lat="29.130024" lon="105.390684"><ele>292.60968</ele><time>2025-12-28T02:03:51.000Z</time></trkpt>
        <trkpt lat="29.129937" lon="105.390665"><ele>293.00848</ele><time>2025-12-28T02:03:52.000Z</time></trkpt>
        <trkpt lat="29.129854" lon="105.390627"><ele>293.31732</ele><time>2025-12-28T02:03:53.000Z</time></trkpt>
        <trkpt lat="29.129776" lon="105.390574"><ele>293.5635</ele><time>2025-12-28T02:03:54.000Z</time></trkpt>
        <trkpt lat="29.129709" lon="105.390506"><ele>293.65927</ele><time>2025-12-28T02:03:55.000Z</time></trkpt>
        <trkpt lat="29.129646" lon="105.390424"><ele>293.57452</ele><time>2025-12-28T02:03:56.000Z</time></trkpt>
        <trkpt lat="29.129586" lon="105.390331"><ele>293.29123</ele><time>2025-12-28T02:03:57.000Z</time></trkpt>
        <trkpt lat="29.129523" lon="105.390231"><ele>293.03482</ele><time>2025-12-28T02:03:58.000Z</time></trkpt>
        <trkpt lat="29.129459" lon="105.390127"><ele>292.90555</ele><time>2025-12-28T02:03:59.000Z</time></trkpt>
        <trkpt lat="29.129392" lon="105.390023"><ele>292.90482</ele><time>2025-12-28T02:04:00.000Z</time></trkpt>
        <trkpt lat="29.129323" lon="105.389924"><ele>292.95435</ele><time>2025-12-28T02:04:01.000Z</time></trkpt>
        <trkpt lat="29.129255" lon="105.389832"><ele>293.0241</ele><time>2025-12-28T02:04:02.000Z</time></trkpt>
        <trkpt lat="29.129203" lon="105.389738"><ele>293.0647</ele><time>2025-12-28T02:04:03.000Z</time></trkpt>
        <trkpt lat="29.129158" lon="105.389645"><ele>293.08853</ele><time>2025-12-28T02:04:04.000Z</time></trkpt>
        <trkpt lat="29.129125" lon="105.389553"><ele>293.09103</ele><time>2025-12-28T02:04:05.000Z</time></trkpt>
        <trkpt lat="29.1291" lon="105.389459"><ele>293.10504</ele><time>2025-12-28T02:04:06.000Z</time></trkpt>
        <trkpt lat="29.129081" lon="105.389358"><ele>293.11588</ele><time>2025-12-28T02:04:07.000Z</time></trkpt>
        <trkpt lat="29.129055" lon="105.389252"><ele>293.19247</ele><time>2025-12-28T02:04:08.000Z</time></trkpt>
        <trkpt lat="29.129031" lon="105.389143"><ele>293.5319</ele><time>2025-12-28T02:04:09.000Z</time></trkpt>
        <trkpt lat="29.129009" lon="105.389036"><ele>293.99332</ele><time>2025-12-28T02:04:10.000Z</time></trkpt>
        <trkpt lat="29.128988" lon="105.388933"><ele>294.61188</ele><time>2025-12-28T02:04:11.000Z</time></trkpt>
        <trkpt lat="29.128963" lon="105.388832"><ele>295.3601</ele><time>2025-12-28T02:04:12.000Z</time></trkpt>
        <trkpt lat="29.128934" lon="105.388735"><ele>296.1874</ele><time>2025-12-28T02:04:13.000Z</time></trkpt>
        <trkpt lat="29.1289" lon="105.388639"><ele>297.05203</ele><time>2025-12-28T02:04:14.000Z</time></trkpt>
        <trkpt lat="29.12886" lon="105.388544"><ele>297.87335</ele><time>2025-12-28T02:04:15.000Z</time></trkpt>
        <trkpt lat="29.128815" lon="105.38845"><ele>298.6385</ele><time>2025-12-28T02:04:16.000Z</time></trkpt>
        <trkpt lat="29.128763" lon="105.388357"><ele>299.4029</ele><time>2025-12-28T02:04:17.000Z</time></trkpt>
        <trkpt lat="29.128706" lon="105.388265"><ele>300.14267</ele><time>2025-12-28T02:04:18.000Z</time></trkpt>
        <trkpt lat="29.128644" lon="105.388173"><ele>300.78607</ele><time>2025-12-28T02:04:19.000Z</time></trkpt>
        <trkpt lat="29.128589" lon="105.388071"><ele>301.3286</ele><time>2025-12-28T02:04:20.000Z</time></trkpt>
        <trkpt lat="29.128533" lon="105.387965"><ele>301.78418</ele><time>2025-12-28T02:04:21.000Z</time></trkpt>
        <trkpt lat="29.128472" lon="105.387855"><ele>302.20026</ele><time>2025-12-28T02:04:22.000Z</time></trkpt>
        <trkpt lat="29.128405" lon="105.387744"><ele>302.62296</ele><time>2025-12-28T02:04:23.000Z</time></trkpt>
        <trkpt lat="29.128334" lon="105.387636"><ele>303.02756</ele><time>2025-12-28T02:04:24.000Z</time></trkpt>
        <trkpt lat="29.12826" lon="105.387529"><ele>303.4116</ele><time>2025-12-28T02:04:25.000Z</time></trkpt>
        <trkpt lat="29.128184" lon="105.387427"><ele>303.78906</ele><time>2025-12-28T02:04:26.000Z</time></trkpt>
        <trkpt lat="29.12811" lon="105.387332"><ele>304.1603</ele><time>2025-12-28T02:04:27.000Z</time></trkpt>
        <trkpt lat="29.128039" lon="105.387244"><ele>304.3898</ele><time>2025-12-28T02:04:28.000Z</time></trkpt>
        <trkpt lat="29.127961" lon="105.38717"><ele>304.44473</ele><time>2025-12-28T02:04:29.000Z</time></trkpt>
        <trkpt lat="29.127884" lon="105.387108"><ele>304.33453</ele><time>2025-12-28T02:04:30.000Z</time></trkpt>
        <trkpt lat="29.127808" lon="105.387061"><ele>304.1605</ele><time>2025-12-28T02:04:31.000Z</time></trkpt>
        <trkpt lat="29.12773" lon="105.387028"><ele>303.87198</ele><time>2025-12-28T02:04:32.000Z</time></trkpt>
        <trkpt lat="29.127651" lon="105.387008"><ele>303.33105</ele><time>2025-12-28T02:04:33.000Z</time></trkpt>
        <trkpt lat="29.127571" lon="105.387007"><ele>302.50992</ele><time>2025-12-28T02:04:34.000Z</time></trkpt>
        <trkpt lat="29.127493" lon="105.387017"><ele>301.6315</ele><time>2025-12-28T02:04:35.000Z</time></trkpt>
        <trkpt lat="29.127416" lon="105.38704"><ele>300.6493</ele><time>2025-12-28T02:04:36.000Z</time></trkpt>
        <trkpt lat="29.127345" lon="105.38708"><ele>299.46985</ele><time>2025-12-28T02:04:37.000Z</time></trkpt>
        <trkpt lat="29.127279" lon="105.387135"><ele>298.2486</ele><time>2025-12-28T02:04:38.000Z</time></trkpt>
        <trkpt lat="29.127218" lon="105.387202"><ele>296.94595</ele><time>2025-12-28T02:04:39.000Z</time></trkpt>
        <trkpt lat="29.127162" lon="105.387278"><ele>295.53903</ele><time>2025-12-28T02:04:40.000Z</time></trkpt>
        <trkpt lat="29.127108" lon="105.387358"><ele>294.09808</ele><time>2025-12-28T02:04:41.000Z</time></trkpt>
        <trkpt lat="29.127056" lon="105.387435"><ele>292.69833</ele><time>2025-12-28T02:04:42.000Z</time></trkpt>
        <trkpt lat="29.127004" lon="105.387493"><ele>291.43375</ele><time>2025-12-28T02:04:43.000Z</time></trkpt>
        <trkpt lat="29.126956" lon="105.387528"><ele>290.23605</ele><time>2025-12-28T02:04:44.000Z</time></trkpt>
        <trkpt lat="29.12688" lon="105.387553"><ele>288.16708</ele><time>2025-12-28T02:04:46.000Z</time></trkpt>
        <trkpt lat="29.126836" lon="105.387514"><ele>286.26074</ele><time>2025-12-28T02:04:48.000Z</time></trkpt>
        <trkpt lat="29.126833" lon="105.387442"><ele>285.48367</ele><time>2025-12-28T02:04:49.000Z</time></trkpt>
        <trkpt lat="29.126824" lon="105.387363"><ele>284.77454</ele><time>2025-12-28T02:04:50.000Z</time></trkpt>
        <trkpt lat="29.126811" lon="105.387279"><ele>284.02615</ele><time>2025-12-28T02:04:51.000Z</time></trkpt>
        <trkpt lat="29.126789" lon="105.387188"><ele>283.31757</ele><time>2025-12-28T02:04:52.000Z</time></trkpt>
        <trkpt lat="29.126759" lon="105.387093"><ele>282.68643</ele><time>2025-12-28T02:04:53.000Z</time></trkpt>
        <trkpt lat="29.126725" lon="105.386997"><ele>282.0738</ele><time>2025-12-28T02:04:54.000Z</time></trkpt>
        <trkpt lat="29.126687" lon="105.386902"><ele>281.45245</ele><time>2025-12-28T02:04:55.000Z</time></trkpt>
        <trkpt lat="29.126645" lon="105.386806"><ele>280.87308</ele><time>2025-12-28T02:04:56.000Z</time></trkpt>
        <trkpt lat="29.126601" lon="105.386716"><ele>280.32382</ele><time>2025-12-28T02:04:57.000Z</time></trkpt>
        <trkpt lat="29.126558" lon="105.386636"><ele>279.86166</ele><time>2025-12-28T02:04:58.000Z</time></trkpt>
        <trkpt lat="29.126483" lon="105.386518"><ele>279.35208</ele><time>2025-12-28T02:05:00.000Z</time></trkpt>
        <trkpt lat="29.126457" lon="105.386464"><ele>279.67203</ele><time>2025-12-28T02:05:01.000Z</time></trkpt>
        <trkpt lat="29.126447" lon="105.386404"><ele>280.12115</ele><time>2025-12-28T02:05:02.000Z</time></trkpt>
        <trkpt lat="29.126452" lon="105.386337"><ele>280.6545</ele><time>2025-12-28T02:05:03.000Z</time></trkpt>
        <trkpt lat="29.126471" lon="105.386264"><ele>281.16013</ele><time>2025-12-28T02:05:04.000Z</time></trkpt>
        <trkpt lat="29.126501" lon="105.386188"><ele>281.73367</ele><time>2025-12-28T02:05:05.000Z</time></trkpt>
        <trkpt lat="29.12654" lon="105.386109"><ele>282.38297</ele><time>2025-12-28T02:05:06.000Z</time></trkpt>
        <trkpt lat="29.126596" lon="105.386035"><ele>282.9696</ele><time>2025-12-28T02:05:07.000Z</time></trkpt>
        <trkpt lat="29.126659" lon="105.385964"><ele>283.52225</ele><time>2025-12-28T02:05:08.000Z</time></trkpt>
        <trkpt lat="29.126727" lon="105.385895"><ele>283.98544</ele><time>2025-12-28T02:05:09.000Z</time></trkpt>
        <trkpt lat="29.126801" lon="105.385829"><ele>284.36664</ele><time>2025-12-28T02:05:10.000Z</time></trkpt>
        <trkpt lat="29.126879" lon="105.385767"><ele>284.67706</ele><time>2025-12-28T02:05:11.000Z</time></trkpt>
        <trkpt lat="29.126964" lon="105.385707"><ele>284.86536</ele><time>2025-12-28T02:05:12.000Z</time></trkpt>
        <trkpt lat="29.127054" lon="105.385649"><ele>284.9396</ele><time>2025-12-28T02:05:13.000Z</time></trkpt>
        <trkpt lat="29.127149" lon="105.385591"><ele>284.92032</ele><time>2025-12-28T02:05:14.000Z</time></trkpt>
        <trkpt lat="29.127247" lon="105.385533"><ele>284.8371</ele><time>2025-12-28T02:05:15.000Z</time></trkpt>
        <trkpt lat="29.127348" lon="105.385475"><ele>284.6634</ele><time>2025-12-28T02:05:16.000Z</time></trkpt>
        <trkpt lat="29.12745" lon="105.385417"><ele>284.44904</ele><time>2025-12-28T02:05:17.000Z</time></trkpt>
        <trkpt lat="29.127554" lon="105.385359"><ele>284.19937</ele><time>2025-12-28T02:05:18.000Z</time></trkpt>
        <trkpt lat="29.127658" lon="105.385301"><ele>283.883</ele><time>2025-12-28T02:05:19.000Z</time></trkpt>
        <trkpt lat="29.127763" lon="105.385243"><ele>283.54926</ele><time>2025-12-28T02:05:20.000Z</time></trkpt>
        <trkpt lat="29.127868" lon="105.385184"><ele>283.186</ele><time>2025-12-28T02:05:21.000Z</time></trkpt>
        <trkpt lat="29.127974" lon="105.385124"><ele>282.81738</ele><time>2025-12-28T02:05:22.000Z</time></trkpt>
        <trkpt lat="29.128081" lon="105.385062"><ele>282.46198</ele><time>2025-12-28T02:05:23.000Z</time></trkpt>
        <trkpt lat="29.128188" lon="105.385"><ele>282.11334</ele><time>2025-12-28T02:05:24.000Z</time></trkpt>
        <trkpt lat="29.128295" lon="105.384935"><ele>281.76627</ele><time>2025-12-28T02:05:25.000Z</time></trkpt>
        <trkpt lat="29.128402" lon="105.384869"><ele>281.43524</ele><time>2025-12-28T02:05:26.000Z</time></trkpt>
        <trkpt lat="29.128508" lon="105.384802"><ele>281.03818</ele><time>2025-12-28T02:05:27.000Z</time></trkpt>
        <trkpt lat="29.128611" lon="105.38473"><ele>280.66064</ele><time>2025-12-28T02:05:28.000Z</time></trkpt>
        <trkpt lat="29.128712" lon="105.384654"><ele>280.29346</ele><time>2025-12-28T02:05:29.000Z</time></trkpt>
        <trkpt lat="29.128807" lon="105.384574"><ele>279.93295</ele><time>2025-12-28T02:05:30.000Z</time></trkpt>
        <trkpt lat="29.128896" lon="105.384491"><ele>279.5118</ele><time>2025-12-28T02:05:31.000Z</time></trkpt>
        <trkpt lat="29.128978" lon="105.384404"><ele>279.06073</ele><time>2025-12-28T02:05:32.000Z</time></trkpt>
        <trkpt lat="29.129056" lon="105.384312"><ele>278.64462</ele><time>2025-12-28T02:05:33.000Z</time></trkpt>
        <trkpt lat="29.129129" lon="105.384216"><ele>278.33224</ele><time>2025-12-28T02:05:34.000Z</time></trkpt>
        <trkpt lat="29.129201" lon="105.384113"><ele>278.2727</ele><time>2025-12-28T02:05:35.000Z</time></trkpt>
        <trkpt lat="29.12927" lon="105.384006"><ele>278.40976</ele><time>2025-12-28T02:05:36.000Z</time></trkpt>
        <trkpt lat="29.129338" lon="105.383894"><ele>278.74625</ele><time>2025-12-28T02:05:37.000Z</time></trkpt>
        <trkpt lat="29.129406" lon="105.38378"><ele>279.292</ele><time>2025-12-28T02:05:38.000Z</time></trkpt>
        <trkpt lat="29.129474" lon="105.383665"><ele>279.97137</ele><time>2025-12-28T02:05:39.000Z</time></trkpt>
        <trkpt lat="29.129542" lon="105.383552"><ele>280.7984</ele><time>2025-12-28T02:05:40.000Z</time></trkpt>
        <trkpt lat="29.129612" lon="105.383446"><ele>281.6979</ele><time>2025-12-28T02:05:41.000Z</time></trkpt>
        <trkpt lat="29.129685" lon="105.383347"><ele>282.64746</ele><time>2025-12-28T02:05:42.000Z</time></trkpt>
        <trkpt lat="29.129763" lon="105.383256"><ele>283.62686</ele><time>2025-12-28T02:05:43.000Z</time></trkpt>
        <trkpt lat="29.129845" lon="105.383172"><ele>284.63892</ele><time>2025-12-28T02:05:44.000Z</time></trkpt>
        <trkpt lat="29.12993" lon="105.383096"><ele>285.5974</ele><time>2025-12-28T02:05:45.000Z</time></trkpt>
        <trkpt lat="29.130019" lon="105.383025"><ele>286.53528</ele><time>2025-12-28T02:05:46.000Z</time></trkpt>
        <trkpt lat="29.13011" lon="105.382958"><ele>287.40024</ele><time>2025-12-28T02:05:47.000Z</time></trkpt>
        <trkpt lat="29.130201" lon="105.382896"><ele>288.2007</ele><time>2025-12-28T02:05:48.000Z</time></trkpt>
        <trkpt lat="29.130291" lon="105.382838"><ele>288.94836</ele><time>2025-12-28T02:05:49.000Z</time></trkpt>
        <trkpt lat="29.130382" lon="105.382783"><ele>289.70422</ele><time>2025-12-28T02:05:50.000Z</time></trkpt>
        <trkpt lat="29.130474" lon="105.382728"><ele>290.46307</ele><time>2025-12-28T02:05:51.000Z</time></trkpt>
        <trkpt lat="29.130568" lon="105.382673"><ele>291.1546</ele><time>2025-12-28T02:05:52.000Z</time></trkpt>
        <trkpt lat="29.130663" lon="105.382617"><ele>291.78946</ele><time>2025-12-28T02:05:53.000Z</time></trkpt>
        <trkpt lat="29.130761" lon="105.382559"><ele>292.3897</ele><time>2025-12-28T02:05:54.000Z</time></trkpt>
        <trkpt lat="29.130861" lon="105.382499"><ele>292.919</ele><time>2025-12-28T02:05:55.000Z</time></trkpt>
        <trkpt lat="29.130964" lon="105.382437"><ele>293.44397</ele><time>2025-12-28T02:05:56.000Z</time></trkpt>
        <trkpt lat="29.131068" lon="105.382374"><ele>293.99377</ele><time>2025-12-28T02:05:57.000Z</time></trkpt>
        <trkpt lat="29.131172" lon="105.382312"><ele>294.61624</ele><time>2025-12-28T02:05:58.000Z</time></trkpt>
        <trkpt lat="29.131276" lon="105.382253"><ele>295.29727</ele><time>2025-12-28T02:05:59.000Z</time></trkpt>
        <trkpt lat="29.131379" lon="105.3822"><ele>296.01715</ele><time>2025-12-28T02:06:00.000Z</time></trkpt>
        <trkpt lat="29.131482" lon="105.382153"><ele>296.68372</ele><time>2025-12-28T02:06:01.000Z</time></trkpt>
        <trkpt lat="29.131585" lon="105.382111"><ele>297.28247</ele><time>2025-12-28T02:06:02.000Z</time></trkpt>
        <trkpt lat="29.131686" lon="105.382069"><ele>297.81955</ele><time>2025-12-28T02:06:03.000Z</time></trkpt>
        <trkpt lat="29.131785" lon="105.382025"><ele>298.31226</ele><time>2025-12-28T02:06:04.000Z</time></trkpt>
        <trkpt lat="29.13188" lon="105.381976"><ele>298.77347</ele><time>2025-12-28T02:06:05.000Z</time></trkpt>
        <trkpt lat="29.131971" lon="105.381926"><ele>299.25372</ele><time>2025-12-28T02:06:06.000Z</time></trkpt>
        <trkpt lat="29.132056" lon="105.381875"><ele>299.71872</ele><time>2025-12-28T02:06:07.000Z</time></trkpt>
        <trkpt lat="29.132137" lon="105.381823"><ele>300.1354</ele><time>2025-12-28T02:06:08.000Z</time></trkpt>
        <trkpt lat="29.132214" lon="105.381771"><ele>300.49338</ele><time>2025-12-28T02:06:09.000Z</time></trkpt>
        <trkpt lat="29.132287" lon="105.381716"><ele>300.80075</ele><time>2025-12-28T02:06:10.000Z</time></trkpt>
        <trkpt lat="29.132356" lon="105.381659"><ele>301.1036</ele><time>2025-12-28T02:06:11.000Z</time></trkpt>
        <trkpt lat="29.132421" lon="105.381597"><ele>301.3668</ele><time>2025-12-28T02:06:12.000Z</time></trkpt>
        <trkpt lat="29.132484" lon="105.381528"><ele>301.62015</ele><time>2025-12-28T02:06:13.000Z</time></trkpt>
        <trkpt lat="29.132543" lon="105.381452"><ele>301.8301</ele><time>2025-12-28T02:06:14.000Z</time></trkpt>
        <trkpt lat="29.132598" lon="105.381369"><ele>302.00528</ele><time>2025-12-28T02:06:15.000Z</time></trkpt>
        <trkpt lat="29.132648" lon="105.381277"><ele>302.1614</ele><time>2025-12-28T02:06:16.000Z</time></trkpt>
        <trkpt lat="29.132694" lon="105.381179"><ele>302.32623</ele><time>2025-12-28T02:06:17.000Z</time></trkpt>
        <trkpt lat="29.132735" lon="105.381077"><ele>302.50153</ele><time>2025-12-28T02:06:18.000Z</time></trkpt>
        <trkpt lat="29.132772" lon="105.380971"><ele>302.6615</ele><time>2025-12-28T02:06:19.000Z</time></trkpt>
        <trkpt lat="29.132807" lon="105.380863"><ele>302.83408</ele><time>2025-12-28T02:06:20.000Z</time></trkpt>
        <trkpt lat="29.132838" lon="105.380756"><ele>303.02692</ele><time>2025-12-28T02:06:21.000Z</time></trkpt>
        <trkpt lat="29.132868" lon="105.380648"><ele>303.2168</ele><time>2025-12-28T02:06:22.000Z</time></trkpt>
        <trkpt lat="29.132897" lon="105.380539"><ele>303.3781</ele><time>2025-12-28T02:06:23.000Z</time></trkpt>
        <trkpt lat="29.132926" lon="105.380429"><ele>303.53574</ele><time>2025-12-28T02:06:24.000Z</time></trkpt>
        <trkpt lat="29.132956" lon="105.380319"><ele>303.67993</ele><time>2025-12-28T02:06:25.000Z</time></trkpt>
        <trkpt lat="29.132988" lon="105.380208"><ele>303.8187</ele><time>2025-12-28T02:06:26.000Z</time></trkpt>
        <trkpt lat="29.133022" lon="105.380097"><ele>303.95868</ele><time>2025-12-28T02:06:27.000Z</time></trkpt>
        <trkpt lat="29.133059" lon="105.379987"><ele>304.0768</ele><time>2025-12-28T02:06:28.000Z</time></trkpt>
        <trkpt lat="29.133099" lon="105.379878"><ele>304.16037</ele><time>2025-12-28T02:06:29.000Z</time></trkpt>
        <trkpt lat="29.133142" lon="105.379772"><ele>304.23203</ele><time>2025-12-28T02:06:30.000Z</time></trkpt>
        <trkpt lat="29.133189" lon="105.379668"><ele>304.2713</ele><time>2025-12-28T02:06:31.000Z</time></trkpt>
        <trkpt lat="29.133241" lon="105.37957"><ele>304.312</ele><time>2025-12-28T02:06:32.000Z</time></trkpt>
        <trkpt lat="29.133298" lon="105.379479"><ele>304.30774</ele><time>2025-12-28T02:06:33.000Z</time></trkpt>
        <trkpt lat="29.133361" lon="105.379396"><ele>304.2959</ele><time>2025-12-28T02:06:34.000Z</time></trkpt>
        <trkpt lat="29.133431" lon="105.37932"><ele>304.21622</ele><time>2025-12-28T02:06:35.000Z</time></trkpt>
        <trkpt lat="29.133508" lon="105.379251"><ele>304.0859</ele><time>2025-12-28T02:06:36.000Z</time></trkpt>
        <trkpt lat="29.133593" lon="105.379189"><ele>303.90814</ele><time>2025-12-28T02:06:37.000Z</time></trkpt>
        <trkpt lat="29.133684" lon="105.379131"><ele>303.66064</ele><time>2025-12-28T02:06:38.000Z</time></trkpt>
        <trkpt lat="29.133781" lon="105.379076"><ele>303.3517</ele><time>2025-12-28T02:06:39.000Z</time></trkpt>
        <trkpt lat="29.133882" lon="105.379022"><ele>303.03168</ele><time>2025-12-28T02:06:40.000Z</time></trkpt>
        <trkpt lat="29.133987" lon="105.378966"><ele>302.71106</ele><time>2025-12-28T02:06:41.000Z</time></trkpt>
        <trkpt lat="29.134094" lon="105.378903"><ele>302.38483</ele><time>2025-12-28T02:06:42.000Z</time></trkpt>
        <trkpt lat="29.134198" lon="105.378832"><ele>302.06097</ele><time>2025-12-28T02:06:43.000Z</time></trkpt>
        <trkpt lat="29.134296" lon="105.378754"><ele>301.7187</ele><time>2025-12-28T02:06:44.000Z</time></trkpt>
        <trkpt lat="29.13439" lon="105.378672"><ele>301.2968</ele><time>2025-12-28T02:06:45.000Z</time></trkpt>
        <trkpt lat="29.13448" lon="105.378591"><ele>300.86298</ele><time>2025-12-28T02:06:46.000Z</time></trkpt>
        <trkpt lat="29.134569" lon="105.37851"><ele>300.4096</ele><time>2025-12-28T02:06:47.000Z</time></trkpt>
        <trkpt lat="29.134658" lon="105.37843"><ele>299.9463</ele><time>2025-12-28T02:06:48.000Z</time></trkpt>
        <trkpt lat="29.134748" lon="105.37835"><ele>299.4346</ele><time>2025-12-28T02:06:49.000Z</time></trkpt>
        <trkpt lat="29.134838" lon="105.378272"><ele>298.91183</ele><time>2025-12-28T02:06:50.000Z</time></trkpt>
        <trkpt lat="29.134929" lon="105.378193"><ele>298.39264</ele><time>2025-12-28T02:06:51.000Z</time></trkpt>
        <trkpt lat="29.13502" lon="105.378115"><ele>297.86874</ele><time>2025-12-28T02:06:52.000Z</time></trkpt>
        <trkpt lat="29.135112" lon="105.378038"><ele>297.29572</ele><time>2025-12-28T02:06:53.000Z</time></trkpt>
        <trkpt lat="29.135203" lon="105.377963"><ele>296.62598</ele><time>2025-12-28T02:06:54.000Z</time></trkpt>
        <trkpt lat="29.135294" lon="105.377889"><ele>295.83948</ele><time>2025-12-28T02:06:55.000Z</time></trkpt>
        <trkpt lat="29.135381" lon="105.377822"><ele>294.90466</ele><time>2025-12-28T02:06:56.000Z</time></trkpt>
        <trkpt lat="29.135468" lon="105.377761"><ele>293.8737</ele><time>2025-12-28T02:06:57.000Z</time></trkpt>
        <trkpt lat="29.135555" lon="105.37771"><ele>292.78137</ele><time>2025-12-28T02:06:58.000Z</time></trkpt>
        <trkpt lat="29.135646" lon="105.37767"><ele>291.73245</ele><time>2025-12-28T02:06:59.000Z</time></trkpt>
        <trkpt lat="29.135739" lon="105.37764"><ele>290.8394</ele><time>2025-12-28T02:07:00.000Z</time></trkpt>
        <trkpt lat="29.135834" lon="105.377617"><ele>290.07822</ele><time>2025-12-28T02:07:01.000Z</time></trkpt>
        <trkpt lat="29.135931" lon="105.377597"><ele>289.45193</ele><time>2025-12-28T02:07:02.000Z</time></trkpt>
        <trkpt lat="29.136029" lon="105.377573"><ele>288.96793</ele><time>2025-12-28T02:07:03.000Z</time></trkpt>
        <trkpt lat="29.136124" lon="105.377539"><ele>288.5469</ele><time>2025-12-28T02:07:04.000Z</time></trkpt>
        <trkpt lat="29.136213" lon="105.377496"><ele>288.1957</ele><time>2025-12-28T02:07:05.000Z</time></trkpt>
        <trkpt lat="29.136294" lon="105.377438"><ele>287.93945</ele><time>2025-12-28T02:07:06.000Z</time></trkpt>
        <trkpt lat="29.136364" lon="105.37737"><ele>287.77078</ele><time>2025-12-28T02:07:07.000Z</time></trkpt>
        <trkpt lat="29.136422" lon="105.377288"><ele>287.71558</ele><time>2025-12-28T02:07:08.000Z</time></trkpt>
        <trkpt lat="29.136467" lon="105.377198"><ele>287.71463</ele><time>2025-12-28T02:07:09.000Z</time></trkpt>
        <trkpt lat="29.1365" lon="105.377102"><ele>287.7262</ele><time>2025-12-28T02:07:10.000Z</time></trkpt>
        <trkpt lat="29.136523" lon="105.377006"><ele>287.7143</ele><time>2025-12-28T02:07:11.000Z</time></trkpt>
        <trkpt lat="29.13654" lon="105.376909"><ele>287.70142</ele><time>2025-12-28T02:07:12.000Z</time></trkpt>
        <trkpt lat="29.136553" lon="105.376814"><ele>287.70505</ele><time>2025-12-28T02:07:13.000Z</time></trkpt>
        <trkpt lat="29.136567" lon="105.376724"><ele>287.70975</ele><time>2025-12-28T02:07:14.000Z</time></trkpt>
        <trkpt lat="29.136583" lon="105.376637"><ele>287.78137</ele><time>2025-12-28T02:07:15.000Z</time></trkpt>
        <trkpt lat="29.136603" lon="105.376556"><ele>287.88782</ele><time>2025-12-28T02:07:16.000Z</time></trkpt>
        <trkpt lat="29.136631" lon="105.376477"><ele>288.05576</ele><time>2025-12-28T02:07:17.000Z</time></trkpt>
        <trkpt lat="29.136667" lon="105.376401"><ele>288.19333</ele><time>2025-12-28T02:07:18.000Z</time></trkpt>
        <trkpt lat="29.136711" lon="105.376326"><ele>288.3071</ele><time>2025-12-28T02:07:19.000Z</time></trkpt>
        <trkpt lat="29.136762" lon="105.376249"><ele>288.3665</ele><time>2025-12-28T02:07:20.000Z</time></trkpt>
        <trkpt lat="29.136818" lon="105.376169"><ele>288.3706</ele><time>2025-12-28T02:07:21.000Z</time></trkpt>
        <trkpt lat="29.136874" lon="105.376084"><ele>288.3195</ele><time>2025-12-28T02:07:22.000Z</time></trkpt>
        <trkpt lat="29.136929" lon="105.375997"><ele>288.22638</ele><time>2025-12-28T02:07:23.000Z</time></trkpt>
        <trkpt lat="29.136978" lon="105.375908"><ele>288.1053</ele><time>2025-12-28T02:07:24.000Z</time></trkpt>
        <trkpt lat="29.13702" lon="105.375819"><ele>287.97507</ele><time>2025-12-28T02:07:25.000Z</time></trkpt>
        <trkpt lat="29.137055" lon="105.37573"><ele>287.89066</ele><time>2025-12-28T02:07:26.000Z</time></trkpt>
        <trkpt lat="29.137084" lon="105.375643"><ele>287.83337</ele><time>2025-12-28T02:07:27.000Z</time></trkpt>
        <trkpt lat="29.137108" lon="105.375559"><ele>287.8332</ele><time>2025-12-28T02:07:28.000Z</time></trkpt>
        <trkpt lat="29.137128" lon="105.37548"><ele>287.89734</ele><time>2025-12-28T02:07:29.000Z</time></trkpt>
        <trkpt lat="29.137145" lon="105.375405"><ele>287.99637</ele><time>2025-12-28T02:07:30.000Z</time></trkpt>
        <trkpt lat="29.137162" lon="105.375336"><ele>288.11682</ele><time>2025-12-28T02:07:31.000Z</time></trkpt>
        <trkpt lat="29.137179" lon="105.375273"><ele>288.302</ele><time>2025-12-28T02:07:32.000Z</time></trkpt>
        <trkpt lat="29.137198" lon="105.375214"><ele>288.49487</ele><time>2025-12-28T02:07:33.000Z</time></trkpt>
        <trkpt lat="29.137219" lon="105.375156"><ele>288.67203</ele><time>2025-12-28T02:07:34.000Z</time></trkpt>
        <trkpt lat="29.137244" lon="105.375107"><ele>288.77747</ele><time>2025-12-28T02:07:35.000Z</time></trkpt>
        <trkpt lat="29.137273" lon="105.375064"><ele>288.85794</ele><time>2025-12-28T02:07:36.000Z</time></trkpt>
        <trkpt lat="29.137303" lon="105.375026"><ele>288.93878</ele><time>2025-12-28T02:07:37.000Z</time></trkpt>
        <trkpt lat="29.137335" lon="105.37499"><ele>288.99945</ele><time>2025-12-28T02:07:38.000Z</time></trkpt>
        <trkpt lat="29.137372" lon="105.374957"><ele>289.08963</ele><time>2025-12-28T02:07:39.000Z</time></trkpt>
        <trkpt lat="29.137417" lon="105.374924"><ele>289.15833</ele><time>2025-12-28T02:07:40.000Z</time></trkpt>
        <trkpt lat="29.137468" lon="105.374891"><ele>289.20422</ele><time>2025-12-28T02:07:41.000Z</time></trkpt>
        <trkpt lat="29.137521" lon="105.374861"><ele>289.2633</ele><time>2025-12-28T02:07:42.000Z</time></trkpt>
        <trkpt lat="29.137576" lon="105.374832"><ele>289.37198</ele><time>2025-12-28T02:07:43.000Z</time></trkpt>
        <trkpt lat="29.137632" lon="105.374805"><ele>289.53525</ele><time>2025-12-28T02:07:44.000Z</time></trkpt>
        <trkpt lat="29.137689" lon="105.374778"><ele>289.6556</ele><time>2025-12-28T02:07:45.000Z</time></trkpt>
        <trkpt lat="29.137747" lon="105.374752"><ele>289.79367</ele><time>2025-12-28T02:07:46.000Z</time></trkpt>
        <trkpt lat="29.137806" lon="105.374726"><ele>289.89633</ele><time>2025-12-28T02:07:47.000Z</time></trkpt>
        <trkpt lat="29.137864" lon="105.374699"><ele>290.009</ele><time>2025-12-28T02:07:48.000Z</time></trkpt>
        <trkpt lat="29.137923" lon="105.374672"><ele>290.11084</ele><time>2025-12-28T02:07:49.000Z</time></trkpt>
        <trkpt lat="29.137984" lon="105.374643"><ele>290.19165</ele><time>2025-12-28T02:07:50.000Z</time></trkpt>
        <trkpt lat="29.138044" lon="105.374613"><ele>290.28305</ele><time>2025-12-28T02:07:51.000Z</time></trkpt>
        <trkpt lat="29.138105" lon="105.374582"><ele>290.44565</ele><time>2025-12-28T02:07:52.000Z</time></trkpt>
        <trkpt lat="29.138168" lon="105.37455"><ele>290.64728</ele><time>2025-12-28T02:07:53.000Z</time></trkpt>
        <trkpt lat="29.138231" lon="105.374517"><ele>290.8624</ele><time>2025-12-28T02:07:54.000Z</time></trkpt>
        <trkpt lat="29.138295" lon="105.374478"><ele>291.08725</ele><time>2025-12-28T02:07:55.000Z</time></trkpt>
        <trkpt lat="29.138361" lon="105.374438"><ele>291.33505</ele><time>2025-12-28T02:07:56.000Z</time></trkpt>
        <trkpt lat="29.138428" lon="105.374399"><ele>291.55243</ele><time>2025-12-28T02:07:57.000Z</time></trkpt>
        <trkpt lat="29.138496" lon="105.374361"><ele>291.7475</ele><time>2025-12-28T02:07:58.000Z</time></trkpt>
        <trkpt lat="29.138564" lon="105.374326"><ele>291.95325</ele><time>2025-12-28T02:07:59.000Z</time></trkpt>
        <trkpt lat="29.138629" lon="105.374293"><ele>292.16162</ele><time>2025-12-28T02:08:00.000Z</time></trkpt>
        <trkpt lat="29.13869" lon="105.374265"><ele>292.41025</ele><time>2025-12-28T02:08:01.000Z</time></trkpt>
        <trkpt lat="29.138751" lon="105.374241"><ele>292.62332</ele><time>2025-12-28T02:08:02.000Z</time></trkpt>
        <trkpt lat="29.138814" lon="105.374221"><ele>292.78104</ele><time>2025-12-28T02:08:03.000Z</time></trkpt>
        <trkpt lat="29.138881" lon="105.374206"><ele>292.9015</ele><time>2025-12-28T02:08:04.000Z</time></trkpt>
        <trkpt lat="29.138946" lon="105.37418"><ele>292.9877</ele><time>2025-12-28T02:08:05.000Z</time></trkpt>
        <trkpt lat="29.13902" lon="105.374178"><ele>293.0532</ele><time>2025-12-28T02:08:06.000Z</time></trkpt>
        <trkpt lat="29.139092" lon="105.374202"><ele>293.0588</ele><time>2025-12-28T02:08:07.000Z</time></trkpt>
        <trkpt lat="29.139166" lon="105.374233"><ele>293.00897</ele><time>2025-12-28T02:08:08.000Z</time></trkpt>
        <trkpt lat="29.139243" lon="105.374267"><ele>292.90164</ele><time>2025-12-28T02:08:09.000Z</time></trkpt>
        <trkpt lat="29.139321" lon="105.374315"><ele>292.7671</ele><time>2025-12-28T02:08:10.000Z</time></trkpt>
        <trkpt lat="29.139398" lon="105.374376"><ele>292.63602</ele><time>2025-12-28T02:08:11.000Z</time></trkpt>
        <trkpt lat="29.139474" lon="105.374448"><ele>292.47598</ele><time>2025-12-28T02:08:12.000Z</time></trkpt>
        <trkpt lat="29.139549" lon="105.374528"><ele>292.29993</ele><time>2025-12-28T02:08:13.000Z</time></trkpt>
        <trkpt lat="29.139623" lon="105.374616"><ele>292.13736</ele><time>2025-12-28T02:08:14.000Z</time></trkpt>
        <trkpt lat="29.139695" lon="105.374711"><ele>291.97583</ele><time>2025-12-28T02:08:15.000Z</time></trkpt>
        <trkpt lat="29.139769" lon="105.374813"><ele>291.80756</ele><time>2025-12-28T02:08:16.000Z</time></trkpt>
        <trkpt lat="29.139844" lon="105.374921"><ele>291.65353</ele><time>2025-12-28T02:08:17.000Z</time></trkpt>
        <trkpt lat="29.139922" lon="105.375033"><ele>291.5182</ele><time>2025-12-28T02:08:18.000Z</time></trkpt>
        <trkpt lat="29.140001" lon="105.37515"><ele>291.37555</ele><time>2025-12-28T02:08:19.000Z</time></trkpt>
        <trkpt lat="29.140081" lon="105.37527"><ele>291.24277</ele><time>2025-12-28T02:08:20.000Z</time></trkpt>
        <trkpt lat="29.140163" lon="105.375391"><ele>291.06635</ele><time>2025-12-28T02:08:21.000Z</time></trkpt>
        <trkpt lat="29.140246" lon="105.375514"><ele>290.83688</ele><time>2025-12-28T02:08:22.000Z</time></trkpt>
        <trkpt lat="29.14033" lon="105.375638"><ele>290.58627</ele><time>2025-12-28T02:08:23.000Z</time></trkpt>
        <trkpt lat="29.140415" lon="105.37576"><ele>290.30804</ele><time>2025-12-28T02:08:24.000Z</time></trkpt>
        <trkpt lat="29.1405" lon="105.375881"><ele>290.04837</ele><time>2025-12-28T02:08:25.000Z</time></trkpt>
        <trkpt lat="29.140586" lon="105.376"><ele>289.8202</ele><time>2025-12-28T02:08:26.000Z</time></trkpt>
        <trkpt lat="29.140672" lon="105.376118"><ele>289.61157</ele><time>2025-12-28T02:08:27.000Z</time></trkpt>
        <trkpt lat="29.140756" lon="105.376235"><ele>289.45892</ele><time>2025-12-28T02:08:28.000Z</time></trkpt>
        <trkpt lat="29.140841" lon="105.376352"><ele>289.36176</ele><time>2025-12-28T02:08:29.000Z</time></trkpt>
        <trkpt lat="29.140925" lon="105.376469"><ele>289.32156</ele><time>2025-12-28T02:08:30.000Z</time></trkpt>
        <trkpt lat="29.141008" lon="105.376586"><ele>289.3172</ele><time>2025-12-28T02:08:31.000Z</time></trkpt>
        <trkpt lat="29.141091" lon="105.376703"><ele>289.35068</ele><time>2025-12-28T02:08:32.000Z</time></trkpt>
        <trkpt lat="29.141174" lon="105.376822"><ele>289.42847</ele><time>2025-12-28T02:08:33.000Z</time></trkpt>
        <trkpt lat="29.141256" lon="105.376941"><ele>289.51056</ele><time>2025-12-28T02:08:34.000Z</time></trkpt>
        <trkpt lat="29.141337" lon="105.377062"><ele>289.58005</ele><time>2025-12-28T02:08:35.000Z</time></trkpt>
        <trkpt lat="29.141418" lon="105.377184"><ele>289.61697</ele><time>2025-12-28T02:08:36.000Z</time></trkpt>
        <trkpt lat="29.1415" lon="105.377306"><ele>289.64545</ele><time>2025-12-28T02:08:37.000Z</time></trkpt>
        <trkpt lat="29.141583" lon="105.377427"><ele>289.67798</ele><time>2025-12-28T02:08:38.000Z</time></trkpt>
        <trkpt lat="29.141668" lon="105.377546"><ele>289.69147</ele><time>2025-12-28T02:08:39.000Z</time></trkpt>
        <trkpt lat="29.141754" lon="105.377663"><ele>289.68365</ele><time>2025-12-28T02:08:40.000Z</time></trkpt>
        <trkpt lat="29.141842" lon="105.377778"><ele>289.6607</ele><time>2025-12-28T02:08:41.000Z</time></trkpt>
        <trkpt lat="29.141932" lon="105.377889"><ele>289.61005</ele><time>2025-12-28T02:08:42.000Z</time></trkpt>
        <trkpt lat="29.142025" lon="105.377997"><ele>289.53113</ele><time>2025-12-28T02:08:43.000Z</time></trkpt>
        <trkpt lat="29.14212" lon="105.378103"><ele>289.4357</ele><time>2025-12-28T02:08:44.000Z</time></trkpt>
        <trkpt lat="29.142218" lon="105.378207"><ele>289.34332</ele><time>2025-12-28T02:08:45.000Z</time></trkpt>
        <trkpt lat="29.142317" lon="105.378308"><ele>289.29108</ele><time>2025-12-28T02:08:46.000Z</time></trkpt>
        <trkpt lat="29.142418" lon="105.378408"><ele>289.24622</ele><time>2025-12-28T02:08:47.000Z</time></trkpt>
        <trkpt lat="29.142519" lon="105.378505"><ele>289.23685</ele><time>2025-12-28T02:08:48.000Z</time></trkpt>
        <trkpt lat="29.14262" lon="105.378601"><ele>289.2502</ele><time>2025-12-28T02:08:49.000Z</time></trkpt>
        <trkpt lat="29.142721" lon="105.378697"><ele>289.2932</ele><time>2025-12-28T02:08:50.000Z</time></trkpt>
        <trkpt lat="29.142821" lon="105.37879"><ele>289.37277</ele><time>2025-12-28T02:08:51.000Z</time></trkpt>
        <trkpt lat="29.14292" lon="105.378883"><ele>289.53732</ele><time>2025-12-28T02:08:52.000Z</time></trkpt>
        <trkpt lat="29.143019" lon="105.378975"><ele>289.75354</ele><time>2025-12-28T02:08:53.000Z</time></trkpt>
        <trkpt lat="29.143118" lon="105.379066"><ele>290.0129</ele><time>2025-12-28T02:08:54.000Z</time></trkpt>
        <trkpt lat="29.143216" lon="105.379156"><ele>290.32867</ele><time>2025-12-28T02:08:55.000Z</time></trkpt>
        <trkpt lat="29.143312" lon="105.379245"><ele>290.68317</ele><time>2025-12-28T02:08:56.000Z</time></trkpt>
        <trkpt lat="29.143407" lon="105.37933"><ele>291.02414</ele><time>2025-12-28T02:08:57.000Z</time></trkpt>
        <trkpt lat="29.143499" lon="105.379414"><ele>291.39154</ele><time>2025-12-28T02:08:58.000Z</time></trkpt>
        <trkpt lat="29.143589" lon="105.379498"><ele>291.72678</ele><time>2025-12-28T02:08:59.000Z</time></trkpt>
        <trkpt lat="29.143678" lon="105.379583"><ele>292.0033</ele><time>2025-12-28T02:09:00.000Z</time></trkpt>
        <trkpt lat="29.143766" lon="105.379667"><ele>292.22446</ele><time>2025-12-28T02:09:01.000Z</time></trkpt>
        <trkpt lat="29.143855" lon="105.379752"><ele>292.38638</ele><time>2025-12-28T02:09:02.000Z</time></trkpt>
        <trkpt lat="29.143944" lon="105.379836"><ele>292.4782</ele><time>2025-12-28T02:09:03.000Z</time></trkpt>
        <trkpt lat="29.144034" lon="105.37992"><ele>292.52936</ele><time>2025-12-28T02:09:04.000Z</time></trkpt>
        <trkpt lat="29.144125" lon="105.380001"><ele>292.5163</ele><time>2025-12-28T02:09:05.000Z</time></trkpt>
        <trkpt lat="29.144217" lon="105.380079"><ele>292.4342</ele><time>2025-12-28T02:09:06.000Z</time></trkpt>
        <trkpt lat="29.14431" lon="105.380154"><ele>292.27585</ele><time>2025-12-28T02:09:07.000Z</time></trkpt>
        <trkpt lat="29.144404" lon="105.380226"><ele>292.07965</ele><time>2025-12-28T02:09:08.000Z</time></trkpt>
        <trkpt lat="29.144501" lon="105.380292"><ele>291.835</ele><time>2025-12-28T02:09:09.000Z</time></trkpt>
        <trkpt lat="29.144599" lon="105.380354"><ele>291.5617</ele><time>2025-12-28T02:09:10.000Z</time></trkpt>
        <trkpt lat="29.144701" lon="105.380412"><ele>291.28543</ele><time>2025-12-28T02:09:11.000Z</time></trkpt>
        <trkpt lat="29.144806" lon="105.380467"><ele>291.02023</ele><time>2025-12-28T02:09:12.000Z</time></trkpt>
        <trkpt lat="29.144913" lon="105.38052"><ele>290.84064</ele><time>2025-12-28T02:09:13.000Z</time></trkpt>
        <trkpt lat="29.145022" lon="105.380572"><ele>290.71634</ele><time>2025-12-28T02:09:14.000Z</time></trkpt>
        <trkpt lat="29.145131" lon="105.380624"><ele>290.61005</ele><time>2025-12-28T02:09:15.000Z</time></trkpt>
        <trkpt lat="29.145242" lon="105.380675"><ele>290.51794</ele><time>2025-12-28T02:09:16.000Z</time></trkpt>
        <trkpt lat="29.145353" lon="105.380727"><ele>290.47403</ele><time>2025-12-28T02:09:17.000Z</time></trkpt>
        <trkpt lat="29.145465" lon="105.380778"><ele>290.47107</ele><time>2025-12-28T02:09:18.000Z</time></trkpt>
        <trkpt lat="29.145575" lon="105.380828"><ele>290.54453</ele><time>2025-12-28T02:09:19.000Z</time></trkpt>
        <trkpt lat="29.145684" lon="105.380877"><ele>290.6195</ele><time>2025-12-28T02:09:20.000Z</time></trkpt>
        <trkpt lat="29.145791" lon="105.380924"><ele>290.6563</ele><time>2025-12-28T02:09:21.000Z</time></trkpt>
        <trkpt lat="29.145894" lon="105.380967"><ele>290.67685</ele><time>2025-12-28T02:09:22.000Z</time></trkpt>
        <trkpt lat="29.145995" lon="105.381004"><ele>290.61896</ele><time>2025-12-28T02:09:23.000Z</time></trkpt>
        <trkpt lat="29.146097" lon="105.381035"><ele>290.5132</ele><time>2025-12-28T02:09:24.000Z</time></trkpt>
        <trkpt lat="29.146199" lon="105.38106"><ele>290.33096</ele><time>2025-12-28T02:09:25.000Z</time></trkpt>
        <trkpt lat="29.146302" lon="105.381077"><ele>290.18546</ele><time>2025-12-28T02:09:26.000Z</time></trkpt>
        <trkpt lat="29.146408" lon="105.381085"><ele>290.03336</ele><time>2025-12-28T02:09:27.000Z</time></trkpt>
        <trkpt lat="29.146516" lon="105.381083"><ele>289.90393</ele><time>2025-12-28T02:09:28.000Z</time></trkpt>
        <trkpt lat="29.146625" lon="105.381068"><ele>289.8139</ele><time>2025-12-28T02:09:29.000Z</time></trkpt>
        <trkpt lat="29.146734" lon="105.38104"><ele>289.84787</ele><time>2025-12-28T02:09:30.000Z</time></trkpt>
        <trkpt lat="29.146844" lon="105.381002"><ele>289.95193</ele><time>2025-12-28T02:09:31.000Z</time></trkpt>
        <trkpt lat="29.146952" lon="105.380956"><ele>290.12927</ele><time>2025-12-28T02:09:32.000Z</time></trkpt>
        <trkpt lat="29.147057" lon="105.380905"><ele>290.32794</ele><time>2025-12-28T02:09:33.000Z</time></trkpt>
        <trkpt lat="29.14716" lon="105.38085"><ele>290.56946</ele><time>2025-12-28T02:09:34.000Z</time></trkpt>
        <trkpt lat="29.147262" lon="105.38079"><ele>290.87814</ele><time>2025-12-28T02:09:35.000Z</time></trkpt>
        <trkpt lat="29.147363" lon="105.380728"><ele>291.3516</ele><time>2025-12-28T02:09:36.000Z</time></trkpt>
        <trkpt lat="29.147464" lon="105.380665"><ele>291.79315</ele><time>2025-12-28T02:09:37.000Z</time></trkpt>
        <trkpt lat="29.147563" lon="105.3806"><ele>292.2553</ele><time>2025-12-28T02:09:38.000Z</time></trkpt>
        <trkpt lat="29.14766" lon="105.380534"><ele>292.63345</ele><time>2025-12-28T02:09:39.000Z</time></trkpt>
        <trkpt lat="29.147755" lon="105.380469"><ele>292.9615</ele><time>2025-12-28T02:09:40.000Z</time></trkpt>
        <trkpt lat="29.147844" lon="105.380406"><ele>293.1466</ele><time>2025-12-28T02:09:41.000Z</time></trkpt>
        <trkpt lat="29.147928" lon="105.380345"><ele>293.28638</ele><time>2025-12-28T02:09:42.000Z</time></trkpt>
        <trkpt lat="29.148007" lon="105.380287"><ele>293.33398</ele><time>2025-12-28T02:09:43.000Z</time></trkpt>
        <trkpt lat="29.148078" lon="105.380234"><ele>293.3135</ele><time>2025-12-28T02:09:44.000Z</time></trkpt>
        <trkpt lat="29.148141" lon="105.380187"><ele>293.28546</ele><time>2025-12-28T02:09:45.000Z</time></trkpt>
        <trkpt lat="29.1482" lon="105.380142"><ele>293.19058</ele><time>2025-12-28T02:09:46.000Z</time></trkpt>
        <trkpt lat="29.148258" lon="105.380097"><ele>293.0605</ele><time>2025-12-28T02:09:47.000Z</time></trkpt>
        <trkpt lat="29.148321" lon="105.38005"><ele>292.98474</ele><time>2025-12-28T02:09:48.000Z</time></trkpt>
        <trkpt lat="29.148392" lon="105.380008"><ele>292.78824</ele><time>2025-12-28T02:09:49.000Z</time></trkpt>
        <trkpt lat="29.14847" lon="105.379961"><ele>292.52853</ele><time>2025-12-28T02:09:50.000Z</time></trkpt>
        <trkpt lat="29.148551" lon="105.379909"><ele>292.14554</ele><time>2025-12-28T02:09:51.000Z</time></trkpt>
        <trkpt lat="29.148636" lon="105.379852"><ele>291.73276</ele><time>2025-12-28T02:09:52.000Z</time></trkpt>
        <trkpt lat="29.148723" lon="105.379791"><ele>291.337</ele><time>2025-12-28T02:09:53.000Z</time></trkpt>
        <trkpt lat="29.148814" lon="105.379725"><ele>290.87463</ele><time>2025-12-28T02:09:54.000Z</time></trkpt>
        <trkpt lat="29.148905" lon="105.379652"><ele>290.4197</ele><time>2025-12-28T02:09:55.000Z</time></trkpt>
        <trkpt lat="29.148999" lon="105.379578"><ele>289.97812</ele><time>2025-12-28T02:09:56.000Z</time></trkpt>
        <trkpt lat="29.149095" lon="105.379504"><ele>289.53336</ele><time>2025-12-28T02:09:57.000Z</time></trkpt>
        <trkpt lat="29.149193" lon="105.379429"><ele>289.14554</ele><time>2025-12-28T02:09:58.000Z</time></trkpt>
        <trkpt lat="29.14929" lon="105.379355"><ele>288.84958</ele><time>2025-12-28T02:09:59.000Z</time></trkpt>
        <trkpt lat="29.149386" lon="105.379283"><ele>288.6131</ele><time>2025-12-28T02:10:00.000Z</time></trkpt>
        <trkpt lat="29.149477" lon="105.379215"><ele>288.42438</ele><time>2025-12-28T02:10:01.000Z</time></trkpt>
        <trkpt lat="29.149561" lon="105.379152"><ele>288.29678</ele><time>2025-12-28T02:10:02.000Z</time></trkpt>
        <trkpt lat="29.149636" lon="105.379096"><ele>288.16568</ele><time>2025-12-28T02:10:03.000Z</time></trkpt>
        <trkpt lat="29.149704" lon="105.379047"><ele>288.10345</ele><time>2025-12-28T02:10:04.000Z</time></trkpt>
        <trkpt lat="29.149766" lon="105.379007"><ele>288.09137</ele><time>2025-12-28T02:10:05.000Z</time></trkpt>
        <trkpt lat="29.149822" lon="105.378977"><ele>288.13498</ele><time>2025-12-28T02:10:06.000Z</time></trkpt>
        <trkpt lat="29.149872" lon="105.37896"><ele>288.17645</ele><time>2025-12-28T02:10:07.000Z</time></trkpt>
        <trkpt lat="29.149972" lon="105.378953"><ele>288.1835</ele><time>2025-12-28T02:10:09.000Z</time></trkpt>
        <trkpt lat="29.150002" lon="105.379004"><ele>288.27368</ele><time>2025-12-28T02:10:10.000Z</time></trkpt>
        <trkpt lat="29.150029" lon="105.37907"><ele>288.3772</ele><time>2025-12-28T02:10:11.000Z</time></trkpt>
        <trkpt lat="29.150056" lon="105.37915"><ele>288.52618</ele><time>2025-12-28T02:10:12.000Z</time></trkpt>
        <trkpt lat="29.150081" lon="105.379243"><ele>288.67902</ele><time>2025-12-28T02:10:13.000Z</time></trkpt>
        <trkpt lat="29.150107" lon="105.379348"><ele>288.80652</ele><time>2025-12-28T02:10:14.000Z</time></trkpt>
        <trkpt lat="29.150134" lon="105.379462"><ele>288.9157</ele><time>2025-12-28T02:10:15.000Z</time></trkpt>
        <trkpt lat="29.150162" lon="105.379585"><ele>289.00287</ele><time>2025-12-28T02:10:16.000Z</time></trkpt>
        <trkpt lat="29.150191" lon="105.379715"><ele>289.0908</ele><time>2025-12-28T02:10:17.000Z</time></trkpt>
        <trkpt lat="29.150222" lon="105.379848"><ele>289.1636</ele><time>2025-12-28T02:10:18.000Z</time></trkpt>
        <trkpt lat="29.150254" lon="105.379983"><ele>289.2047</ele><time>2025-12-28T02:10:19.000Z</time></trkpt>
        <trkpt lat="29.150287" lon="105.380121"><ele>289.2196</ele><time>2025-12-28T02:10:20.000Z</time></trkpt>
        <trkpt lat="29.150321" lon="105.380259"><ele>289.25262</ele><time>2025-12-28T02:10:21.000Z</time></trkpt>
        <trkpt lat="29.150355" lon="105.380396"><ele>289.27368</ele><time>2025-12-28T02:10:22.000Z</time></trkpt>
        <trkpt lat="29.15039" lon="105.380534"><ele>289.2757</ele><time>2025-12-28T02:10:23.000Z</time></trkpt>
        <trkpt lat="29.150427" lon="105.38067"><ele>289.27805</ele><time>2025-12-28T02:10:24.000Z</time></trkpt>
        <trkpt lat="29.150465" lon="105.380806"><ele>289.28525</ele><time>2025-12-28T02:10:25.000Z</time></trkpt>
        <trkpt lat="29.150505" lon="105.380939"><ele>289.2921</ele><time>2025-12-28T02:10:26.000Z</time></trkpt>
        <trkpt lat="29.150547" lon="105.38107"><ele>289.29303</ele><time>2025-12-28T02:10:27.000Z</time></trkpt>
        <trkpt lat="29.150593" lon="105.381197"><ele>289.3054</ele><time>2025-12-28T02:10:28.000Z</time></trkpt>
        <trkpt lat="29.150641" lon="105.38132"><ele>289.3431</ele><time>2025-12-28T02:10:29.000Z</time></trkpt>
        <trkpt lat="29.150693" lon="105.381437"><ele>289.3739</ele><time>2025-12-28T02:10:30.000Z</time></trkpt>
        <trkpt lat="29.150744" lon="105.381551"><ele>289.40582</ele><time>2025-12-28T02:10:31.000Z</time></trkpt>
        <trkpt lat="29.150797" lon="105.381659"><ele>289.45792</ele><time>2025-12-28T02:10:32.000Z</time></trkpt>
        <trkpt lat="29.150855" lon="105.381761"><ele>289.50363</ele><time>2025-12-28T02:10:33.000Z</time></trkpt>
        <trkpt lat="29.15091" lon="105.381859"><ele>289.5372</ele><time>2025-12-28T02:10:34.000Z</time></trkpt>
        <trkpt lat="29.150965" lon="105.381953"><ele>289.55634</ele><time>2025-12-28T02:10:35.000Z</time></trkpt>
        <trkpt lat="29.151018" lon="105.382042"><ele>289.57532</ele><time>2025-12-28T02:10:36.000Z</time></trkpt>
        <trkpt lat="29.151071" lon="105.382124"><ele>289.58298</ele><time>2025-12-28T02:10:37.000Z</time></trkpt>
        <trkpt lat="29.151123" lon="105.382203"><ele>289.5802</ele><time>2025-12-28T02:10:38.000Z</time></trkpt>
        <trkpt lat="29.151175" lon="105.38228"><ele>289.5649</ele><time>2025-12-28T02:10:39.000Z</time></trkpt>
        <trkpt lat="29.15123" lon="105.382355"><ele>289.5748</ele><time>2025-12-28T02:10:40.000Z</time></trkpt>
        <trkpt lat="29.151287" lon="105.382431"><ele>289.55344</ele><time>2025-12-28T02:10:41.000Z</time></trkpt>
        <trkpt lat="29.151344" lon="105.38251"><ele>289.5207</ele><time>2025-12-28T02:10:42.000Z</time></trkpt>
        <trkpt lat="29.151402" lon="105.382592"><ele>289.4729</ele><time>2025-12-28T02:10:43.000Z</time></trkpt>
        <trkpt lat="29.151459" lon="105.382677"><ele>289.41574</ele><time>2025-12-28T02:10:44.000Z</time></trkpt>
        <trkpt lat="29.151518" lon="105.382763"><ele>289.3436</ele><time>2025-12-28T02:10:45.000Z</time></trkpt>
        <trkpt lat="29.151577" lon="105.382851"><ele>289.27267</ele><time>2025-12-28T02:10:46.000Z</time></trkpt>
        <trkpt lat="29.151637" lon="105.382942"><ele>289.20227</ele><time>2025-12-28T02:10:47.000Z</time></trkpt>
        <trkpt lat="29.151698" lon="105.383036"><ele>289.15347</ele><time>2025-12-28T02:10:48.000Z</time></trkpt>
        <trkpt lat="29.15176" lon="105.383132"><ele>289.1158</ele><time>2025-12-28T02:10:49.000Z</time></trkpt>
        <trkpt lat="29.151822" lon="105.383231"><ele>289.07468</ele><time>2025-12-28T02:10:50.000Z</time></trkpt>
        <trkpt lat="29.151885" lon="105.383332"><ele>289.05374</ele><time>2025-12-28T02:10:51.000Z</time></trkpt>
        <trkpt lat="29.151949" lon="105.383435"><ele>289.07214</ele><time>2025-12-28T02:10:52.000Z</time></trkpt>
        <trkpt lat="29.152012" lon="105.383539"><ele>289.06592</ele><time>2025-12-28T02:10:53.000Z</time></trkpt>
        <trkpt lat="29.152074" lon="105.38364"><ele>289.04544</ele><time>2025-12-28T02:10:54.000Z</time></trkpt>
        <trkpt lat="29.152134" lon="105.38374"><ele>289.0034</ele><time>2025-12-28T02:10:55.000Z</time></trkpt>
        <trkpt lat="29.152192" lon="105.383836"><ele>288.93924</ele><time>2025-12-28T02:10:56.000Z</time></trkpt>
        <trkpt lat="29.15225" lon="105.383925"><ele>288.86243</ele><time>2025-12-28T02:10:57.000Z</time></trkpt>
        <trkpt lat="29.152305" lon="105.384008"><ele>288.77817</ele><time>2025-12-28T02:10:58.000Z</time></trkpt>
        <trkpt lat="29.152355" lon="105.384084"><ele>288.69913</ele><time>2025-12-28T02:10:59.000Z</time></trkpt>
        <trkpt lat="29.152402" lon="105.384153"><ele>288.63037</ele><time>2025-12-28T02:11:00.000Z</time></trkpt>
        <trkpt lat="29.152445" lon="105.384216"><ele>288.57642</ele><time>2025-12-28T02:11:01.000Z</time></trkpt>
        <trkpt lat="29.152521" lon="105.384326"><ele>288.47845</ele><time>2025-12-28T02:11:03.000Z</time></trkpt>
        <trkpt lat="29.15254" lon="105.384363"><ele>288.43512</ele><time>2025-12-28T02:11:04.000Z</time></trkpt>
        <trkpt lat="29.152585" lon="105.384442"><ele>288.35</ele><time>2025-12-28T02:11:06.000Z</time></trkpt>
        <trkpt lat="29.152598" lon="105.384467"><ele>288.33072</ele><time>2025-12-28T02:11:07.000Z</time></trkpt>
        <trkpt lat="29.152618" lon="105.384499"><ele>288.32443</ele><time>2025-12-28T02:11:08.000Z</time></trkpt>
        <trkpt lat="29.152644" lon="105.38454"><ele>288.3549</ele><time>2025-12-28T02:11:09.000Z</time></trkpt>
        <trkpt lat="29.152676" lon="105.38459"><ele>288.3837</ele><time>2025-12-28T02:11:10.000Z</time></trkpt>
        <trkpt lat="29.152713" lon="105.384646"><ele>288.40692</ele><time>2025-12-28T02:11:11.000Z</time></trkpt>
        <trkpt lat="29.152752" lon="105.384706"><ele>288.4203</ele><time>2025-12-28T02:11:12.000Z</time></trkpt>
        <trkpt lat="29.152793" lon="105.384767"><ele>288.43994</ele><time>2025-12-28T02:11:13.000Z</time></trkpt>
        <trkpt lat="29.152834" lon="105.384828"><ele>288.45657</ele><time>2025-12-28T02:11:14.000Z</time></trkpt>
        <trkpt lat="29.152873" lon="105.384886"><ele>288.47958</ele><time>2025-12-28T02:11:15.000Z</time></trkpt>
        <trkpt lat="29.152911" lon="105.384942"><ele>288.48703</ele><time>2025-12-28T02:11:16.000Z</time></trkpt>
        <trkpt lat="29.152948" lon="105.384995"><ele>288.48413</ele><time>2025-12-28T02:11:17.000Z</time></trkpt>
        <trkpt lat="29.152985" lon="105.385048"><ele>288.4741</ele><time>2025-12-28T02:11:18.000Z</time></trkpt>
        <trkpt lat="29.153023" lon="105.385104"><ele>288.44827</ele><time>2025-12-28T02:11:19.000Z</time></trkpt>
        <trkpt lat="29.153063" lon="105.385164"><ele>288.43622</ele><time>2025-12-28T02:11:20.000Z</time></trkpt>
        <trkpt lat="29.153107" lon="105.38523"><ele>288.43555</ele><time>2025-12-28T02:11:21.000Z</time></trkpt>
        <trkpt lat="29.153154" lon="105.385299"><ele>288.44736</ele><time>2025-12-28T02:11:22.000Z</time></trkpt>
        <trkpt lat="29.153205" lon="105.385374"><ele>288.46786</ele><time>2025-12-28T02:11:23.000Z</time></trkpt>
        <trkpt lat="29.153258" lon="105.385453"><ele>288.48566</ele><time>2025-12-28T02:11:24.000Z</time></trkpt>
        <trkpt lat="29.153314" lon="105.385535"><ele>288.5137</ele><time>2025-12-28T02:11:25.000Z</time></trkpt>
        <trkpt lat="29.15337" lon="105.385617"><ele>288.5502</ele><time>2025-12-28T02:11:26.000Z</time></trkpt>
        <trkpt lat="29.153426" lon="105.385698"><ele>288.5881</ele><time>2025-12-28T02:11:27.000Z</time></trkpt>
        <trkpt lat="29.15348" lon="105.385778"><ele>288.62015</ele><time>2025-12-28T02:11:28.000Z</time></trkpt>
        <trkpt lat="29.153531" lon="105.385855"><ele>288.66904</ele><time>2025-12-28T02:11:29.000Z</time></trkpt>
        <trkpt lat="29.15358" lon="105.38593"><ele>288.71246</ele><time>2025-12-28T02:11:30.000Z</time></trkpt>
        <trkpt lat="29.153627" lon="105.386003"><ele>288.73877</ele><time>2025-12-28T02:11:31.000Z</time></trkpt>
        <trkpt lat="29.15367" lon="105.386073"><ele>288.74243</ele><time>2025-12-28T02:11:32.000Z</time></trkpt>
        <trkpt lat="29.153711" lon="105.38614"><ele>288.71912</ele><time>2025-12-28T02:11:33.000Z</time></trkpt>
        <trkpt lat="29.153749" lon="105.386205"><ele>288.68134</ele><time>2025-12-28T02:11:34.000Z</time></trkpt>
        <trkpt lat="29.153783" lon="105.386266"><ele>288.6542</ele><time>2025-12-28T02:11:35.000Z</time></trkpt>
        <trkpt lat="29.153844" lon="105.38637"><ele>288.62668</ele><time>2025-12-28T02:11:37.000Z</time></trkpt>
        <trkpt lat="29.153888" lon="105.386447"><ele>288.57794</ele><time>2025-12-28T02:11:39.000Z</time></trkpt>
        <trkpt lat="29.153915" lon="105.386522"><ele>288.4387</ele><time>2025-12-28T02:11:42.000Z</time></trkpt>
        <trkpt lat="29.153895" lon="105.386565"><ele>288.24838</ele><time>2025-12-28T02:11:45.000Z</time></trkpt>
        <trkpt lat="29.153858" lon="105.386569"><ele>288.1314</ele><time>2025-12-28T02:11:46.000Z</time></trkpt>
        <trkpt lat="29.153821" lon="105.386583"><ele>288.0246</ele><time>2025-12-28T02:11:47.000Z</time></trkpt>
        <trkpt lat="29.153779" lon="105.386601"><ele>287.8908</ele><time>2025-12-28T02:11:48.000Z</time></trkpt>
        <trkpt lat="29.15373" lon="105.386623"><ele>287.75558</ele><time>2025-12-28T02:11:49.000Z</time></trkpt>
        <trkpt lat="29.153675" lon="105.386649"><ele>287.5901</ele><time>2025-12-28T02:11:50.000Z</time></trkpt>
        <trkpt lat="29.153613" lon="105.38668"><ele>287.4188</ele><time>2025-12-28T02:11:51.000Z</time></trkpt>
        <trkpt lat="29.153546" lon="105.386714"><ele>287.3287</ele><time>2025-12-28T02:11:52.000Z</time></trkpt>
        <trkpt lat="29.153475" lon="105.386753"><ele>287.29056</ele><time>2025-12-28T02:11:53.000Z</time></trkpt>
        <trkpt lat="29.1534" lon="105.386794"><ele>287.33408</ele><time>2025-12-28T02:11:54.000Z</time></trkpt>
        <trkpt lat="29.153324" lon="105.386838"><ele>287.44095</ele><time>2025-12-28T02:11:55.000Z</time></trkpt>
        <trkpt lat="29.153245" lon="105.386884"><ele>287.56537</ele><time>2025-12-28T02:11:56.000Z</time></trkpt>
        <trkpt lat="29.153166" lon="105.386931"><ele>287.71747</ele><time>2025-12-28T02:11:57.000Z</time></trkpt>
        <trkpt lat="29.153087" lon="105.38698"><ele>287.91098</ele><time>2025-12-28T02:11:58.000Z</time></trkpt>
        <trkpt lat="29.153008" lon="105.38703"><ele>288.09845</ele><time>2025-12-28T02:11:59.000Z</time></trkpt>
        <trkpt lat="29.15293" lon="105.387079"><ele>288.29688</ele><time>2025-12-28T02:12:00.000Z</time></trkpt>
        <trkpt lat="29.152854" lon="105.387127"><ele>288.5048</ele><time>2025-12-28T02:12:01.000Z</time></trkpt>
        <trkpt lat="29.152779" lon="105.387168"><ele>288.70117</ele><time>2025-12-28T02:12:02.000Z</time></trkpt>
        <trkpt lat="29.152707" lon="105.387195"><ele>288.90433</ele><time>2025-12-28T02:12:03.000Z</time></trkpt>
        <trkpt lat="29.152638" lon="105.387206"><ele>289.11594</ele><time>2025-12-28T02:12:04.000Z</time></trkpt>
        <trkpt lat="29.152571" lon="105.387206"><ele>289.31274</ele><time>2025-12-28T02:12:05.000Z</time></trkpt>
        <trkpt lat="29.152505" lon="105.387195"><ele>289.56308</ele><time>2025-12-28T02:12:06.000Z</time></trkpt>
        <trkpt lat="29.152441" lon="105.38717"><ele>289.81296</ele><time>2025-12-28T02:12:07.000Z</time></trkpt>
        <trkpt lat="29.15238" lon="105.38713"><ele>290.04037</ele><time>2025-12-28T02:12:08.000Z</time></trkpt>
        <trkpt lat="29.152319" lon="105.387086"><ele>290.26404</ele><time>2025-12-28T02:12:09.000Z</time></trkpt>
        <trkpt lat="29.152262" lon="105.387034"><ele>290.4833</ele><time>2025-12-28T02:12:10.000Z</time></trkpt>
        <trkpt lat="29.152203" lon="105.38699"><ele>290.67197</ele><time>2025-12-28T02:12:11.000Z</time></trkpt>
        <trkpt lat="29.152145" lon="105.386954"><ele>290.8306</ele><time>2025-12-28T02:12:12.000Z</time></trkpt>
        <trkpt lat="29.152094" lon="105.386939"><ele>291.01376</ele><time>2025-12-28T02:12:13.000Z</time></trkpt>
        <trkpt lat="29.152046" lon="105.386939"><ele>291.20734</ele><time>2025-12-28T02:12:14.000Z</time></trkpt>
        <trkpt lat="29.152004" lon="105.386953"><ele>291.41125</ele><time>2025-12-28T02:12:15.000Z</time></trkpt>
        <trkpt lat="29.151972" lon="105.386981"><ele>291.59827</ele><time>2025-12-28T02:12:16.000Z</time></trkpt>
        <trkpt lat="29.151947" lon="105.387021"><ele>291.81375</ele><time>2025-12-28T02:12:17.000Z</time></trkpt>
        <trkpt lat="29.151928" lon="105.387073"><ele>292.071</ele><time>2025-12-28T02:12:18.000Z</time></trkpt>
        <trkpt lat="29.151915" lon="105.387136"><ele>292.35535</ele><time>2025-12-28T02:12:19.000Z</time></trkpt>
        <trkpt lat="29.151906" lon="105.38721"><ele>292.70282</ele><time>2025-12-28T02:12:20.000Z</time></trkpt>
        <trkpt lat="29.151903" lon="105.387295"><ele>293.0781</ele><time>2025-12-28T02:12:21.000Z</time></trkpt>
        <trkpt lat="29.151906" lon="105.38739"><ele>293.50537</ele><time>2025-12-28T02:12:22.000Z</time></trkpt>
        <trkpt lat="29.151913" lon="105.387495"><ele>293.9719</ele><time>2025-12-28T02:12:23.000Z</time></trkpt>
        <trkpt lat="29.151924" lon="105.387608"><ele>294.50507</ele><time>2025-12-28T02:12:24.000Z</time></trkpt>
        <trkpt lat="29.151937" lon="105.387727"><ele>295.09863</ele><time>2025-12-28T02:12:25.000Z</time></trkpt>
        <trkpt lat="29.151951" lon="105.38785"><ele>295.8007</ele><time>2025-12-28T02:12:26.000Z</time></trkpt>
        <trkpt lat="29.151966" lon="105.387975"><ele>296.55838</ele><time>2025-12-28T02:12:27.000Z</time></trkpt>
        <trkpt lat="29.151982" lon="105.3881"><ele>297.3869</ele><time>2025-12-28T02:12:28.000Z</time></trkpt>
        <trkpt lat="29.151997" lon="105.388224"><ele>298.25397</ele><time>2025-12-28T02:12:29.000Z</time></trkpt>
        <trkpt lat="29.152012" lon="105.388347"><ele>299.14056</ele><time>2025-12-28T02:12:30.000Z</time></trkpt>
        <trkpt lat="29.152027" lon="105.388468"><ele>300.07275</ele><time>2025-12-28T02:12:31.000Z</time></trkpt>
        <trkpt lat="29.152042" lon="105.388587"><ele>300.99417</ele><time>2025-12-28T02:12:32.000Z</time></trkpt>
        <trkpt lat="29.152057" lon="105.388704"><ele>301.89236</ele><time>2025-12-28T02:12:33.000Z</time></trkpt>
        <trkpt lat="29.152072" lon="105.388819"><ele>302.72952</ele><time>2025-12-28T02:12:34.000Z</time></trkpt>
        <trkpt lat="29.152086" lon="105.388931"><ele>303.49112</ele><time>2025-12-28T02:12:35.000Z</time></trkpt>
        <trkpt lat="29.152097" lon="105.389041"><ele>304.1662</ele><time>2025-12-28T02:12:36.000Z</time></trkpt>
        <trkpt lat="29.152105" lon="105.389148"><ele>304.836</ele><time>2025-12-28T02:12:37.000Z</time></trkpt>
        <trkpt lat="29.152109" lon="105.389251"><ele>305.43002</ele><time>2025-12-28T02:12:38.000Z</time></trkpt>
        <trkpt lat="29.152108" lon="105.38935"><ele>305.94864</ele><time>2025-12-28T02:12:39.000Z</time></trkpt>
        <trkpt lat="29.152104" lon="105.389444"><ele>306.39825</ele><time>2025-12-28T02:12:40.000Z</time></trkpt>
        <trkpt lat="29.152097" lon="105.389532"><ele>306.8352</ele><time>2025-12-28T02:12:41.000Z</time></trkpt>
        <trkpt lat="29.152086" lon="105.389615"><ele>307.27032</ele><time>2025-12-28T02:12:42.000Z</time></trkpt>
        <trkpt lat="29.152072" lon="105.389696"><ele>307.76907</ele><time>2025-12-28T02:12:43.000Z</time></trkpt>
        <trkpt lat="29.152054" lon="105.389776"><ele>308.3551</ele><time>2025-12-28T02:12:44.000Z</time></trkpt>
        <trkpt lat="29.152033" lon="105.389854"><ele>308.97195</ele><time>2025-12-28T02:12:45.000Z</time></trkpt>
        <trkpt lat="29.152009" lon="105.389932"><ele>309.62698</ele><time>2025-12-28T02:12:46.000Z</time></trkpt>
        <trkpt lat="29.151984" lon="105.390008"><ele>310.31903</ele><time>2025-12-28T02:12:47.000Z</time></trkpt>
        <trkpt lat="29.151958" lon="105.390083"><ele>311.02017</ele><time>2025-12-28T02:12:48.000Z</time></trkpt>
        <trkpt lat="29.151932" lon="105.390157"><ele>311.7651</ele><time>2025-12-28T02:12:49.000Z</time></trkpt>
        <trkpt lat="29.151906" lon="105.390227"><ele>312.4549</ele><time>2025-12-28T02:12:50.000Z</time></trkpt>
        <trkpt lat="29.151883" lon="105.390291"><ele>313.08102</ele><time>2025-12-28T02:12:51.000Z</time></trkpt>
        <trkpt lat="29.151844" lon="105.390409"><ele>314.11197</ele><time>2025-12-28T02:12:53.000Z</time></trkpt>
        <trkpt lat="29.151822" lon="105.390454"><ele>314.57086</ele><time>2025-12-28T02:12:54.000Z</time></trkpt>
        <trkpt lat="29.1518" lon="105.390499"><ele>315.0284</ele><time>2025-12-28T02:12:55.000Z</time></trkpt>
        <trkpt lat="29.151777" lon="105.390542"><ele>315.4631</ele><time>2025-12-28T02:12:56.000Z</time></trkpt>
        <trkpt lat="29.151731" lon="105.390618"><ele>316.209</ele><time>2025-12-28T02:12:58.000Z</time></trkpt>
        <trkpt lat="29.151661" lon="105.390546"><ele>315.88297</ele><time>2025-12-28T02:14:19.000Z</time></trkpt>
        <trkpt lat="29.151636" lon="105.39049"><ele>315.12924</ele><time>2025-12-28T02:14:38.000Z</time></trkpt>
        <trkpt lat="29.151683" lon="105.390519"><ele>316.6522</ele><time>2025-12-28T02:15:12.000Z</time></trkpt>
        <trkpt lat="29.15172" lon="105.39046"><ele>316.0142</ele><time>2025-12-28T02:15:15.000Z</time></trkpt>
        <trkpt lat="29.151742" lon="105.390411"><ele>315.43518</ele><time>2025-12-28T02:15:17.000Z</time></trkpt>
        <trkpt lat="29.151758" lon="105.390373"><ele>315.12332</ele><time>2025-12-28T02:15:18.000Z</time></trkpt>
        <trkpt lat="29.151777" lon="105.390329"><ele>314.70755</ele><time>2025-12-28T02:15:19.000Z</time></trkpt>
        <trkpt lat="29.151798" lon="105.39028"><ele>314.2427</ele><time>2025-12-28T02:15:20.000Z</time></trkpt>
        <trkpt lat="29.15182" lon="105.390226"><ele>313.7906</ele><time>2025-12-28T02:15:21.000Z</time></trkpt>
        <trkpt lat="29.151863" lon="105.390178"><ele>313.313</ele><time>2025-12-28T02:15:22.000Z</time></trkpt>
        <trkpt lat="29.151905" lon="105.390122"><ele>312.89444</ele><time>2025-12-28T02:15:23.000Z</time></trkpt>
        <trkpt lat="29.151941" lon="105.390062"><ele>312.3643</ele><time>2025-12-28T02:15:24.000Z</time></trkpt>
        <trkpt lat="29.151972" lon="105.390002"><ele>311.78595</ele><time>2025-12-28T02:15:25.000Z</time></trkpt>
        <trkpt lat="29.152017" lon="105.3899"><ele>310.97952</ele><time>2025-12-28T02:15:27.000Z</time></trkpt>
      </trkseg>
  </trk>
</gpx>